     2              OBSERVATION DATA    GPS                 RINEX VERSION / TYPE
teqc 2000Jul20 Karen Wendt 20030613 21:06:49UTC             PGM / RUN BY / DATE
                                                            COMMENT
L2: 1 -> 1; 150 -> 5; 250 -> 9                              COMMENT
L2: 1 -> 1; 150 -> 5; 250 -> 9                              COMMENT
L2: 1 -> 1; 150 -> 5; 250 -> 9                              COMMENT
L2: 1 -> 1; 150 -> 5; 250 -> 9                              COMMENT
L2: 1 -> 1; 150 -> 5; 250 -> 9                              COMMENT
L2: 1 -> 1; 150 -> 5; 250 -> 9                              COMMENT
L2: 1 -> 1; 150 -> 5; 250 -> 9                              COMMENT
L2: 1 -> 1; 150 -> 5; 250 -> 9                              COMMENT
L2: 1 -> 1; 150 -> 5; 250 -> 9                              COMMENT
L2: 1 -> 1; 150 -> 5; 250 -> 9                              COMMENT
L2: 1 -> 1; 150 -> 5; 250 -> 9                              COMMENT
L2: 1 -> 1; 150 -> 5; 250 -> 9                              COMMENT
L2: 1 -> 1; 150 -> 5; 250 -> 9                              COMMENT
L2: 1 -> 1; 150 -> 5; 250 -> 9                              COMMENT
Original Marker Name: x137 X_1372_1988_NGS                  COMMENT
Campaign Name: USGS Death Valley 2003                       COMMENT
4-Character Station Name: X137                              COMMENT
6-Character Antenna Code: DMRCHT                            COMMENT
Vertical Measurement Point: BCR                             COMMENT
Vertical Offset to Rinex Ref. Point: 0.0348                 COMMENT
Radial Measurement Point: ECF                               COMMENT
Radial Offset to Rinex Ref. Point: 0.1897                   COMMENT
Antenna Height from Field Measurement: 1.3590 m             COMMENT
Additional Antenna Identification Info.:                    COMMENT
Turborogue and Ashtech Choke Ring                           COMMENT
Original XYZ: -2356209.1676 -4569144.7883 3765037.7304      COMMENT
New XYZ position is based on association with SCEC monument COMMENT
E1F4S6V6+0011. Position of that monument is believed to be  COMMENT
valid to within 1 m horizontally; vertical accuracy         COMMENT
should be no worse than 3-times this value.                 COMMENT
                                                            COMMENT
Revised Rinex header created by UCSD GPS archive for        COMMENT
GSAC on 20-Apr-2005 (2005:110) 16:32:39 GMT                 COMMENT
For assistance contact dagnew@ucsd.edu                      COMMENT
or anderson@python.ucsd.edu                                 COMMENT
                                                            COMMENT
X1372 1983                                                  MARKER NAME
GDH US GEOLOGICAL SURVEY                                    OBSERVER / AGENCY
04582 ASHTECH Z-XII3 CD00                                   REC # / TYPE / VERS
CR620022605 DORNE-MARGOL. TYPE T                            ANT # / TYPE
 -2356226.0000 -4569116.0000  3765028.0000                  APPROX POSITION XYZ
        1.3109        0.0000        0.0000                  ANTENNA: DELTA H/E/N
     1     1     0                                          WAVELENGTH FACT L1/2
     5    C1    L1    L2    P1    P2                        # / TYPES OF OBSERV
    30                                                      INTERVAL
  2003     6     6    15    43    0.000000                  TIME OF FIRST OBS
  2003     6     6    22    10   30.000000                  TIME OF LAST OBS
                                                            END OF HEADER
 03  6  6 15 43  0.0000000  0  7G29G24G30G21G 6G17G10
                   -231186.46249   -168854.31145                  24090176.286
  24532370.432      192748.65149    132888.05545  24532369.964    24532377.719
  21324236.900      188116.27649    137317.91147  21324237.358
  21324243.685     -214227.36449   -154831.45044
                   -163791.49549   -117120.38243
  21522838.831     -145129.30249   -104526.01047  21522837.929    21522845.370
  21192872.107      142525.27149    100746.38947  21192870.891    21192878.064
 03  6  6 15 43 30.0000000  0  7G29G24G30G21G 6G17G10
  24019871.440     -600610.64149   -456717.14645  24019870.080    24019878.782
  24490656.303      -26455.96149    -37920.75845  24490656.442    24490664.708
  21280028.831      -44202.15649    -43709.47647  21280028.663
  21280034.937     -577339.95949   -249442.24845
  22332095.965     -509299.57749   -261341.23647                  20841672.617
  21458023.274     -485736.29049   -369934.04247  21458022.640    21458030.022
  21145020.244     -108937.94849    -95198.99347  21145019.048    21145026.215
 03  6  6 15 44  0.0000000  0  7G29G24G30G21G 6G17G10
  24006709.401     -669773.31849   -510609.97145  24006708.591    24006717.170
  24506038.060       54374.43649     25063.89445  24506037.542    24506046.349
  21293007.545       24001.01749      9435.81847  21293007.368    21293013.619
  22320134.208     -640171.14449   -298401.57546  22320133.843    22320139.757
  20833070.508     -554473.86249   -296541.96847  20833069.976    20833076.252
  21450355.976     -526028.63949   -401330.65747  21450355.248    21450362.644
  21154373.569      -59786.26549    -56898.98447  21154372.363    21154379.537
 03  6  6 15 44 30.0000000  0  7G29G24G30G21G 6G17G10
  23993584.641     -738742.52449   -564352.07445  23993583.807    23993592.715
  24521412.803      135169.10149     88020.70545  24521412.120    24521420.942
  21306071.573       92653.23949     62931.01347  21306071.464    21306077.755
  22308217.875     -702791.94349   -347196.97146  22308217.422    22308223.333
  20824524.427     -599383.48249   -331536.46747  20824523.942    20824530.279
  21442734.952     -566077.43849   -432537.50247  21442734.264    21442741.601
  21163830.000      -10092.24349    -18176.37947  21163828.856    21163836.015
 03  6  6 15 45  0.0000000  0  7G29G24G30G21G 6G17G10
  23980496.837     -807518.52649   -617943.58945  23980495.999    23980504.912
  24536780.181      215924.73249    150947.13845  24536779.471    24536788.224
  21319220.092      161748.83049    116771.69947  21319219.971    21319226.250
  22296341.113     -765205.65349   -395830.99247  22296340.545    22296346.412
  20816028.431     -644030.07549   -366326.01048  20816028.004    20816034.338
  21435159.713     -605885.94649   -463557.10047  21435158.988    21435166.302
  21173388.710       40138.89349     20964.75547  21173387.569    21173394.697
 03  6  6 15 45 30.0000000  0  7G29G24G30G21G 6G17G10
  23967446.576     -876097.55549   -671381.67445  23967445.842    23967454.782
  24552139.983      296641.32749    213843.14545  24552139.268    24552148.232
  21332452.594      231285.99049    170956.46347  21332452.490    21332458.755
  22284503.770     -827411.58049   -444303.08847  22284503.119    22284509.027
  20807582.941     -688411.44849   -400908.88248  20807582.520    20807588.856
  21427630.114     -645454.38349   -494389.63147  21427629.361    21427636.700
  21183049.300       90905.47849     60523.12347  21183048.171    21183055.311
 03  6  6 15 46  0.0000000  0  7G29G24G30G21G 6G17G10
  23954434.609     -944475.09649   -724662.72945  23954433.980    23954442.884
  24567492.479      377319.66149    276709.30845  24567491.750    24567500.934
  21345768.984      301263.89049    225484.65247  21345768.892    21345775.156
  22272706.088     -889408.15749   -492612.07847  22272705.547    22272711.400
  20799188.572     -732524.29649   -435282.53048  20799188.162    20799194.495
  21420146.531     -684781.02749   -525033.75247  21420145.771    21420153.119
  21192811.676      142207.16549    100498.45047  21192810.572    21192817.702
 03  6  6 15 46 30.0000000  0  7G29G24G30G21G 6G17G10
  23941461.512    -1012649.07049   -777785.18345  23941460.912    23941469.757
  24582837.526      457958.55149    339544.81345  24582836.916    24582845.910
  21359168.607      371679.27049    280353.74747  21359168.545    21359174.808
  22260948.322     -951196.21749   -540758.59046  22260947.647    22260953.529
  20790845.446     -776367.83749   -469446.32448  20790845.027    20790851.355
  21412708.703     -723867.18849   -555490.48647  21412707.951    21412715.292
  21202675.318      194040.80349    140888.28047  21202674.224    21202681.346
 03  6  6 15 47  0.0000000  0  7G29G24G30G21G 6G17G10
  23928527.633    -1080615.85049   -830746.18245  23928527.066    23928535.973
  24598175.057      538558.15949    402349.63645  24598174.508    24598183.570
  21372651.165      442530.23049    335562.23647  21372651.111    21372657.354
  22249230.230    -1012775.08049   -588742.08947  22249229.629    22249235.479
  20782554.059     -819939.55149   -503398.29748  20782553.638    20782559.970
  21405316.704     -762712.53849   -585759.57147  21405315.918    21405323.248
  21212639.906      246404.98149    181691.52447  21212638.826    21212645.922
 03  6  6 15 47 30.0000000  0  7G29G24G30G21G 6G17G10
  23915633.863    -1148372.82449   -883543.72945  23915633.302    23915642.126
  24613505.000      619117.03949    465122.74145  24613504.645    24613513.429
  21386215.979      513813.65149    391107.71947  21386215.931    21386222.143
  22237552.040    -1074145.04149   -636562.79947  22237551.334    22237557.134
  20774314.552     -863238.49749   -537137.72848  20774314.142    20774320.456
  21397970.325     -801318.24649   -615841.92247  21397969.514    21397976.840
  21222704.862      299296.53049    222905.70247  21222703.808    21222710.902
 03  6  6 15 48  0.0000000  0  8G29G24G30G21G 6G17G10G26
  23902780.202    -1215918.91249   -936176.94945  23902779.651    23902788.397
  24628826.874      699633.50349    527862.79345  24628826.468    24628835.185
  21399862.395      585525.69549    446987.19447  21399862.374    21399868.581
  22225913.201    -1135307.74749   -684222.00847  22225912.471    22225918.206
  20766127.009     -906264.48149   -570664.45948  20766126.590    20766132.897
  21390669.139     -839686.18049   -645738.99947  21390668.378    21390675.682
  21232869.484      352711.82549    264527.99647  21232868.421    21232875.534
  24272903.487    -1271865.90849   -974930.81045  24272903.310    24272915.525
 03  6  6 15 48 30.0000000  0  8G29G24G30G21G 6G17G10G26
  23889967.660    -1283248.49049   -988641.44545  23889967.220    23889975.946
  24644141.030      780109.49549    590571.29545  24644140.546    24644149.303
  21413590.256      657666.02849    503200.39347  21413590.240    21413596.486
  22214314.299    -1196260.75449   -731717.84547  22214313.491    22214319.240
  20757992.165     -949013.37149   -603975.28048  20757991.761    20757998.048
  21383413.629     -877814.09149   -675449.04047  21383412.881    21383420.168
  21243133.890      406651.35749    306558.78747  21243132.815    21243139.910
  24254946.101    -1366232.14549  -1048462.67945  24254945.940    24254958.085
 03  6  6 15 49  0.0000000  0  8G29G24G30G21G 6G17G10G26
  23877196.910    -1350358.78649  -1040935.06945  23877196.511    23877205.242
  24659447.392      860544.46649    653247.85745  24659446.980    24659455.577
  21427399.208      730232.18949    559745.41447  21427399.200    21427405.439
  22202755.171    -1257004.25449   -779050.40047  22202754.383    22202760.093
  20749910.388     -991483.60149   -637068.95848  20749909.976    20749916.221
  21376203.795     -915702.08649   -704972.14247  21376203.033    21376210.311
  21253497.534      461112.45649    348996.00147  21253496.480    21253503.524
  24236990.471    -1460589.19049  -1121987.36645  24236990.171    24237002.432
 03  6  6 15 49 30.0000000  0  8G29G24G30G21G 6G17G10G26
  23864468.459    -1417246.82149  -1093055.55545  23864468.152    23864476.739
  24674745.890      940937.81949    715891.94145  24674745.309    24674753.972
  21441288.687      803221.65449    616620.27847  21441288.695    21441294.943
  22191235.939    -1317538.17249   -826219.65447  22191235.167    22191240.860
  20741881.928    -1033673.50049   -669944.19948  20741881.524    20741887.779
  21369039.503     -953350.78949   -734308.77847  21369038.762    21369045.992
  21263960.084      516093.09949    391838.04247  21263959.017    21263966.046
  24219037.258    -1554933.76649  -1195502.38845  24219036.979    24219049.256
 03  6  6 15 50  0.0000000  0  8G29G24G30G21G 6G17G10G26
  23851783.050    -1483909.96349  -1145000.77545  23851782.604    23851791.141
  24690036.194     1021289.02149    778503.19245  24690035.724    24690044.295
  21455258.189      876631.44549    673822.66847  21455258.154    21455264.418
  22179756.557    -1377862.81749   -873225.85047  22179755.775    22179761.461
  20733907.095    -1075581.67649   -702599.91748  20733906.685    20733912.943
  21361920.657     -990760.83749   -763459.44347  21361919.901    21361927.153
  21274520.951      571590.54449    435082.78547  21274519.876    21274526.883
  24201086.893    -1649262.89449  -1269005.34245  24201086.558    24201098.793
 03  6  6 15 50 30.0000000  0  8G29G24G30G21G 6G17G10G26
  23839140.786    -1550345.40349  -1196768.56745  23839140.436    23839148.853
  24705318.373     1101596.98249    841080.74645  24705317.993    24705326.234
  21469307.118      950458.83349    731350.45547  21469307.108    21469313.381
  22168316.877    -1437978.54249   -920069.23447  22168316.114    22168321.810
  20725986.164    -1117206.70549   -735034.99948  20725985.759    20725992.029
  21354847.050    -1027932.87149   -792424.64547  21354846.317    21354853.541
  21285179.673      627602.05849    478728.11047  21285178.587    21285185.559
  24183139.927    -1743573.51049  -1342493.86145  24183139.521    24183151.823
 03  6  6 15 51  0.0000000  0  8G29G24G30G21G 6G17G10G26
  23826542.754    -1616548.93049  -1248355.66745  23826542.308    23826550.501
  24720592.551     1181862.66249    903625.41645  24720592.111    24720600.282
  21483435.349     1024702.52649    789202.64147  21483435.307    21483441.597
  22156917.222    -1497883.96649   -966748.75047  22156916.526    22156922.221
  20718119.674    -1158545.50949   -767247.05048  20718119.254    20718125.532
  21347819.020    -1064865.80649   -821203.53547  21347818.213    21347825.483
  21295936.078      684126.82249    522773.36947  21295934.971    21295941.900
  24165197.469    -1837861.12749  -1415964.46845  24165197.122    24165209.310
 03  6  6 15 51 30.0000000  0  8G29G24G30G21G 6G17G10G26
  23813988.823    -1682518.43649  -1299760.39645  23813988.489    23813996.681
  24735858.393     1262085.12849    966136.35245  24735857.903    24735865.950
  21497642.081     1099359.21549    847376.63647  21497642.052    21497648.335
  22145557.382    -1557580.02649  -1013265.13447  22145556.750    22145562.398
  20710307.832    -1199597.21149   -799235.38848  20710307.412    20710313.670
  21340836.252    -1101560.67149   -849796.91747  21340835.457    21340842.696
  21306789.485      741161.76849    567216.17047  21306788.407    21306795.313
  24147259.730    -1932123.10449  -1489415.07545  24147259.580    24147271.421
 03  6  6 15 52  0.0000000  0  8G29G24G30G21G 6G17G10G26
  23801480.231    -1748251.84649  -1350981.16645  23801479.958    23801487.957
  24751115.970     1342262.92449   1028612.46345  24751115.211    24751123.337
  21511926.761     1174425.32249    905869.67347  21511926.723    21511933.015
  22134237.403    -1617067.43849  -1059618.91447  22134236.677    22134242.325
  20702550.771    -1240360.86549   -830999.26348  20702550.353    20702556.614
  21333898.511    -1138018.72649   -878205.76647  21333897.720    21333904.956
  21317739.431      798703.60249    612053.95647  21317738.307    21317745.177
  24129327.358    -2026357.06149  -1562843.84945  24129327.255    24129338.949
 03  6  6 15 52 30.0000000  0  8G29G24G30G21G 6G17G10G26
  23789017.095    -1813745.89849  -1402015.42545  23789016.767    23789024.976
  24766364.826     1422395.76349   1091053.59145  24766364.043    24766372.176
  21526288.946     1249898.56349    964679.94447  21526288.840    21526295.146
  22122957.148    -1676345.90049  -1105809.92347  22122956.396    22122961.975
  20694848.877    -1280834.59949   -862537.23748  20694848.455    20694854.720
  21327005.823    -1174240.09249   -906430.19347  21327005.062    21327012.262
  21328785.343      856750.06749    657284.95547  21328784.250    21328791.086
  24111401.151    -2120559.19849  -1636247.81845  24111401.125    24111412.567
 03  6  6 15 53  0.0000000  0  8G29G24G30G21G 6G17G10G26
  23776598.533    -1879005.31149  -1452866.84945  23776598.134    23776606.450
  24781603.682     1502475.72849   1153453.52645  24781603.003    24781610.774
  21540726.594     1325768.70849   1023799.49847  21540726.505    21540732.812
  22111715.193    -1735423.05049  -1151844.03147  22111714.398    22111719.950
  20687201.047    -1321024.41349   -893853.97148  20687200.619    20687206.850
  21320156.638    -1210232.90849   -934476.52047  21320155.853    21320163.061
  21339925.384      915291.11149    702901.34147  21339924.278    21339931.077
  24093479.900    -2214734.08549  -1709630.52345  24093479.812    24093491.290
 03  6  6 15 53 30.0000000  0  8G29G24G30G21G 6G17G10G26
  23764228.566    -1944009.60549  -1503519.47445  23764228.247    23764236.478
  24796835.554     1582519.86649   1215825.48545  24796835.098    24796842.816
  21555242.645     1402050.59149   1083239.89247  21555242.556    21555248.838
  22100514.708    -1794281.50649  -1197707.72747  22100513.983    22100519.524
  20679610.925    -1360911.07149   -924934.47348  20679610.493    20679616.687
  21313354.197    -1245979.93149   -962331.31647  21313353.422    21313360.606
  21351162.452      974342.02449    748915.03547  21351161.329    21351168.143
  24075568.179    -2308860.75449  -1782975.67945  24075567.982    24075579.290
 03  6  6 15 54  0.0000000  0  8G29G24G30G21G 6G17G10G26
  23751906.052    -2008765.33949  -1553978.40845  23751905.669    23751913.903
  24812058.860     1662518.47649   1278162.05845  24812058.359    24812065.893
  21569834.689     1478732.25249   1142991.79247  21569834.614    21569840.893
  22089354.250    -1852930.63649  -1243408.32747  22089353.429    22089358.908
  20672077.002    -1400502.19549   -955784.69348  20672076.559    20672082.735
  21306596.628    -1281491.00749   -990002.26747  21306595.891    21306603.032
  21362494.258     1033891.11349    795316.90847  21362493.164    21362499.963
  24057664.373    -2402945.28049  -1856287.96245  24057664.136    24057675.254
 03  6  6 15 54 30.0000000  0  8G29G24G30G21G 6G17G10G26
  23739631.017    -2073270.68449  -1604242.25645  23739630.646    23739638.722
  24827272.918     1742469.95749   1340461.85545  24827272.607    24827280.347
  21584502.115     1555809.76549   1203052.14447  21584502.020    21584508.318
  22078233.359    -1911371.58149  -1288946.69447  22078232.458    22078237.951
  20664599.395    -1439797.27149   -986404.23448  20664598.956    20664605.154
  21299883.770    -1316767.26549  -1017490.24747  21299883.028    21299890.190
  21373920.183     1093934.68049    842104.08847  21373919.074    21373925.877
  24039768.936    -2496985.45349  -1929565.70445  24039768.685    24039779.897
 03  6  6 15 55  0.0000000  0  8G29G24G30G21G 6G17G10G26
  23727404.355    -2137522.43549  -1654308.48645  23727403.881    23727411.912
  24842478.177     1822374.22249   1402724.84745  24842477.751    24842485.692
  21599244.365     1633280.86249   1263419.19647  21599244.274    21599250.618
  22067151.897    -1969604.25849  -1334322.78147  22067151.129    22067156.621
  20657178.490    -1478794.28349  -1016791.51748  20657178.053    20657184.281
  21293215.528    -1351809.03249  -1044795.50547  21293214.774    21293221.924
  21385439.764     1154470.51949    889274.85647  21385438.649    21385445.468
  24021882.486    -2590977.64049  -2002806.05745  24021882.317    24021893.606
 03  6  6 15 55 30.0000000  0  9G29G24G30G21G 6G18G17G10G26
  23715225.818    -2201519.71549  -1704176.43045  23715225.461    23715233.612
  24857673.892     1902228.59349   1464948.97945  24857673.431    24857681.635
  21614060.659     1711140.75649   1324089.19547  21614060.577    21614066.944
  22056109.837    -2027630.73549  -1379538.18847  22056109.023    22056114.521
  20649814.257    -1517493.60749  -1046946.82748  20649813.811    20649820.050
  24765334.165    -4699892.47349  -3640901.06045  24765333.407    24765343.718
  21286591.527    -1386618.67149  -1071919.88347  21286590.710    21286597.881
  21397052.139     1215493.91449    936825.54547  21397051.030    21397057.873
  24004005.541    -2684920.49849  -2076007.94745  24004005.413    24004016.708
 03  6  6 15 56  0.0000000  0  9G29G24G30G21G 6G18G17G10G26
  23703097.164    -2265256.01049  -1753841.00145  23703096.777    23703104.991
  24872860.984     1982036.49149   1527136.96545  24872860.537    24872868.685
  21628951.118     1789390.41849   1385062.91247  21628951.059    21628957.408
  22045107.764    -2085447.10249  -1424589.87447  22045106.940    22045112.429
  20642507.731    -1555889.89049  -1076866.01048  20642507.270    20642513.495
  24744199.197    -4810956.55949  -3727444.25645  24744198.579    24744208.696
  21280012.270    -1421192.92449  -1098860.84847  21280011.465    21280018.589
  21408757.608     1277006.45949    984757.38247  21408756.496    21408763.320
  23986139.292    -2778806.97949  -2149165.92245  23986139.182    23986150.419
 03  6  6 15 56 30.0000000  0  8G29G30G21G 6G18G17G10G26
  23691019.012    -2328727.42149  -1803299.17945  23691018.679    23691026.784
  21643915.446     1868028.19049   1446339.04547  21643915.359    21643921.728
  22034145.857    -2143052.58949  -1469477.25047  22034144.979    22034150.445
  20635259.341    -1593980.46549  -1106546.98048  20635258.878    20635265.109
  24723074.982    -4921963.75449  -3813943.11845  24723074.482    24723084.484
  21273477.891    -1455531.18549  -1125617.92347  21273477.118    21273484.224
  21420555.929     1339006.77349   1033069.30047  21420554.798    21420561.619
  23968284.615    -2872632.87249  -2222276.65645  23968284.543    23968295.770
 03  6  6 15 57  0.0000000  0  8G29G30G21G 6G18G17G10G26
  23678991.883    -2391930.67049  -1852548.39245  23678991.425    23678999.637
  21658953.124     1947051.76749   1507915.80547  21658953.059    21658959.465
  22023224.034    -2200446.76749  -1514199.96547  22023223.230    22023228.702
  20628069.578    -1631763.13749  -1135988.02148  20628069.115    20628075.305
  24701962.239    -5032911.30649  -3900395.50845  24701961.539    24701971.522
  21266988.482    -1489633.57649  -1152191.20147  21266987.651    21266994.765
  21432446.605     1401492.71449   1081759.63047  21432445.507    21432452.333
  23950442.010    -2966394.09949  -2295337.02445  23950441.965    23950453.278
 03  6  6 15 57 30.0000000  0  8G29G30G21G 6G18G17G10G26
  23667015.659    -2454865.96249  -1901588.79945  23667015.226    23667023.337
  21674063.244     2026455.37849   1569788.70147  21674063.158    21674069.557
  22012341.922    -2257632.78949  -1558760.46847  22012341.073    22012346.553
  20620938.056    -1669239.46449  -1165190.35448  20620937.582    20620943.769
  24680860.623    -5143800.42649  -3986802.42845  24680859.807    24680869.737
  21260543.225    -1523503.59149  -1178583.41047  21260542.413    21260549.522
  21444428.619     1464458.31749   1130823.71747  21444427.482    21444434.307
  23932612.097    -3060090.52749  -2368346.90245  23932611.978    23932622.981
 03  6  6 15 58  0.0000000  0  8G29G30G21G 6G18G17G10G26
  23655091.155    -2517530.10349  -1950417.92845  23655090.612    23655098.716
  21689245.087     2106236.35649   1631955.64447  21689245.008    21689251.414
  22001499.447    -2314610.71549  -1603158.83447  22001498.540    22001503.994
  20613865.229    -1706407.54149  -1194152.49148  20613864.758    20613870.953
  24659770.639    -5254628.58749  -4073161.80045  24659769.856    24659779.650
  21254142.308    -1557140.83549  -1204794.23847  21254141.494    21254148.551
  21456501.433     1527901.37149   1180259.84847  21456500.334    21456507.161
  23914794.898    -3153718.56649  -2441303.49345  23914794.802    23914805.882
 03  6  6 15 58 30.0000000  0  8G29G30G21G 6G18G17G10G26
  23643218.730    -2579919.52449  -1999032.98245  23643218.270    23643226.331
  21704498.470     2186392.96649   1694415.29047  21704498.368    21704504.756
  21990696.646    -2371379.33249  -1647394.10647  21990695.848    21990701.318
  20606851.547    -1743264.91049  -1222872.52148  20606851.064    20606857.237
  24638692.755    -5365392.75649  -4159471.31445  24638692.079    24638701.828
  21247785.765    -1590544.81549  -1230823.30647  21247784.935    21247791.976
  21468664.859     1591820.42749   1230066.88347  21468663.763    21468670.571
  23896991.737    -3247273.91949  -2514203.47545  23896991.518    23897002.505
 03  6  6 15 59  0.0000000  0  8G29G30G21G 6G18G17G10G26
  23631399.197    -2642031.52349  -2047431.87745  23631398.713    23631406.765
  21719822.733     2266922.24549   1757165.33547  21719822.649    21719829.000
  21979933.551    -2427939.09749  -1691466.62547  21979932.859    21979938.362
  20599897.310    -1779810.01749  -1251349.22448  20599896.828    20599902.952
  24617627.301    -5476091.10549  -4245729.51845  24617626.693    24617636.369
  21241473.375    -1623716.65849  -1256671.48547  21241472.545    21241479.604
  21480918.336     1656212.69549   1280242.65847  21480917.220    21480924.043
  23879203.060    -3340753.37649  -2587044.29245  23879202.912    23879213.641
 03  6  6 15 59 30.0000000  0  8G29G30G21G 6G18G17G10G26
  23619632.986    -2703863.26449  -2095612.37245  23619632.479    23619640.525
  21735217.346     2347821.17049   1820203.40147  21735217.262    21735223.643
  21969210.348    -2484290.21149  -1735376.56347  21969209.603    21969215.096
  20593002.715    -1816041.34149  -1279581.42848  20593002.241    20593008.370
  24596575.097    -5586721.51249  -4331934.81045  24596574.246    24596583.892
  21235205.078    -1656656.77349  -1282339.09447  21235204.244    21235211.314
  21493261.325     1721075.60349   1330785.16047  21493260.236    21493267.086
  23861429.375    -3434153.67849  -2659823.44445  23861429.157    23861439.762
 03  6  6 16  0  0.0000000  0  8G29G30G21G 6G18G17G10G26
  23607920.290    -2765412.73649  -2143572.92345  23607919.937    23607928.019
  21750681.684     2429086.56849   1883527.04247  21750681.616    21750688.013
  21958526.708    -2540433.34149  -1779124.43947  21958525.909    21958531.378
  20586168.068    -1851957.69649  -1307568.19948  20586167.593    20586173.738
  24575535.870    -5697282.28049  -4418085.83645  24575535.061    24575544.511
  21228980.653    -1689366.19649  -1307826.94747  21228979.823    21228986.906
  21505693.315     1786405.91449   1381691.87447  21505692.199    21505699.077
  23843671.370    -3527472.02749  -2732538.73745  23843671.010    23843681.446
 03  6  6 16  0 30.0000000  0  8G29G30G21G 6G18G17G10G26
  23596262.374    -2826675.81549  -2191310.30645  23596261.948    23596270.024
  21766215.403     2510716.56749   1947134.78247  21766215.323    21766221.733
  21947882.793    -2596367.67649  -1822709.61747  21947881.967    21947887.447
  20579393.877    -1887556.41049  -1335307.46048  20579393.392    20579399.524
  24554510.361    -5807770.26249  -4504180.18245  24554509.537    24554519.016
  21222800.339    -1721844.22949  -1333134.49547  21222799.482    21222806.548
  21518213.868     1852201.69449   1432961.29247  21518212.741    21518219.650
  23825929.808    -3620703.97549  -2805186.72045  23825929.582    23825939.557
 03  6  6 16  1  0.0000000  0  8G29G30G21G 6G18G17G10G26
  23584659.325    -2887650.01249  -2238822.61446  23584658.871    23584666.902
  21781817.920     2592708.08349   2011024.22147  21781817.831    21781824.252
  21937278.641    -2652093.14149  -1866132.04047  21937277.798    21937283.243
  20572680.378    -1922835.96949  -1362798.03348  20572679.920    20572686.041
  24533499.341    -5918183.41249  -4590216.19345  24533498.413    24533507.992
  21216663.901    -1754091.48049  -1358262.21647  21216663.060    21216670.109
  21530822.512     1918460.58049   1484591.57247  21530821.393    21530828.319
  23808205.245    -3713846.43949  -2877764.97345  23808204.973    23808214.927
 03  6  6 16  1 30.0000000  0  8G29G30G21G 6G18G17G10G26
  23573111.782    -2948332.57749  -2286107.64846  23573111.355    23573119.356
  21797488.709     2675058.32949   2075193.18947  21797488.613    21797495.061
  21926714.014    -2707610.10449  -1909391.98847  21926713.232    21926718.680
  20566027.961    -1957794.81549  -1390038.69348  20566027.505    20566033.641
  24512502.813    -6028519.78149  -4676192.41345  24512502.078    24512511.381
  21210571.259    -1786108.48949  -1383210.53047  21210570.428    21210577.470
  21543518.766     1985179.82649   1536580.57147  21543517.653    21543524.600
  23790498.243    -3806895.78349  -2950270.68945  23790498.022    23790507.965
 03  6  6 16  2  0.0000000  0  8G29G30G21G 6G18G17G10G26
  23561620.232    -3008720.56349  -2333163.15046  23561619.820    23561627.769
  21813227.242     2757764.81249   2139639.74947  21813227.157    21813233.641
  21916189.181    -2762918.42849  -1952489.37047  21916188.418    21916193.846
  20559436.898    -1992431.04049  -1417027.96648  20559436.438    20559442.582
  24491521.491    -6138776.84949  -4762106.79245  24491520.614    24491530.041
  21204522.438    -1817895.27549  -1407979.45047  21204521.585    21204528.628
  21556302.176     2052356.99449   1588926.39247  21556301.063    21556308.033
  23772809.556    -3899848.65849  -3022701.24745  23772809.327    23772819.355
 03  6  6 16  2 30.0000000  0  8G29G30G21G 6G18G17G10G26
  23550185.332    -3068811.02349  -2379986.81845  23550184.957    23550192.889
  21829033.020     2840824.69449   2204361.68347  21829032.965    21829039.456
  21905704.129    -2818017.87949  -1995423.98447  21905703.337    21905708.768
  20552907.621    -2026742.84949  -1443764.44448  20552907.158    20552913.302
  24470555.406    -6248952.60449  -4847957.85245  24470554.678    24470564.151
  21198517.442    -1849451.93449  -1432569.05147  21198516.582    21198523.640
  21569172.254     2119989.56649   1641627.06947  21569171.134    21569178.116
  23755139.927    -3992701.41949  -3095053.79145  23755139.690    23755149.773
 03  6  6 16  3  0.0000000  0  8G29G30G21G 6G18G17G10G26
  23538807.542    -3128601.19649  -2426576.48645  23538807.163    23538815.052
  21844905.573     2924235.15849   2269356.79047  21844905.487    21844912.010
  21895258.676    -2872908.97249  -2038196.25047  21895257.928    21895263.335
  20546440.355    -2060728.58149  -1470246.83248  20546439.906    20546446.033
  24449605.363    -6359044.80149  -4933743.77545  24449604.722    24449614.100
  21192556.092    -1880779.00549  -1456979.74847  21192555.239    21192562.318
  21582128.482     2188074.91349   1694680.56647  21582127.364    21582134.348
  23737490.087    -4085450.53849  -3167325.58945  23737489.948    23737499.971
 03  6  6 16  3 30.0000000  0  8G29G30G21G 6G18G17G10G26
  23527487.334    -3188088.29649  -2472929.98845  23527486.980    23527494.962
  21860844.283     3007993.39849   2334622.89547  21860844.163    21860850.721
  21884852.899    -2927591.54849  -2080806.03947  21884852.182    21884857.587
  20540035.460    -2094386.66049  -1496473.90948  20540035.010    20540041.123
  24428671.775    -6469051.13849  -5019462.82345  24428670.993    24428680.390
  21186638.275    -1911877.20949  -1481212.11347  21186637.426    21186644.518
  21595170.322     2256610.15449   1748084.62847  21595169.206    21595176.225
  23719860.725    -4178092.56549  -3239513.95645  23719860.542    23719870.664
 03  6  6 16  4  0.0000000  0  8G29G30G21G 6G18G17G10G26
  23516225.487    -3247269.62849  -2519045.23745  23516225.156    23516233.102
  21876848.589     3092096.16949   2400157.46747  21876848.473    21876855.022
  21874486.811    -2982065.93549  -2123253.59747  21874486.039    21874491.410
  20533693.159    -2127715.79649  -1522444.66748  20533692.720    20533698.796
  24407754.858    -6578969.89649  -5105113.61845  24407754.063    24407763.423
  21180763.873    -1942747.32349  -1505266.74447  21180763.053    21180770.152
  21608297.246     2325592.55149   1801837.12347  21608296.148    21608303.178
  23702252.239    -4270624.48749  -3311616.52845  23702252.123    23702262.078
 03  6  6 16  4 30.0000000  0  8G29G30G21G 6G18G17G10G26
  23505022.372    -3306142.52249  -2564920.14645  23505022.032    23505029.956
  21892917.980     3176540.86349   2465958.48047  21892917.828    21892924.375
  21864160.336    -3036332.02849  -2165538.85247  21864159.557    21864164.945
  20527413.783    -2160714.22849  -1548157.73548  20527413.337    20527419.429
  24386854.959    -6688798.71249  -5190694.31745  24386854.213    24386863.556
  21174932.990    -1973388.97549  -1529143.35147  21174932.179    21174939.266
  21621508.746     2395019.34249   1855935.89647  21621507.642    21621514.682
  23684665.518    -4363042.67549  -3383630.49845  23684665.447    23684675.193
 03  6  6 16  5  0.0000000  0  8G29G30G21G 6G18G17G10G26
  23493878.413    -3364704.42249  -2610552.72045  23493877.937    23493885.973
  21909051.728     3261324.39549   2532023.51647  21909051.669    21909058.176
  21853873.442    -3090390.21049  -2207662.09647  21853872.639    21853878.036
  20521197.636    -2193380.31649  -1573611.82548  20521197.201    20521203.289
  24365972.528    -6798535.54549  -5276203.35745  24365971.849    24365981.139
  21169145.323    -2003803.32449  -1552842.83847  21169144.506    21169151.603
  21634804.338     2464887.99349   1910378.97747  21634803.247    21634810.286
  23667101.231    -4455343.80049  -3455553.27445  23667101.097    23667110.747
 03  6  6 16  5 30.0000000  0  8G29G30G21G 6G18G17G10G26
  23482794.086    -3422952.03049  -2655940.38845  23482793.631    23482801.756
  21925249.592     3346444.46749   2598350.79247  21925249.555    21925256.034
  21843626.081    -3144240.11149  -2249623.03747  21843625.323    21843630.710
  20515045.175    -2225711.94449  -1598805.30748  20515044.730    20515050.811
  24345108.315    -6908177.64949  -5361638.59445  24345107.653    24345116.830
  21163400.976    -2033990.17449  -1576365.05647  21163400.173    21163407.256
  21648183.642     2535196.42649   1965164.74047  21648182.555    21648189.572
  23649559.934    -4547523.94549  -3527381.76845  23649559.701    23649569.269
 03  6  6 16  6  0.0000000  0  8G29G30G21G 6G18G17G10G26
  23471770.111    -3480883.03349  -2701081.35045  23471769.612    23471777.789
  21941510.892     3431897.73549   2664937.70247  21941510.838    21941517.322
  21833418.334    -3197882.42649  -2291422.23547  21833417.579    21833422.928
  20508956.536    -2257708.00949  -1623737.30548  20508956.105    20508962.186
  24324262.289    -7017723.59449  -5446998.89645  24324261.615    24324270.799
  21157699.846    -2063950.07349  -1599710.42747  21157699.000    21157706.072
  21661645.982     2605941.25949   2020290.56047  21661644.885    21661651.897
  23632042.141    -4639579.92849  -3599113.54345  23632041.908    23632051.306
 03  6  6 16  6 30.0000000  0  8G29G30G21G 6G18G17G10G26
  23460807.104    -3538493.88449  -2745972.84245  23460806.582    23460814.746
  21957835.129     3517681.98749   2731782.51447  21957835.067    21957841.573
  21823250.122    -3251316.49249  -2333059.15647  21823249.399    21823254.744
  20502932.210    -2289366.00449  -1648405.87148  20502931.786    20502937.882
  24303435.089    -7127170.12649  -5532281.74045  24303434.563    24303443.721
  21152041.892    -2093682.91349  -1622878.86847  21152041.037    21152048.116
  21675191.074     2677120.80349   2075755.11347  21675189.948    21675196.961
  23614548.790    -4731507.63149  -3670745.36845  23614548.628    23614557.814
 03  6  6 16  7  0.0000000  0  8G29G30G21G 6G18G17G10G26
  23449905.623    -3595782.41649  -2790613.18745  23449905.038    23449913.142
  21974221.764     3603793.92849   2798882.67147  21974221.703    21974228.189
  21813121.566    -3304542.49549  -2374533.94347  21813120.821    21813126.169
  20496972.454    -2320684.76149  -1672810.09948  20496972.021    20496978.141
  24282627.175    -7236515.73349  -5617485.96545  24282626.647    24282635.619
  21146427.043    -2123189.04649  -1645870.65147  21146426.224    21146433.297
  21688818.187     2748731.60149   2131555.70347  21688817.064    21688824.080
  23597080.406    -4823304.17649  -3742275.01345  23597080.142    23597089.358
 03  6  6 16  7 30.0000000  0  8G29G30G21G 6G18G17G10G26
  23439065.733    -3652745.80449  -2835000.18545  23439065.184    23439073.254
  21990670.211     3690230.62049   2866235.88247  21990670.116    21990676.633
  21803032.542    -3357560.74549  -2415846.84447  21803031.765    21803037.139
  20491077.561    -2351662.71449  -1696948.76448  20491077.132    20491083.243
  24261838.968    -7345758.35949  -5702609.94745  24261838.449    24261847.235
  21140855.100    -2152469.80549  -1668686.82147  21140854.271    21140861.351
  21702526.894     2820771.14549   2187690.38747  21702525.794    21702532.814
  23579637.588    -4914965.83849  -3813699.53645  23579637.417    23579646.493
 03  6  6 16  8  0.0000000  0  8G29G30G21G 6G18G17G10G26
  23428288.322    -3709381.56249  -2879131.88145  23428287.753    23428295.737
  22007179.815     3776989.06649   2933839.80747  22007179.756    22007186.306
  21792983.066    -3410371.38149  -2456997.97447  21792982.262    21792987.625
  20485247.810    -2382298.39649  -1720820.72348  20485247.388    20485253.506
  24241070.791    -7454895.87449  -5787652.01545  24241070.196    24241078.887
  21135326.086    -2181525.32349  -1691327.47847  21135325.219    21135332.297
  21716316.644     2893236.59549   2244156.94547  21716315.557    21716322.570
  23562221.046    -5006489.48549  -3885016.54645  23562220.825    23562230.015
 03  6  6 16  8 30.0000000  0  8G29G30G21G 6G18G17G10G26
  23417573.823    -3765686.50549  -2923005.81045  23417573.232    23417581.148
  22023750.246     3864066.87349   3001692.57947  22023750.185    22023756.735
  21782973.057    -3462974.20349  -2497987.16847  21782972.262    21782977.621
  20479483.605    -2412589.64549  -1744424.29248  20479483.179    20479489.273
  24220323.075    -7563925.59449  -5872610.09045  24220322.510    24220331.182
  21129839.848    -2210355.54249  -1713792.58247  21129838.997    21129846.059
  21730187.028     2966125.59249   2300953.54047  21730185.955    21730192.969
  23544831.485    -5097870.96749  -3956222.79045  23544831.283    23544840.478
 03  6  6 16  9  0.0000000  0  8G29G30G21G 6G18G17G10G26
  23406922.521    -3821659.40149  -2966620.97145  23406922.025    23406929.891
  22040380.651     3951459.82149   3069790.92747  22040380.632    22040387.169
  21773002.336    -3515370.73749  -2538815.59947  21773001.585    21773006.913
  20473785.021    -2442536.15549  -1767759.22348  20473784.584    20473790.680
  24199595.876    -7672846.91049  -5957483.69145  24199595.340    24199604.044
  21124396.175    -2238962.53649  -1736083.73647  21124395.345    21124402.374
  21744137.247     3039434.27649   2358077.16947  21744136.198    21744143.183
  23527469.660    -5189108.31849  -4027316.71245  23527469.372    23527478.570
 03  6  6 16  9 30.0000000  0  8G29G30G21G 6G18G17G10G26
  23396335.375    -3877294.85149  -3009973.20945  23396334.974    23396342.637
  22057070.895     4039167.31849   3138134.36847  22057070.868    22057077.418
  21763071.377    -3567558.34449  -2579481.26247  21763070.649    21763075.946
  20468152.772    -2472133.94549  -1790822.43548  20468152.333    20468158.392
  24178890.333    -7781655.02849  -6042269.09445  24178889.743    24178898.496
  21118995.382    -2267343.99149  -1758199.15247  21118994.574    21119001.592
  21758167.231     3113162.14649   2415527.42847  21758166.185    21758173.236
  23510136.307    -5280195.32849  -4098293.52045  23510136.041    23510145.179
 03  6  6 16 10  0.0000000  0  8G29G30G21G 6G18G17G10G26
  23385812.963    -3932590.91349  -3053060.99145  23385812.518    23385820.086
  22073820.300     4127185.88049   3206720.20047  22073820.282    22073826.862
  21753179.990    -3619537.72249  -2619984.65247  21753179.327    21753184.613
  20462587.139    -2501381.73349  -1813612.91748  20462586.706    20462592.734
  24158206.517    -7890348.24349  -6126964.98145  24158205.953    24158214.806
  21113637.316    -2295500.92349  -1780139.61147  21113636.484    21113643.504
  21772276.392     3187306.00449   2473301.83147  21772275.318    21772282.414
  23492832.090    -5371129.12849  -4169150.94045  23492831.862    23492841.130
 03  6  6 16 10 30.0000000  0  8G29G30G21G 6G18G17G10G26
  23375355.366    -3987545.71149  -3095882.84245  23375354.979    23375362.475
  22090628.276     4215511.99749   3275545.68347  22090628.256    22090634.808
  21743328.164    -3671309.81349  -2660326.52047  21743327.428    21743332.684
  20457088.249    -2530278.81149  -1836130.12148  20457087.813    20457093.811
  24137545.031    -7998925.39849  -6211570.43245  24137544.356    24137552.972
  21108321.756    -2323434.24649  -1801905.83447  21108320.953    21108327.971
  21786464.061     3261862.38549   2531397.68047  21786462.986    21786470.096
  23475557.466    -5461907.02949  -4239886.88845  23475557.270    23475566.603
 03  6  6 16 11  0.0000000  0  8G29G30G21G 6G18G17G10G26
  23364962.986    -4042157.31349  -3138437.24845  23364962.703    23364970.189
  22107494.012     4304141.88849   3344607.86647  22107494.030    22107500.587
  21733515.504    -3722875.61949  -2700507.65347  21733514.771    21733520.031
  20451656.250    -2558824.33649  -1858373.38648  20451655.813    20451661.818
  24116905.766    -8107385.10449  -6296084.38145  24116905.105    24116913.575
  21103048.694    -2351144.55849  -1823498.28347  21103047.904    21103054.897
  21800729.490     3336827.72049   2589812.20047  21800728.469    21800735.543
  23458313.139    -5552526.28449  -4310499.22345  23458312.928    23458322.290
 03  6  6 16 11 30.0000000  0  8G29G30G21G 6G18G17G10G26
  23354636.750    -4096421.94449  -3180721.32145  23354636.432    23354643.844
  22124417.287     4393073.66349   3413905.29347  22124417.275    22124423.811
  21723742.429    -3774233.76049  -2740526.96947  21723741.647    21723746.894
  20446291.639    -2587015.68749  -1880340.67448  20446291.197    20446297.199
  24096289.433    -8215723.99649  -6380504.18945  24096288.846    24096297.275
  21097818.032    -2378631.97949  -1844917.04947  21097817.225    21097824.214
  21815072.500     3412200.33849   2648544.08447  21815071.470    21815078.506
  23441099.960    -5642982.28449  -4380984.34845  23441099.685    23441108.980
 03  6  6 16 12  0.0000000  0  8G29G30G21G 6G18G17G10G26
  23344376.973    -4150337.40949  -3222733.31546  23344376.575    23344384.026
  22141397.376     4482304.20149   3483435.51647  22141397.360    22141403.884
  21714008.657    -3825385.10849  -2780385.14047  21714007.865    21714013.148
  20440994.663    -2614851.42549  -1902030.85748  20440994.234    20441000.245
  24075696.498    -8323940.54649  -6464828.67545  24075695.883    24075704.152
  21092629.570    -2405897.32849  -1866162.77247  21092628.807    21092635.779
  21829492.354     3487977.06549   2707590.85247  21829491.318    21829498.368
  23423918.520    -5733271.70149  -4451339.65545  23423918.129    23423927.348
 03  6  6 16 12 30.0000000  0  8G29G30G21G 6G18G17G10G26
  23334184.162    -4203901.00449  -3264471.11546  23334183.741    23334191.223
  22158433.664     4571830.30449   3553196.05847  22158433.676    22158440.220
  21704314.278    -3876329.68349  -2820082.20647  21704313.456    21704318.705
  20435765.685    -2642330.05549  -1923442.77548  20435765.244    20435771.275
  24055127.108    -8432032.54749  -6549056.09345  24055126.434    24055134.844
  21087483.357    -2432941.07149  -1887235.81647  21087482.570    21087489.515
  21843988.619     3564155.24449   2766950.44147  21843987.552    21843994.621
  23406769.384    -5823391.32349  -4521562.66745  23406768.921    23406778.180
 03  6  6 16 13  0.0000000  0  8G29G30G21G 6G18G17G10G26
  23324058.874    -4257109.48849  -3305932.19246  23324058.410    23324065.840
  22175525.865     4661649.93249   3623185.31447  22175525.853    22175532.393
  21694659.268    -3927066.78249  -2859617.59147  21694658.500    21694663.739
  20430605.070    -2669449.15049  -1944574.53748  20430604.647    20430610.674
  24034581.959    -8539996.85049  -6633184.01445  24034581.514    24034589.706
  21082379.435    -2459762.61749  -1908135.72347  21082378.623    21082385.559
  21858560.866     3640732.79149   2826621.22547  21858559.804    21858566.890
  23389653.255    -5913336.71149  -4591649.90845  23389652.801    23389662.003
 03  6  6 16 13 30.0000000  0  8G29G30G21G 6G18G17G10G26
  23314001.697    -4309960.42149  -3347114.68146  23314001.253    23314008.570
  22192673.255     4751759.68749   3693400.63447  22192673.212    22192679.800
  21685043.713    -3977596.78649  -2898991.59647  21685042.937    21685048.174
  20425513.170    -2696207.38949  -1965425.11448  20425512.742    20425518.771
  24014061.547    -8647831.87349  -6717211.18845  24014061.122    24014069.179
  21077317.619    -2486362.72949  -1928863.08547  21077316.797    21077323.740
  21873208.500     3717706.49049   2886600.69947  21873207.444    21873214.529
  23372570.869    -6003104.59349  -4661598.81145  23372570.507    23372579.638
 03  6  6 16 14  0.0000000  0  8G29G30G21G 6G18G17G10G26
  23304012.996    -4362451.75249  -3388016.93246  23304012.438    23304019.736
  22209875.261     4842156.54349   3763839.67847  22209875.233    22209881.855
  21675467.544    -4027920.13149  -2938204.58247  21675466.737    21675471.943
  20420490.137    -2722603.59449  -1985993.58548  20420489.699    20420495.725
  23993565.988    -8755535.82749  -6801136.22945  23993565.650    23993573.650
  21072297.838    -2512741.96649  -1949418.33547  21072297.012    21072303.944
  21887930.962     3795073.55449   2946886.69447  21887929.882    21887937.008
  23355522.952    -6092691.81049  -4731406.94345  23355522.498    23355531.664
 03  6  6 16 14 30.0000000  0  8G29G30G21G 6G18G17G10G26
  23294093.196    -4414580.35149  -3428636.56046  23294092.745    23294099.907
  22227131.377     4932837.55049   3834500.12947  22227131.307    22227137.945
  21665930.661    -4078036.86949  -2977256.57247  21665929.839    21665934.997
  20415536.357    -2748635.90849  -2006278.51248  20415535.938    20415541.948
  23973095.947    -8863106.11349  -6884957.12445  23973095.552    23973103.598
  21067319.985    -2538900.81649  -1969801.85847  21067319.148    21067326.064
  21902727.801     3872831.39549   3007477.18347  21902726.748    21902733.864
  23338510.144    -6182094.45949  -4801071.27045  23338509.825    23338518.740
 03  6  6 16 15  0.0000000  0  8G29G30G21G 6G18G17G10G26
  23284242.817    -4466343.88149  -3468971.70246  23284242.435    23284249.650
  22244440.967     5023799.87449   3905379.79147  22244440.904    22244447.576
  21656433.125    -4127946.73549  -3016147.36747  21656432.324    21656437.485
  20410652.133    -2774302.79649  -2026278.69248  20410651.720    20410657.735
  23952651.778    -8970540.51849  -6968672.14845  23952651.365    23952659.538
  21062384.030    -2564839.46049  -1990013.78847  21062383.225    21062390.135
  21917598.489     3950977.39349   3068370.13447  21917597.413    21917604.572
  23321533.002    -6271309.28649  -4870589.23245  23321532.779    23321541.502
 03  6  6 16 15 30.0000000  0  8G29G30G21G 6G18G17G10G26
  23274462.316    -4517739.51349  -3509020.19746  23274461.996    23274469.378
  22261803.503     5115040.62449   3976476.40447  22261803.514    22261810.222
  21646974.840    -4177649.94549  -3054877.12547  21646974.102    21646979.256
  20405837.785    -2799602.46649  -2045992.72448  20405837.363    20405843.363
  23932233.906    -9077837.16849  -7052279.82045  23932233.410    23932241.675
  21057489.884    -2590558.37449  -2010054.50347  21057489.104    21057495.993
  21932542.478     4029508.55849   3129563.22347  21932541.407    21932548.572
  23304592.280    -6360332.27849  -4939957.68845  23304592.156    23304600.771
 03  6  6 16 16  0.0000000  0  8G29G30G21G 6G18G17G10G26
  23264752.478    -4568764.78549  -3548780.08946  23264752.207    23264759.558
  22279218.632     5206557.02549   4047787.81347  22279218.578    22279225.292
  21637556.029    -4227146.35649  -3093445.74547  21637555.272    21637560.415
  20401093.636    -2824533.27949  -2065419.33748  20401093.207    20401099.189
  23911842.722    -9184993.54449  -7135778.19645  23911842.176    23911850.410
  21052637.501    -2616057.79749  -2029924.18247  21052636.713    21052643.606
  21947559.301     4108422.19449   3191054.33547  21947558.232    21947565.380
  23287689.004    -6449160.02049  -5009173.99445  23287688.799    23287697.122
 03  6  6 16 16 30.0000000  0  8G29G30G21G 6G18G17G10G26
  23255113.640    -4619417.74249  -3588249.87546  23255113.320    23255120.541
  22296685.400     5298345.25049   4119311.03447  22296685.396    22296692.076
  21628176.244    -4276437.44649  -3131854.38547  21628175.496    21628180.622
  20396419.816    -2849094.49149  -2084557.94948  20396419.373    20396425.353
  23891478.524    -9292008.26549  -7219166.17445  23891477.924    23891486.097
  21047826.724    -2641338.57749  -2049623.49147  21047825.953    21047832.846
  21962648.182     4187714.87449   3252840.81147  21962647.136    21962654.305
  23270823.204    -6537789.65249  -5078235.92945  23270822.905    23270831.401
 03  6  6 16 17  0.0000000  0  8G29G30G21G 6G18G17G10G26
  23245546.148    -4669695.28949  -3627427.12546  23245545.804    23245553.010
  22314203.349     5390402.81949   4191044.11547  22314203.378    22314210.153
  21618835.786    -4325522.00149  -3170102.07047  21618835.012    21618840.148
  20391816.707    -2873283.93149  -2103406.86848  20391816.269    20391822.257
  23871141.683    -9398878.89249  -7302441.90745  23871141.113    23871149.168
  21043057.577    -2666400.68449  -2069152.40847  21043056.805    21043063.695
  21977808.764     4267384.36149   3314920.89947  21977807.730    21977814.917
  23253995.828    -6626217.03249  -5147140.24645  23253995.614    23254004.180
 03  6  6 16 17 30.0000000  0  8G29G30G21G 6G18G17G10G26
  23236050.459    -4719595.29449  -3666310.17746  23236050.117    23236057.300
  22331772.096     5482726.84449   4262984.83847  22331772.106    22331778.924
  21609534.491    -4374400.39549  -3208189.12447  21609533.771    21609538.894
  20387284.641    -2897100.01549  -2121964.86048  20387284.227    20387290.216
  23850832.706    -9505603.09449  -7385603.50945  23850832.093    23850840.212
  21038329.994    -2691244.33149  -2088511.09547  21038329.208    21038336.109
  21993040.512     4347427.68149   3377292.28747  21993039.505    21993046.662
  23237207.904    -6714438.76549  -5215884.32445  23237207.545    23237216.052
 03  6  6 16 18  0.0000000  0  8G29G30G21G 6G18G17G10G26
  23226627.125    -4769114.72649  -3704896.69946  23226626.811    23226634.015
  22349390.981     5575314.49149   4335130.97846  22349390.998    22349397.832
  21600272.506    -4423072.64949  -3246115.53347  21600271.753    21600276.865
  20382824.000    -2920540.96449  -2140230.53648  20382823.575    20382829.566
  23830551.972    -9612178.53649  -7468649.20345  23830551.423    23830559.536
  21033643.830    -2715870.24149  -2107700.11847  21033643.092    21033649.963
  22008342.966     4427842.52249   3439953.17747  22008341.992    22008349.126
  23220459.597    -6802450.94649  -5284465.09645  23220459.341    23220467.890
 03  6  6 16 18 30.0000000  0  8G29G30G21G 6G18G17G10G26
  23217276.763    -4818251.26049  -3743184.87646  23217276.434    23217283.613
  22367059.451     5668162.70349   4407480.15046  22367059.477    22367066.360
  21591049.666    -4471538.82849  -3283881.38447  21591048.928    21591054.095
  20378434.986    -2943605.39349  -2158202.82248  20378434.553    20378440.558
  23810299.929    -9718603.59549  -7551577.73446  23810299.353    23810307.370
  21028999.120    -2740278.54549  -2126719.57747  21028998.377    21029005.218
  22023715.544     4508625.66549   3502901.04447  22023714.520    22023721.685
  23203751.668    -6890250.35049  -5352880.08645  23203751.547    23203760.216
 03  6  6 16 19  0.0000000  0  8G29G30G21G 6G18G17G10G26
  23207999.745    -4867002.55849  -3781172.84846  23207999.396    23208006.499
  22384776.934     5761268.26949   4480029.86546  22384776.951    22384783.826
  21581865.988    -4519799.30949  -3321486.94347  21581865.246    21581870.401
  20374117.854    -2966292.02949  -2175880.72148  20374117.432    20374123.426
  23790076.886    -9824876.15049  -7634387.43546  23790076.283    23790084.356
  21024395.569    -2764470.37749  -2145570.35847  21024394.834    21024401.666
  22039157.624     4589774.14549   3566133.59547  22039156.609    22039163.760
  23187085.109    -6977833.46649  -5421126.53045  23187084.946    23187093.710
 03  6  6 16 19 30.0000000  0  8G29G30G21G 6G18G17G10G26
  23198796.537    -4915365.46749  -3818858.21846  23198796.218    23198803.234
  22402542.948     5854629.08749   4552778.47146  22402542.962    22402549.864
  21572721.437    -4567854.07149  -3358932.18947  21572720.736    21572725.892
  20369873.112    -2988598.38849  -2193262.30348  20369872.691    20369878.688
  23769883.305    -9930993.10949  -7717075.87145  23769882.783    23769890.906
  21019833.397    -2788444.81649  -2164251.74547  21019832.653    21019839.500
  22054668.882     4671286.28649   3629649.51847  22054667.891    22054675.052
  23170460.529    -7065195.90549  -5489201.02445  23170460.404    23170469.098
 03  6  6 16 20  0.0000000  0  8G29G30G21G 6G18G17G10G26
  23189667.656    -4963338.06749  -3856239.41446  23189667.328    23189674.283
  22420356.862     5948241.67249   4625723.26146  22420356.900    22420363.817
  21563616.182    -4615702.76249  -3396216.87147  21563615.420    21563620.562
  20365700.938    -3010523.43049  -2210346.75348  20365700.509    20365706.519
  23749719.802   -10036952.85549  -7799641.82745  23749719.272    23749727.332
  21015312.427    -2812202.78549  -2182764.45047  21015311.682    21015318.528
  22070248.711     4753158.63549   3693446.12147  22070247.695    22070254.877
  23153878.504    -7152334.51849  -5557101.09745  23153878.304    23153887.101
 03  6  6 16 20 30.0000000  0  8G29G30G21G 6G18G17G10G26
  23180613.476    -5010918.23849  -3893314.84846  23180613.096    23180619.962
  22438218.050     6042102.41649   4698861.42346  22438218.055    22438224.977
  21554549.992    -4663345.77149  -3433341.29247  21554549.256    21554554.393
  20361601.443    -3032066.24949  -2227133.36648  20361601.037    20361607.042
  23729586.480   -10142753.83849  -7882084.05545  23729585.969    23729593.989
  21010832.512    -2835744.79949  -2201108.88347  21010831.794    21010838.623
  22085896.467     4835387.68049   3757520.67247  22085895.413    22085902.574
  23137339.591    -7239246.31849  -5624824.46045  23137339.463    23137348.288
 03  6  6 16 21  0.0000000  0  8G29G30G21G 6G18G17G10G26
  23171634.421    -5058103.45249  -3930082.51346  23171634.012    23171640.849
  22456125.943     6136208.57049   4772190.81346  22456125.957    22456132.905
  21545522.881    -4710783.61549  -3470305.83047  21545522.145    21545527.304
  20357575.052    -3053225.07849  -2243620.76548  20357574.644    20357580.670
  23709483.833   -10248393.86749  -7964400.85845  23709483.296    23709491.265
  21006393.596    -2859071.63249  -2219285.63847  21006392.867    21006399.711
  22101611.620     4917970.91749   3821871.22247  22101610.593    22101617.724
  23120844.770    -7325927.62849  -5692368.20245  23120844.562    23120853.261
 03  6  6 16 21 30.0000000  0  8G29G30G21G 6G18G17G10G26
  23162730.834    -5104891.70449  -3966540.85546  23162730.516    23162737.328
  22474079.930     6230556.94049   4845708.94046  22474079.938    22474086.927
  21536534.718    -4758016.68149  -3507110.80447  21536533.988    21536539.142
  20353621.986    -3073998.59649  -2259807.92548  20353621.581    20353627.605
  23689412.212   -10353870.95049  -8046590.70745  23689411.592    23689419.481
  21001995.509    -2882183.95449  -2237295.23947  21001994.751    21002001.606
  22117393.520     5000905.22749   3886495.32547  22117392.498    22117399.646
  23104394.331    -7412375.19049  -5759729.82046  23104394.091    23104402.721
 03  6  6 16 22  0.0000000  0  8G29G30G21G 6G18G17G10G26
  23153903.549    -5151279.03949  -4002686.79146  23153903.286    23153910.156
  22492079.639     6325145.67349   4919414.36346  22492079.607    22492086.662
  21527585.744    -4805043.60549  -3543755.14547  21527585.053    21527590.225
  20349742.784    -3094384.05549  -2275692.70148  20349742.376    20349748.413
  23669372.109   -10459181.68549  -8128650.91545  23669371.515    23669379.389
  20997638.408    -2905080.67549  -2255136.83947  20997637.658    20997644.513
  22133241.990     5084189.36749   3951392.02347  22133240.966    22133248.131
  23087989.304    -7498584.07749  -5826905.46546  23087989.008    23087997.517
 03  6  6 16 22 30.0000000  0  8G29G30G21G 6G18G17G10G26
  23145152.878    -5197263.97349  -4038519.17446  23145152.625    23145159.450
  22510124.417     6419971.11949   4993304.23246  22510124.385    22510131.426
  21518675.784    -4851865.83849  -3580239.98847  21518675.071    21518680.238
  20345937.595    -3114380.70249  -2291274.50448  20345937.191    20345943.215
  23649363.998   -10564324.87449  -8210580.59545  23649363.377    23649371.213
  20993322.147    -2927762.69849  -2272811.14247  20993321.406    20993328.232
  22149156.323     5167819.53349   4016558.35747  22149155.299    22149162.460
  23071630.114    -7584551.61549  -5893893.04646  23071629.924    23071638.371
 03  6  6 16 23  0.0000000  0  8G29G30G21G 6G18G17G10G26
  23136479.288    -5242843.81049  -4074035.90046  23136479.039    23136485.886
  22528213.777     6515030.62449   5067376.48946  22528213.712    22528220.723
  21509804.959    -4898482.40349  -3616564.56947  21509804.213    21509809.395
  20342206.746    -3133986.62349  -2306551.84848  20342206.334    20342212.314
  23629388.234   -10669298.17949  -8292377.89645  23629387.536    23629395.304
  20989046.739    -2950230.40749  -2290318.44547  20989045.976    20989052.780
  22165136.045     5251793.19049   4081992.34247  22165134.996    22165142.119
  23055317.676    -7670273.76949  -5960689.40846  23055317.526    23055325.913
 03  6  6 16 23 30.0000000  0  8G29G30G21G 6G18G17G10G26
  23127883.204    -5288016.45049  -4109235.34046  23127882.920    23127889.823
  22546346.995     6610321.02549   5141628.66646  22546346.979    22546353.980
  21500973.167    -4944893.57949  -3652729.11447  21500972.476    21500977.641
  20338550.508    -3153200.59049  -2321523.78048  20338550.085    20338556.038
  23609445.012   -10774099.74749  -8374041.35845  23609444.402    23609452.155
  20984811.986    -2972484.21249  -2307659.07247  20984811.228    20984818.024
  22181180.545     5336107.39349   4147691.68347  22181179.519    22181186.648
  23039052.508    -7755747.26249  -6027292.04946  23039052.416    23039060.709
 03  6  6 16 24  0.0000000  0  8G29G30G21G 6G18G17G10G26
  23119365.076    -5332779.39049  -4144115.54346  23119364.797    23119371.625
  22564523.602     6705839.31549   5216058.42146  22564523.566    22564530.585
  21492180.528    -4991099.55649  -3688733.75947  21492179.754    21492184.942
  20334969.072    -3172021.18749  -2336189.18648  20334968.644    20334974.596
  23589534.863   -10878727.50649  -8455569.38845  23589534.256    23589542.041
  20980617.862    -2994524.49249  -2324833.31447  20980617.101    20980623.887
  22197289.416     5420759.47349   4213654.30847  22197288.347    22197295.454
  23022835.419    -7840968.44249  -6093698.06146  23022835.303    23022843.480
 03  6  6 16 24 30.0000000  0  8G29G30G21G 6G18G17G10G26
  23110925.222    -5377130.92449  -4178675.14146  23110924.930    23110931.783
  22582742.874     6801582.03149   5290663.05146  22582742.892    22582749.937
  21483426.731    -5037101.10649  -3724579.10947  21483425.984    21483431.114
  20331462.679    -3190447.30149  -2350547.20148  20331462.252    20331468.212
  23569658.234   -10983179.37249  -8536960.38445  23569657.576    23569665.383
  20976464.224    -3016352.19849  -2341841.91247  20976463.456    20976470.233
  22213461.906     5505746.11949   4279877.63947  22213460.851    22213467.925
  23006666.954    -7925934.13349  -6159905.00546  23006666.826    23006674.985
 03  6  6 16 25  0.0000000  0  8G29G30G21G 6G18G17G10G26
  23102564.222    -5421068.00949  -4212911.82746  23102563.938    23102570.835
  22601004.402     6897546.60749   5365440.55146  22601004.390    22601011.473
  21474711.883    -5082897.94249  -3760264.93947  21474711.137    21474716.280
  20328031.732    -3208477.08249  -2364596.38748  20328031.307    20328037.273
  23549815.520   -11087453.17949  -8618212.61645  23549814.862    23549822.602
  20972351.024    -3037967.18849  -2358684.76447  20972350.264    20972357.058
  22229697.560     5591064.85149   4346359.73046  22229696.501    22229703.539
  22990547.715    -8010640.48249  -6225909.87546  22990547.625    22990555.806
 03  6  6 16 25 30.0000000  0  9G29G30G16G21G 6G18G17G10G26
  23094282.479    -5464588.95949  -4246824.23846  23094282.161    23094289.116
  22619307.530     6993729.73649   5440388.35846  22619307.519    22619314.616
  24462190.319    -1568197.42349  -1208768.27345  24462190.948    24462197.888
  21466035.875    -5128490.18949  -3795791.36447  21466035.173    21466040.310
  20324676.425    -3226109.24149  -2378335.73848  20324676.020    20324681.978
  23530007.197   -11191546.73949  -8699324.42445  23530006.556    23530014.211
  20968278.205    -3059370.13249  -2375362.38247  20968277.424    20968284.234
  22245995.781     5676712.41949   4413098.05646  22245994.718    22246001.775
  22974478.609    -8095084.17949  -6291710.08145  22974478.459    22974486.588
 03  6  6 16 26  0.0000000  0  9G29G30G16G21G 6G18G17G10G26
  23086080.311    -5507691.18949  -4280410.36846  23086080.039    23086087.046
  22637651.585     7090128.51949   5515504.20046  22637651.610    22637658.774
  24447567.725    -1645031.99349  -1268639.33045  24447567.821    24447575.737
  21457398.914    -5173878.11749  -3831158.56447  21457398.152    21457403.267
  20321397.081    -3243342.31649  -2391764.11448  20321396.680    20321402.645
  23510233.450   -11295458.35549  -8780294.43345  23510232.795    23510240.414
  20964245.654    -3080561.08949  -2391874.81547  20964244.895    20964251.729
  22262356.064     5762686.34649   4480090.69346  22262355.042    22262362.073
  22958460.086    -8179261.61149  -6357302.79745  22958459.979    22958468.062
 03  6  6 16 26 30.0000000  0  9G29G30G16G21G 6G18G17G10G26
  23077958.190    -5550373.86749  -4313669.58046  23077957.733    23077964.824
  22656035.787     7186738.46349   5590784.57746  22656035.922    22656043.162
  24433018.363    -1721491.06949  -1328217.82845  24433018.073    24433026.219
  21448800.561    -5219062.97649  -3866367.53547  21448799.755    21448804.880
  20318193.725    -3260176.23349  -2404881.46048  20318193.318    20318199.294
  23490494.484   -11399187.31149  -8861122.12146  23490493.810    23490501.415
  20960253.108    -3101542.08749  -2408223.64247  20960252.359    20960259.171
  22278777.637     5848982.12949   4547334.13046  22278776.594    22278783.614
  22942492.611    -8263170.59649  -6422686.33245  22942492.483    22942500.606
 03  6  6 16 27  0.0000000  0  9G29G30G16G21G 6G18G17G10G26
  23069916.351    -5592633.43349  -4346599.07246  23069916.019    23069923.107
  22674460.007     7283558.07149   5666228.34146  22674460.118    22674467.393
  24418540.962    -1797570.78349  -1387500.76145  24418540.427    24418548.675
  21440240.921    -5264043.71249  -3901417.44847  21440240.171    21440245.302
  20315066.833    -3276608.10449  -2417685.52348  20315066.442    20315072.418
  23470790.862   -11502730.13049  -8941804.76646  23470790.210    23470797.819
  20956300.721    -3122312.01349  -2424408.00347  20956299.975    20956306.769
  22295260.283     5935598.59149   4614827.43946  22295259.213    22295266.225
  22926577.050    -8346806.24749  -6487856.87745  22926577.021    22926585.192
 03  6  6 16 27 30.0000000  0  9G29G30G16G21G 6G18G17G10G26
  23061955.542    -5634467.29349  -4379196.88746  23061955.330    23061962.366
  22692923.569     7380584.38949   5741833.17246  22692923.676    22692930.974
  24404136.513    -1873268.74949  -1446486.14945  24404135.898    24404143.737
  21431720.127    -5308820.22949  -3936308.23347  21431719.459    21431724.616
  20312016.748    -3292636.34349  -2430175.07148  20312016.364    20312022.355
  23451123.235   -11606084.37949  -9022340.47046  23451122.556    23451130.134
  20952388.517    -3142870.73549  -2440427.79047  20952387.784    20952394.589
  22311803.404     6022533.17649   4682568.63646  22311802.331    22311809.356
  22910714.337    -8430164.75549  -6552811.46245  22910714.283    22910722.516
 03  6  6 16 28  0.0000000  0  9G29G30G16G21G 6G18G17G10G26
  23054076.530    -5675872.59449  -4411460.72846  23054076.165    23054083.170
  22711426.138     7477815.56349   5817597.63746  22711426.197    22711433.531
  24389805.059    -1948581.71749  -1505171.48745  24389804.500    24389812.009
  21423238.592    -5353391.34349  -3971038.96547  21423237.861    21423242.976
  20309043.963    -3308258.54449  -2442348.21848  20309043.572    20309049.578
  23431491.951   -11709247.15049  -9102726.95846  23431491.296    23431498.904
  20948516.543    -3163218.26349  -2456283.00447  20948515.804    20948522.572
  22328406.580     6109783.65149   4750555.98046  22328405.536    22328412.559
  22894905.190    -8513241.63849  -6617546.63045  22894905.296    22894913.354
 03  6  6 16 28 30.0000000  0  9G29G30G16G21G 6G18G17G10G26
  23046279.173    -5716846.85649  -4443388.71946  23046278.993    23046285.984
  22729967.080     7575248.42849   5893519.25346  22729967.161    22729974.467
  24375547.221    -2023507.51149  -1563555.20845  24375546.641    24375553.864
  21414796.049    -5397757.50749  -4005609.98647  21414795.296    21414800.402
  20306148.656    -3323473.56749  -2454204.08548  20306148.266    20306154.282
  23411897.457   -11812216.53149  -9182962.77046  23411896.811    23411904.392
  20944684.747    -3183354.51949  -2471973.59048  20944683.997    20944690.786
  22345069.454     6197347.48549   4818787.50546  22345068.401    22345075.496
  22879150.399    -8596033.54049  -6682059.71845  22879150.434    22879158.458
 03  6  6 16 29  0.0000000  0  9G29G30G16G21G 6G18G17G10G26
  23038564.482    -5757388.72049  -4474979.75646  23038564.144    23038571.155
  22748545.652     7672879.17349   5969595.08046  22748545.739    22748553.053
  24361363.527    -2098044.50949  -1621635.98045  24361362.949    24361369.997
  21406392.274    -5441919.58849  -4040021.98547  21406391.553    21406396.673
  20303330.984    -3338280.58249  -2465742.02348  20303330.597    20303336.576
  23392340.010   -11914991.00549  -9263046.68746  23392339.400    23392347.028
  20940892.825    -3203281.21749  -2487500.88348  20940892.082    20940898.889
  22361791.315     6285221.18249   4887260.48046  22361790.255    22361797.346
  22863450.414    -8678537.40649  -6746348.35345  22863450.393    22863458.374
 03  6  6 16 29 30.0000000  0  9G29G30G16G21G 6G18G17G10G26
  23030932.360    -5797495.87549  -4506232.07546  23030931.968    23030939.002
  22767161.348     7770704.98949   6045822.89046  22767161.462    22767168.745
  24347254.076    -2172190.36849  -1679411.90945  24347253.527    24347260.207
  21398027.373    -5485877.56449  -4074274.94047  21398026.634    21398031.719
  20300591.270    -3352678.06849  -2476960.85048  20300590.863    20300596.832
  23372820.179   -12017568.72549  -9342977.29546  23372819.424    23372827.047
  20937140.774    -3222998.34649  -2502864.88048  20937140.050    20937146.872
  22378571.534     6373401.94849   4955972.73146  22378570.478    22378577.629
  22847805.885    -8760749.73749  -6810409.82045  22847805.923    22847813.764
 03  6  6 16 30  0.0000000  0  9G29G30G16G21G 6G18G17G10G26
  23023383.437    -5837166.06349  -4537143.89846  23023382.984    23023390.005
  22785813.667     7868723.01049   6122200.47446  22785813.769    22785821.084
  24333219.376    -2245942.81149  -1736881.31045  24333218.853    24333225.549
  21389701.294    -5529631.11349  -4108368.60847  21389700.599    21389705.699
  20297929.771    -3366664.47549  -2487859.35648  20297929.366    20297935.329
  23353338.115   -12119947.38849  -9422752.80746  23353337.371    23353345.010
  20933428.613    -3242505.88449  -2518065.56048  20933427.899    20933434.725
  22395409.624     6461886.78749   5024921.92246  22395408.581    22395415.764
  22832217.708    -8842666.76249  -6874241.19245  22832217.694    22832225.404
 03  6  6 16 30 30.0000000  0  9G29G30G16G21G 6G18G17G10G26
  23015917.979    -5876397.48049  -4567713.80046  23015917.532    23015924.533
  22804501.906     7966929.96749   6198725.28046  22804502.021    22804509.331
  24319260.250    -2319299.53749  -1794042.40345  24319259.607    24319266.250
  21381414.076    -5573180.69049  -4142303.33047  21381413.396    21381418.494
  20295346.642    -3380238.85749  -2498436.80548  20295346.254    20295352.210
  23333894.106   -12222125.35849  -9502371.92046  23333893.422    23333901.184
  20929756.237    -3261804.63649  -2533103.55248  20929755.492    20929762.270
  22412305.081     6550672.73049   5094105.73046  22412304.005    22412311.220
  22816686.190    -8924285.36349  -6937840.02645  22816686.157    22816693.802
 03  6  6 16 31  0.0000000  0 10G29G30G16G21G 6G18G17G15G10G26
  23008536.424    -5915187.60349  -4597939.85546  23008536.052    23008543.090
  22823225.604     8065323.11049   6275395.17546  22823225.690    22823233.013
  24305376.569    -2392258.32149  -1850893.32345  24305376.027    24305382.753
  21373165.721    -5616526.21549  -4176079.05447  21373165.036    21373170.123
  20292842.263    -3393399.38549  -2508691.76748  20292841.878    20292847.867
  23314488.792   -12324100.19049  -9581832.73846  23314488.196    23314495.896
  20926123.561    -3280894.38349  -2547978.68648  20926122.847    20926129.609
  24161456.844    -1231118.46649   -932254.17745  24161455.703    24161465.184
  22429257.342     6639757.43549   5163522.34846  22429256.299    22429263.516
  22801212.246    -9005601.58949  -7001203.24845  22801212.180    22801219.707
 03  6  6 16 31 30.0000000  0 10G29G30G16G21G 6G18G17G15G10G26
  23001239.038    -5953535.50749  -4627821.32146  23001238.674    23001245.720
  22841983.969     8163898.37449   6352206.99146  22841984.033    22841991.339
  24291569.112    -2464818.07849  -1907433.37345  24291568.478    24291575.027
  21364956.007    -5659668.66949  -4209696.53747  21364955.279    21364960.347
  20290416.690    -3406145.81349  -2518624.05448  20290416.307    20290422.319
  23295122.520   -12425870.81049  -9661134.43946  23295121.803    23295129.538
  20922530.348    -3299776.66549  -2562692.15247  20922529.644    20922536.415
  24146246.295    -1311052.78849   -994540.59145  24146244.843    24146253.851
  22446265.787     6729137.11649   5233168.81646  22446264.724    22446271.950
  22785796.266    -9086613.03849  -7064328.98445  22785796.092    22785803.679
 03  6  6 16 32  0.0000000  0 10G29G30G16G21G 6G18G17G15G10G26
  22994026.314    -5991438.82449  -4657356.35646  22994025.937    22994032.987
  22860776.439     8262652.73449   6429158.33946  22860776.483    22860783.752
  24277837.528    -2536976.45049  -1963660.63845  24277836.923    24277843.622
  21356784.860    -5702608.49249  -4243156.12647  21356784.136    21356789.187
  20288070.250    -3418476.66949  -2528232.51148  20288069.871    20288075.850
  23275795.359   -12527435.29349  -9740275.51546  23275794.692    23275802.390
  20918976.635    -3318451.66949  -2577244.10447  20918975.924    20918982.681
  24131052.819    -1390893.41249  -1056754.01045  24131051.641    24131060.602
  22463329.737     6818808.70049   5303042.74246  22463328.701    22463335.929
  22770438.979    -9167316.12349  -7127214.44545  22770438.753    22770446.346
 03  6  6 16 32 30.0000000  0 10G29G30G16G21G 6G18G17G15G10G26
  22986898.683    -6028895.06449  -4686542.99846  22986898.251    22986905.314
  22879602.480     8361583.81249   6506247.40646  22879602.511    22879609.806
  24264183.345    -2608730.45249  -2019572.84045  24264182.656    24264189.395
  21348652.326    -5745345.20349  -4276457.44647  21348651.626    21348656.630
  20285803.169    -3430390.19649  -2537515.77848  20285802.791    20285808.775
  23256507.979   -12628791.11649  -9819253.98846  23256507.326    23256514.918
  20915462.377    -3336919.28049  -2591634.44547  20915461.647    20915468.450
  24115877.339    -1470639.87349  -1118894.07445  24115876.366    24115885.377
  22480448.801     6908769.98849   5373142.41546  22480447.819    22480455.082
  22755140.948    -9247706.91149  -7189856.54046  22755140.825    22755148.411
 03  6  6 16 33  0.0000000  0 10G29G30G16G21G 6G18G17G15G10G26
  22979856.460    -6065901.83149  -4715379.41946  22979856.107    22979863.186
  22898461.627     8460688.93949   6583472.08046  22898461.675    22898468.971
  24250606.163    -2680078.01149  -2075168.22545  24250605.565    24250612.689
  21340558.483    -5787878.56949  -4309600.32347  21340557.779    21340562.787
  20283615.896    -3441884.68549  -2546472.52948  20283615.505    20283621.489
  23237260.685   -12729936.04449  -9898068.15946  23237260.020    23237267.552
  20911987.480    -3355179.99849  -2605863.57748  20911986.753    20911993.557
  24100720.073    -1550291.61749  -1180960.29245  24100719.090    24100728.175
  22497622.638     6999018.72449   5443466.06746  22497621.610    22497628.883
  22739903.220    -9327781.43449  -7252252.21046  22739903.153    22739910.671
 03  6  6 16 33 30.0000000  0 10G29G30G16G21G 6G18G17G15G10G26
  22972900.273    -6102456.90249  -4743863.85846  22972899.952    22972906.994
  22917353.450     8559965.39149   6660830.25646  22917353.446    22917360.733
  24237107.089    -2751016.39249  -2130445.02045  24237106.561    24237113.219
  21332503.511    -5830207.78049  -4342584.11047  21332502.796    21332507.793
  20281508.617    -3452958.49149  -2555101.47048  20281508.224    20281514.197
  23218054.013   -12830867.59849  -9976716.03346  23218053.336    23218060.806
  20908552.030    -3373233.49349  -2619931.23148  20908551.311    20908558.095
  24085580.933    -1629848.36049  -1242952.46645  24085579.970    24085589.063
  22514850.737     7089552.43549   5514011.78146  22514849.704    22514856.953
  22724726.472    -9407535.89949  -7314398.49646  22724726.349    22724733.906
 03  6  6 16 34  0.0000000  0 10G29G30G16G21G 6G18G17G15G10G26
  22966030.533    -6138557.96049  -4771994.52446  22966030.188    22966037.210
  22936277.340     8659410.27949   6738319.68446  22936277.336    22936284.549
  24223685.766    -2821543.62749  -2185401.17045  24223685.331    24223692.559
  21324487.314    -5872333.04149  -4375408.97147  21324486.615    21324491.621
  20279481.704    -3463610.14849  -2563401.47048  20279481.307    20279487.273
  23198888.411   -12931583.46549 -10055195.83546  23198887.714    23198895.164
  20905155.984    -3391079.97949  -2633837.58748  20905155.262    20905162.042
  24070460.002    -1709309.78649  -1304870.44145  24070459.048    24070468.032
  22532132.473     7180368.37849   5584777.41846  22532131.440    22532138.703
  22709611.088    -9486966.65549  -7376292.52746  22709611.004    22709618.702
 03  6  6 16 34 30.0000000  0 10G29G30G16G21G 6G18G17G15G10G26
  22959247.476    -6174203.21349  -4799770.02046  22959247.154    22959254.092
  22955232.581     8759020.44349   6815937.90746  22955232.593    22955239.835
  24210343.623    -2891657.51749  -2240035.33845  24210343.020    24210350.476
  21316509.828    -5914254.90549  -4408075.34647  21316509.148    21316514.162
  20277535.299    -3473838.61049  -2571371.70348  20277534.905    20277540.840
  23179764.015   -13032082.22749 -10133506.49546  23179763.383    23179770.767
  20901799.221    -3408719.85049  -2647582.93648  20901798.516    20901805.290
  24055357.064    -1788676.03449  -1366714.22845  24055356.184    24055365.128
  22549467.290     7271463.26249   5655760.40246  22549466.279    22549473.543
  22694558.044    -9566070.49349  -7437931.81946  22694557.945    22694565.734
 03  6  6 16 35  0.0000000  0 10G29G30G16G21G 6G18G17G15G10G26
  22952551.496    -6209390.70749  -4827188.82646  22952551.170    22952558.091
  22974218.658     8858792.77949   6893682.48346  22974218.679    22974225.987
  24197080.248    -2961355.81049  -2294345.71345  24197079.849    24197086.979
  21308571.103    -5955973.05649  -4440582.98647  21308570.424    21308575.446
  20275669.673    -3483642.51449  -2579011.11048  20275669.296    20275675.224
  23160681.334   -13132361.78249 -10211646.32646  23160680.755    23160688.095
  20898481.741    -3426153.34949  -2661167.47748  20898481.013    20898487.788
  24040272.133    -1867947.06449  -1428483.78145  24040271.306    24040280.281
  22566854.702     7362834.57449   5726958.78846  22566853.652    22566860.953
  22679567.842    -9644843.74349  -7499313.52046  22679567.842    22679575.664
 03  6  6 16 35 30.0000000  0 10G29G30G16G21G 6G18G17G15G10G26
  22945942.920    -6244119.07749  -4854249.86446  22945942.604    22945949.455
  22993235.005     8958723.94849   6971550.82346  22993235.084    22993242.387
  24183896.794    -3030636.86849  -2348330.95045  24183896.188    24183903.489
  21300671.059    -5997488.20149  -4472932.43747  21300670.343    21300675.370
  20273884.971    -3493021.26549  -2586319.23148  20273884.572    20273890.507
  23141640.722   -13232420.32649 -10289613.95246  23141640.186    23141647.429
  20895203.412    -3443381.19049  -2674591.77347  20895202.662    20895209.430
  24025205.443    -1947123.25049  -1490179.48745  24025204.588    24025213.522
  22584294.157     7454478.94449   5798369.93846  22584293.049    22584300.344
  22664641.191    -9723283.58149  -7560435.40546  22664641.196    22664649.001
 03  6  6 16 36  0.0000000  0 10G29G30G16G21G 6G18G17G15G10G26
  22939422.020    -6278386.02949  -4880951.36246  22939421.738    22939428.646
  23012281.044     9058810.96849   7049540.62146  23012281.090    23012288.428
  24170792.543    -3099498.87849  -2401989.56445  24170792.128    24170799.215
  21292809.512    -6038800.76349  -4505124.03147  21292808.805    21292813.842
  20272181.454    -3501973.40249  -2593294.92848  20272181.071    20272186.984
  23122642.677   -13332256.09249 -10367407.96846  23122642.078    23122649.310
  20891964.102    -3460403.86249  -2687856.18547  20891963.345    20891970.148
  24010156.703    -2026204.38049  -1551801.09345  24010155.895    24010164.759
  22601784.981     7546393.75249   5869991.83846  22601783.910    22601791.163
  22649778.721    -9801386.47149  -7621294.73746  22649778.655    22649786.505
 03  6  6 16 36 30.0000000  0 10G29G30G16G21G 6G18G17G15G10G26
  22932989.571    -6312189.71849  -4907291.87346  22932989.152    22932996.002
  23031356.206     9159050.90249   7127649.56446  23031356.214    23031363.517
  24157769.126    -3167939.20049  -2455319.75445  24157768.545    24157775.490
  21284986.553    -6079910.60849  -4537157.66547  21284985.841    21284990.884
  20270559.388    -3510497.49449  -2599937.07748  20270558.994    20270564.912
  23103687.241   -13431867.38149 -10445027.06946  23103686.661    23103693.866
  20888763.694    -3477222.11449  -2700961.31147  20888762.940    20888769.734
  23995126.151    -2105190.25249  -1613348.47545  23995125.321    23995134.195
  22619326.806     7638576.29349   5941822.34946  22619325.717    22619332.955
  22634980.939    -9879148.82449  -7681888.72546  22634980.889    22634988.779
 03  6  6 16 37  0.0000000  0 10G29G30G16G21G 6G18G17G15G10G26
  22926645.344    -6345528.11249  -4933269.79746  22926645.014    22926651.932
  23050459.824     9259440.98649   7205875.51546  23050459.898    23050467.197
  24144825.767    -3235955.95049  -2508319.69245  24144825.295    24144832.236
  21277202.244    -6120817.43849  -4569033.09847  21277201.560    21277206.586
  20269018.975    -3518592.19949  -2606244.64548  20269018.590    20269024.547
  23084774.983   -13531251.73149 -10522469.33346  23084774.413    23084781.574
  20885602.279    -3493835.47749  -2713906.78948  20885601.549    20885608.305
  23980113.669    -2184080.86549  -1674821.65345  23980112.824    23980121.622
  22636918.995     7731023.82049   6013859.34146  22636917.928    22636925.134
  22620248.738    -9956567.04449  -7742214.55846  22620248.687    22620256.525
 03  6  6 16 37 30.0000000  0 10G29G30G16G21G 6G18G17G15G10G26
  22920390.140    -6378399.41649  -4958883.76746  22920389.805    22920396.740
  23069591.368     9359977.86749   7284215.84146  23069591.534    23069598.842
  24131963.806    -3303547.03849  -2560988.16745  24131963.159    24131969.751
  21269456.508    -6161521.47649  -4600750.52047  21269455.802    21269460.844
  20267560.518    -3526256.45549  -2612216.79148  20267560.150    20267566.112
  23065906.308   -13630407.27249 -10599733.30546  23065905.706    23065912.807
  20882479.739    -3510244.60149  -2726693.11248  20882479.011    20882485.768
  23965119.328    -2262876.21149  -1736220.53945  23965118.414    23965127.327
  22654561.042     7823733.49049   6086100.61046  22654560.034    22654567.225
  22605582.793   -10033637.69349  -7802269.55546  22605582.671    22605590.396
 03  6  6 16 38  0.0000000  0 10G29G30G16G21G 6G18G17G15G10G26
  22914224.166    -6410801.71649  -4984132.28246  22914223.833    22914230.727
  23088750.482     9460658.62449   7362668.28646  23088750.510    23088757.786
  24119183.081    -3370710.44149  -2613323.15945  24119182.586    24119189.321
  21261749.388    -6202022.74949  -4632309.94047  21261748.698    21261753.719
  20266184.190    -3533489.10949  -2617852.62548  20266183.823    20266189.814
  23047081.495   -13729332.09549 -10676817.50246  23047080.868    23047087.911
  20879395.998    -3526449.79649  -2739320.53048  20879395.265    20879401.993
  23950143.237    -2341575.99049  -1797545.02845  23950142.411    23950151.233
  22672252.511     7916702.45849   6158543.91446  22672251.477    22672258.712
  22590983.475   -10110357.48749  -7862051.16346  22590983.387    22590991.066
 03  6  6 16 38 30.0000000  0 10G29G30G16G21G 6G18G17G15G10G26
  22908147.777    -6442733.53949  -5009014.18546  22908147.330    22908154.245
  23107936.213     9561480.20449   7441230.46346  23107936.278    23107943.602
  24106484.095    -3437444.27449  -2665323.65645  24106483.398    24106489.570
  21254080.649    -6242321.99549  -4663711.93847  21254079.977    21254084.996
  20264890.170    -3540289.12949  -2623151.34248  20264889.799    20264895.815
  23028300.885   -13828024.57049 -10753720.65446  23028300.270    23028307.263
  20876351.013    -3542451.31349  -2751789.23448  20876350.283    20876357.054
  23935185.293    -2420180.52649  -1858795.19445  23935184.347    23935193.364
  22689992.704     8009927.67749   6231186.90546  22689991.646    22689998.909
  22576451.544   -10186723.20849  -7921556.85546  22576451.447    22576459.059
 03  6  6 16 39  0.0000000  0 10G29G30G16G21G 6G18G17G15G10G26
  22902161.381    -6474192.22049  -5033527.41246  22902160.954    22902167.772
  23127148.224     9662440.10849   7519900.41446  23127148.298    23127155.765
  24093867.398    -3503745.86849  -2716987.09545  24093866.843    24093873.376
  21246450.590    -6282418.25349  -4694955.76647  21246449.889    21246454.916
  20263678.827    -3546654.71649  -2628111.54148  20263678.467    20263684.476
  23009564.853   -13926482.19949 -10830440.80146  23009564.341    23009571.394
  20873344.728    -3558249.37149  -2764099.40947  20873343.985    20873350.762
  23920245.664    -2498689.00349  -1919970.65945  23920244.779    23920253.582
  22707781.220     8103406.91049   6304027.82546  22707780.181    22707787.435
  22561987.895   -10262730.58749  -7980783.34646  22561987.741    22561995.313
 03  6  6 16 39 30.0000000  0 10G29G30G16G21G 6G18G17G15G10G26
  22896265.271    -6505176.38949  -5057670.87546  22896264.826    22896271.642
  23146385.918     9763534.93149   7598675.50646  23146386.070    23146393.559
  24081333.101    -3569613.87849  -2768312.77745  24081332.471    24081339.044
  21238859.032    -6322312.08249  -4726041.84847  21238858.344    21238863.362
  20262550.343    -3552585.04849  -2632732.57648  20262549.988    20262555.985
  22990873.977   -14024703.28749 -10906976.62846  22990873.410    22990880.529
  20870377.083    -3573844.44949  -2776251.40547  20870376.329    20870383.146
  23905324.078    -2577101.98649  -1981071.58145  23905323.249    23905332.031
  22725617.437     8197136.89849   6377064.13446  22725616.423    22725623.722
  22547592.824   -10338376.87249  -8039728.43746  22547592.667    22547600.240
 03  6  6 16 40  0.0000000  0 10G29G30G16G21G 6G18G17G15G10G26
  22890459.843    -6535683.68149  -5081442.75146  22890459.484    22890466.260
  23165648.832     9864762.29049   7677553.85846  23165649.065    23165656.611
  24068882.013    -3635045.34949  -2819298.49845  24068881.410    24068887.575
  21231306.088    -6362002.98149  -4756969.81247  21231305.403    21231310.417
  20261505.078    -3558078.16749  -2637012.93048  20261504.702    20261510.684
  22972228.576   -14122685.38449 -10983326.24346  22972227.967    22972235.078
  20867448.096    -3589236.38249  -2788245.12048  20867447.337    20867454.151
  23890420.898    -2655418.50449  -2042097.38445  23890420.086    23890428.917
  22743501.089     8291115.68549   6450294.31246  22743500.033    22743507.326
  22533267.284   -10413657.89449  -8098388.92046  22533267.114    22533274.695
 03  6  6 16 40 30.0000000  0 10G29G30G16G21G 6G18G17G15G10G26
  22884745.376    -6565712.78149  -5104842.00646  22884745.031    22884751.864
  23184936.498     9966118.79349   7756532.85246  23184936.623    23184944.191
  24056513.831    -3700038.93549  -2869942.59545  24056513.201    24056520.429
  21223791.687    -6401491.53949  -4787740.10247  21223790.995    21223796.009
  20260543.101    -3563133.52249  -2640952.16948  20260542.728    20260548.692
  22953628.812   -14220427.27749 -11059488.66546  22953628.234    22953635.321
  20864557.649    -3604425.74949  -2800080.98248  20864556.868    20864563.673
  23875535.961    -2733638.97849  -2103048.33745  23875535.121    23875543.971
  22761431.476     8385340.20149   6523715.97246  22761430.399    22761437.680
  22519011.790   -10488570.64349  -8156762.44146  22519011.623    22519019.188
 03  6  6 16 41  0.0000000  0 10G29G30G16G21G 6G18G17G15G10G26
  22879122.261    -6595261.98849  -5127867.32346  22879121.953    22879128.771
  23204248.027    10067601.44149   7835610.12646  23204248.183    23204255.841
  24044229.654    -3764592.68849  -2920244.32245  24044229.076    24044235.722
  21216315.662    -6440778.09149  -4818352.98747  21216315.001    21216320.011
  20259664.613    -3567749.94249  -2644549.38148  20259664.236    20259670.195
  22935075.200   -14317927.01849 -11135462.41046  22935074.578    22935081.647
  20861705.698    -3619412.83349  -2811759.22148  20861704.962    20861711.731
  23860669.287    -2811763.38949  -2163924.43545  23860668.453    23860677.407
  22779408.057     8479807.56949   6597326.88246  22779406.975    22779414.269
  22504827.091   -10563111.73849  -8214846.34146  22504826.893    22504834.481
 03  6  6 16 41 30.0000000  0 10G29G30G16G21G 6G18G17G15G10G26
  22873590.944    -6624329.18249  -5150517.03846  22873590.613    22873597.381
  23223583.135    10169207.62049   7914783.66446  23223583.297    23223591.016
  24032029.392    -3828704.13049  -2970201.17745  24032028.782    24032036.057
  21208878.223    -6479862.23649  -4848808.16047  21208877.550    21208882.547
  20258869.957    -3571925.97949  -2647803.44348  20258869.576    20258875.534
  22916568.128   -14415181.98249 -11211245.42646  22916567.581    22916574.588
  20858892.175    -3634197.94449  -2823280.08648  20858891.420    20858898.216
  23845820.925    -2889791.42549  -2224725.43745  23845820.132    23845828.945
  22797430.399     8574515.35649   6671125.11146  22797429.318    22797436.610
  22490713.738   -10637277.59049  -8272637.85046  22490713.533    22490721.049
 03  6  6 16 42  0.0000000  0 10G29G30G16G21G 6G18G17G15G10G26
  22868151.452    -6652913.19249  -5172790.24546  22868151.169    22868157.938
  23242941.012    10270933.58849   7994050.54846  23242941.166    23242948.921
  24019913.939    -3892372.04049  -3019812.60545  24019913.202    24019919.915
  21201479.223    -6518744.11449  -4879105.71147  21201478.572    21201483.561
  20258159.161    -3575661.23949  -2650714.03748  20258158.779    20258164.746
  22898107.880   -14512191.20649 -11286836.96046  22898107.291    22898114.253
  20856117.039    -3648781.53049  -2834643.91347  20856116.281    20856123.086
  23830990.983    -2967723.57149  -2285451.70345  23830990.149    23830999.020
  22815497.872     8669460.33249   6745108.16546  22815496.780    22815504.085
  22476672.398   -10711065.27649  -8330134.69946  22476672.233    22476679.678
 03  6  6 16 42 30.0000000  0 10G29G30G16G21G 6G18G17G15G10G26
  22862804.452    -6681011.97649  -5194685.35746  22862804.080    22862810.857
  23262321.256    10372776.81249   8073408.78346  23262321.400    23262329.143
  24007882.888    -3955594.08849  -3069076.56945  24007882.309    24007889.304
  21194118.815    -6557423.61349  -4909245.57147  21194118.137    21194123.119
  20257532.535    -3578954.20949  -2653279.98648  20257532.162    20257538.138
  22879694.844   -14608952.37249 -11362235.19946  22879694.267    22879701.164
  20853380.231    -3663163.35349  -2845850.52248  20853379.476    20853386.299
  23816179.390    -3045559.30649  -2346102.90045  23816178.553    23816187.292
  22833609.903     8764639.90449   6819274.02546  22833608.861    22833616.199
  22462703.771   -10784471.07749  -8387333.96946  22462703.554    22462710.916
 03  6  6 16 43  0.0000000  0 10G29G30G16G21G 6G18G17G15G10G26
  22857549.991    -6708624.38549  -5216201.47346  22857549.558    22857556.378
  23281723.127    10474733.85849   8152855.70646  23281723.248    23281731.059
  23995937.484    -4018368.71949  -3117991.75345  23995936.780    23995944.054
  21186796.673    -6595901.74249  -4939228.51947  21186795.966    21186800.965
  20256990.210    -3581804.09649  -2655500.68648  20256989.838    20256995.802
  22861329.202   -14705464.04049 -11437439.02946  22861328.642    22861335.515
  20850681.688    -3677344.15849  -2856900.49848  20850680.964    20850687.797
  23801385.942    -3123299.23949  -2406679.38545  23801385.154    23801393.973
  22851765.976     8860050.82849   6893620.14346  22851764.912    22851772.322
  22448808.317   -10857492.13349  -8444233.43846  22448808.053    22448815.407
 03  6  6 16 43 30.0000000  0 10G29G30G16G21G 6G18G17G15G10G26
  22852388.486    -6735747.66349  -5237336.45746  22852388.061    22852394.951
  23301146.324    10576802.85749   8232389.87446  23301146.401    23301154.224
  23984077.298    -4080693.24849  -3166556.40945  23984076.709    23984083.735
  21179513.090    -6634177.15949  -4969053.51047  21179512.369    21179517.380
  20256532.628    -3584208.74449  -2657374.43748  20256532.255    20256538.207
  22843011.503   -14801723.44349 -11512446.29246  22843011.043    22843017.882
  20848021.452    -3691323.81749  -2867793.73548  20848020.736    20848027.580
  23786610.962    -3200942.32549  -2467180.44945  23786610.092    23786618.947
  22869965.759     8955691.12449   6968145.01546  22869964.663    22869972.155
  22434986.795   -10930124.09449  -8500829.72346  22434986.582    22434993.931
 03  6  6 16 44  0.0000000  0 10G29G30G16G21G 6G18G17G15G10G26
  22847320.312    -6762380.68249  -5258089.41946  22847319.889    22847326.882
  23320590.134    10678980.35249   8312008.59746  23320590.291    23320598.044
  23972303.597    -4142565.96149  -3214768.86945  23972303.050    23972310.335
  21172267.943    -6672250.67149  -4998721.17647  21172267.214    21172272.214
  20256159.866    -3586167.49949  -2658900.74448  20256159.513    20256165.470
  22824742.218   -14897729.05249 -11587255.77846  22824741.720    22824748.609
  20845399.372    -3705102.79249  -2878530.59247  20845398.661    20845405.475
  23771854.292    -3278488.97849  -2527606.37045  23771853.359    23771862.226
  22888208.501     9051557.97349   7042846.40246  22888207.434    22888215.018
  22421239.917   -11002364.09649  -8557120.56546  22421239.719    22421247.050
 03  6  6 16 44 30.0000000  0 10G29G30G16G21G 6G18G17G15G10G26
  22842345.700    -6788521.74149  -5278459.03246  22842345.394    22842352.301
  23340054.048    10781263.42649   8391709.57846  23340054.196    23340061.958
  23960615.757    -4203985.00749  -3262627.92745  23960615.082    23960621.714
  21165061.205    -6710122.14549  -5028231.40847  21165060.503    21165065.494
  20255872.188    -3587679.36849  -2660078.82648  20255871.822    20255877.790
  22806521.600   -14993478.89249 -11661865.97246  22806521.074    22806527.929
  20842815.509    -3718681.30949  -2889111.25548  20842814.800    20842821.568
  23757115.902    -3355938.85049  -2587956.78145  23757115.071    23757123.995
  22906494.006     9147648.71549   7117722.25946  22906492.955    22906500.525
  22407568.287   -11074208.46849  -8613103.15246  22407568.124    22407575.484
 03  6  6 16 45  0.0000000  0 10G29G30G16G21G 6G18G17G15G10G26
  22837464.940    -6814169.84549  -5298444.54546  22837464.662    22837471.556
  23359537.507    10883648.39449   8471489.96646  23359537.529    23359545.304
  23949014.745    -4264949.27649  -3310132.41945  23949014.102    23949021.349
  21157892.865    -6747792.12149  -5057584.63847  21157892.146    21157897.120
  20255669.613    -3588744.04149  -2660908.44548  20255669.242    20255675.202
  22788349.824   -15088971.85449 -11736275.99346  22788349.284    22788356.130
  20840269.550    -3732060.47649  -2899536.57548  20840268.852    20840275.609
  23742396.191    -3433292.52849  -2648232.36245  23742395.362    23742404.006
  22924821.493     9243959.90049   7192769.89646  22924820.407    22924828.014
  22393972.461   -11145654.70449  -8668775.47646  22393972.336    22393979.663
 03  6  6 16 45 30.0000000  0 10G29G30G16G21G 6G18G17G15G10G26
  22832678.489    -6839322.99949  -5318044.37646  22832678.166    22832684.998
  23379039.781    10986132.85549   8551347.86346  23379039.777    23379047.580
  23937500.681    -4325456.42049  -3357280.90745  23937500.083    23937507.039
  21150762.844    -6785260.64749  -5086780.88447  21150762.162    21150767.109
  20255552.423    -3589359.90849  -2661388.34848  20255552.063    20255558.010
  22770227.458   -15184205.52749 -11810483.98746  22770226.880    22770233.686
  20837761.521    -3745240.16749  -2909806.46748  20837760.828    20837767.558
  23727694.634    -3510549.31549  -2708432.41745  23727693.819    23727702.426
  22943190.506     9340489.54549   7267987.75546  22943189.450    22943197.083
  22380453.157   -11216698.94849  -8724134.58346  22380453.015    22380460.313
 03  6  6 16 46  0.0000000  0 10G29G30G16G21G 6G18G17G15G10G26
  22827986.474    -6863979.36249  -5337257.09746  22827986.134    22827992.992
  23398560.402    11088714.16649   8631281.22746  23398560.444    23398568.236
  23926074.171    -4385504.20749  -3404071.40545  23926073.584    23926080.050
  21143671.363    -6822526.82249  -5115819.46247  21143670.661    21143675.569
  20255520.871    -3589525.66949  -2661517.51548  20255520.515    20255526.459
  22752154.762   -15279177.99049 -11884488.42646  22752154.162    22752160.960
  20835291.580    -3758219.83849  -2919920.49948  20835290.888    20835297.631
  23713011.492    -3587708.98149  -2768556.72845  23713010.735    23713019.426
  22961600.499     9437234.98849   7343373.77346  22961599.545    22961607.203
  22367010.909   -11287337.77249  -8779177.76346  22367010.780    22367018.130
 03  6  6 16 46 30.0000000  0 10G29G30G16G21G 6G18G17G15G10G26
  22823389.356    -6888136.98249  -5356081.19846  22823389.086    22823395.968
  23418098.959    11191389.54149   8711287.89046  23418098.968    23418106.859
  23914735.311    -4445090.70149  -3450502.38245  23914734.853    23914741.510
  21136618.339    -6859590.84049  -5144700.51547  21136617.614    21136622.526
  20255575.234    -3589239.97249  -2661294.90248  20255574.887    20255580.835
  22734132.148   -15373887.10049 -11958287.67446  22734131.539    22734138.345
  20832859.629    -3770999.81749  -2929878.92447  20832858.942    20832865.687
  23698347.024    -3664771.18849  -2828605.19045  23698346.297    23698354.878
  22980051.147     9534193.78149   7418926.03246  22980050.182    22980057.922
  22353646.648   -11357567.42349  -8833902.11946  22353646.483    22353653.826
 03  6  6 16 47  0.0000000  0 10G29G30G16G21G 6G18G17G15G10G26
  22818887.272    -6911795.22849  -5374516.17046  22818887.063    22818893.979
  23437654.789    11294155.35749   8791365.02746  23437654.759    23437662.702
  23903484.144    -4504214.78349  -3496573.10745  23903483.701    23903490.231
  21129603.674    -6896453.35149  -5173424.54447  21129602.950    21129607.843
  20255715.559    -3588502.70649  -2660720.41748  20255715.210    20255721.160
  22716159.929   -15468331.62249 -12031880.72746  22716159.280    22716166.102
  20830465.494    -3783580.97749  -2939682.42347  20830464.789    20830471.551
  23683700.937    -3741736.70449  -2888578.25645  23683700.155    23683708.747
  22998541.797     9631362.37049   7494641.77046  22998540.841    22998548.592
  22340360.712   -11427385.42649  -8888305.70146  22340360.510    22340367.847
 03  6  6 16 47 30.0000000  0 10G29G30G16G21G 6G18G17G15G10G26
  22814480.632    -6934952.33249  -5392560.65146  22814480.354    22814487.370
  23457227.236    11397008.95449   8871510.57746  23457227.279    23457235.190
  23892321.772    -4562874.11849  -3542281.54545  23892321.170    23892327.969
  21122627.353    -6933113.90249  -5201991.19947  21122626.650    21122631.544
  20255942.048    -3587312.58349  -2659793.05348  20255941.683    20255947.625
  22698238.404   -15562509.63349 -12105266.12246  22698237.777    22698244.524
  20828109.268    -3795963.17149  -2949330.88247  20828108.561    20828115.305
  23669073.421    -3818604.94449  -2948475.53545  23669072.613    23669081.305
  23017071.875     9728738.55149   7570519.27546  23017070.913    23017078.713
  22327153.742   -11496788.25449  -8942385.76346  22327153.573    22327160.865
 03  6  6 16 48  0.0000000  0 10G29G30G16G21G 6G18G17G15G10G26
  22810169.685    -6957606.53749  -5410213.23646  22810169.318    22810176.405
  23476815.897    11499947.73549   8951722.49445  23476815.919    23476823.977
  23881247.982    -4621066.79449  -3587626.48845  23881247.417    23881254.094
  21115689.423    -6969572.71549  -5230400.66447  21115688.773    21115693.650
  20256254.975    -3585668.21449  -2658511.73748  20256254.607    20256260.566
  22680367.852   -15656419.15749 -12178442.30046  22680367.299    22680374.036
  20825790.794    -3808146.69249  -2958824.53447  20825790.115    20825796.820
  23654464.319    -3895375.79349  -3008296.91945  23654463.535    23654472.223
  23035640.978     9826319.72349   7646556.51946  23035640.028    23035647.879
  22314026.458   -11565772.27049  -8996139.49446  22314026.281    22314033.599
 03  6  6 16 48 30.0000000  0 10G29G30G16G21G 6G18G17G15G10G26
  22805954.601    -6979756.52349  -5427472.94946  22805954.317    22805961.414
  23496420.195    11602968.28049   9031998.11845  23496420.196    23496428.205
  23870263.358    -4678791.47549  -3632606.76745  23870262.751    23870269.217
  21108789.880    -7005830.04249  -5258653.12647  21108789.239    21108794.120
  20256654.445    -3583568.91749  -2656875.92948  20256654.100    20256660.050
  22662548.803   -15750058.33449 -12251407.82646  22662548.344    22662555.067
  20823510.166    -3820131.57749  -2968163.40647  20823509.484    20823516.169
  23639873.823    -3972049.21749  -3068042.37745  23639872.996    23639881.620
  23054248.552     9924102.86649   7722751.13446  23054247.587    23054255.461
  22300979.409   -11634334.52749  -9049564.56346  22300979.243    22300986.571
 03  6  6 16 49  0.0000000  0 10G29G30G16G21G 6G18G17G15G10G26
  22801835.848    -7001401.01149  -5444338.75446  22801835.518    22801842.605
  23516039.482    11706067.87649   9112335.33845  23516039.384    23516047.431
  23859368.146    -4736046.41449  -3677220.93645  23859367.553    23859374.217
  21101928.782    -7041885.39749  -5286748.19747  21101928.119    21101933.025
  20257140.717    -3581013.72049  -2654884.87048  20257140.363    20257146.298
  22644781.623   -15843425.39449 -12324161.31446  22644781.145    22644787.841
  20821267.186    -3831918.55149  -2977348.06147  20821266.507    20821273.209
  23625301.809    -4048625.06849  -3127711.84145  23625300.954    23625309.711
  23072894.108    10022085.66749   7799101.33146  23072893.118    23072900.973
  22288013.304   -11702471.61849  -9102658.33346  22288013.130    22288020.429
 03  6  6 16 49 30.0000000  0 10G29G30G16G21G 6G18G17G15G10G26
  22797813.601    -7022538.57749  -5460809.56146  22797813.242    22797820.235
  23535673.237    11809243.62149   9192731.87545  23535673.163    23535681.257
  23848562.703    -4792829.66749  -3721467.64845  23848561.987    23848568.552
  21095106.055    -7077739.08449  -5314686.13147  21095105.382    21095110.278
  20257713.880    -3578001.78049  -2652537.91148  20257713.517    20257719.458
  22627066.517   -15936518.77949 -12396701.54146  22627066.038    22627072.695
  20819061.789    -3843507.83349  -2986378.67447  20819061.124    20819067.836
  23610748.417    -4125103.61149  -3187305.44745  23610747.620    23610756.315
  23091577.107    10120265.37049   7875604.95846  23091576.144    23091583.921
  22275128.673   -11770180.43449  -9155418.39246  22275128.520    22275135.804
 03  6  6 16 50  0.0000000  0 10G29G30G16G21G 6G18G17G15G10G26
  22793888.149    -7043167.32549  -5476883.90146  22793887.780    22793894.698
  23555320.954    11912492.76749   9273185.62445  23555320.911    23555329.058
  23837846.955    -4849139.25949  -3765345.25845  23837846.551    23837853.031
  21088321.701    -7113391.19349  -5342466.98847  21088321.029    21088325.913
  20258374.203    -3574531.81349  -2649834.05048  20258373.840    20258379.785
  22609403.956   -16029336.23749 -12469026.76746  22609403.426    22609410.055
  20816894.172    -3854898.78349  -2995254.74347  20816893.514    20816900.216
  23596213.580    -4201484.35249  -3246822.84445  23596212.752    23596221.540
  23110297.169    10218639.56949   7952260.14546  23110296.215    23110303.923
  22262326.174   -11837457.55549  -9207842.05946  22262326.102    22262333.351
 03  6  6 16 50 30.0000000  0 10G29G30G16G21G 6G18G17G15G10G26
  22790059.528    -7063286.26249  -5492560.97946  22790059.270    22790066.155
  23574981.973    12015812.41549   9353694.31545  23574982.109    23574990.284
  23827222.293    -4904973.49149  -3808852.46845  23827221.688    23827228.266
  21081575.719    -7148841.74249  -5370090.78847  21081575.029    21081579.913
  20259121.832    -3570602.97449  -2646772.62448  20259121.482    20259127.436
  22591794.105   -16121876.27549 -12541135.82346  22591793.587    22591800.214
  20814764.143    -3866092.33249  -3003976.99547  20814763.469    20814770.160
  23581697.445    -4277767.18949  -3306263.94945  23581696.651    23581705.279
  23129053.655    10317205.39349   8029064.65546  23129052.660    23129060.403
  22249606.527   -11904299.87849  -9259926.93046  22249606.408    22249613.603
 03  6  6 16 51  0.0000000  0 10G29G30G16G21G 6G18G17G15G10G26
  22786328.394    -7082893.96749  -5507839.69646  22786328.083    22786334.904
  23594656.009    12119199.25249   9434255.35245  23594656.019    23594664.250
  23816687.723    -4960331.11049  -3851988.20545  23816687.190    23816693.977
  21074868.047    -7184090.68249  -5397557.49047  21074867.373    21074872.262
  20259956.904    -3566214.59049  -2643353.11248  20259956.554    20259962.515
  22574237.447   -16214137.07549 -12613027.30146  22574236.871    22574243.497
  20812671.623    -3877088.63049  -3012545.54247  20812670.958    20812677.664
  23567199.758    -4353952.30449  -3365628.92345  23567199.037    23567207.747
  23147846.116    10415959.98949   8106016.24446  23147845.090    23147852.836
  22236970.168   -11970704.15849  -9311670.45546  22236970.066    22236977.248
 03  6  6 16 51 30.0000000  0 10G29G30G16G21G 6G18G17G15G10G26
  22782694.773    -7101989.19449  -5522719.09746  22782694.419    22782701.147
  23614342.273    12222650.48049   9514866.56445  23614342.231    23614350.432
  23806244.837    -5015210.30449  -3894751.26145  23806244.300    23806250.726
  21068198.696    -7219138.37049  -5424867.37447  21068198.010    21068202.890
  20260879.609    -3561365.81049  -2639574.85548  20260879.275    20260885.234
  22556734.129   -16306117.10349 -12684699.97246  22556733.579    22556740.218
  20810616.576    -3887888.07349  -3020960.69747  20810615.910    20810622.589
  23552720.775    -4430039.69249  -3424917.74645  23552720.081    23552728.739
  23166673.982    10514900.61449   8183112.80846  23166672.945    23166680.656
  22224417.718   -12036667.45449  -9363070.35746  22224417.636    22224424.802
 03  6  6 16 52  0.0000000  0 10G29G30G16G21G 6G18G17G15G10G26
  22779158.919    -7120570.97649  -5537198.38246  22779158.457    22779165.114
  23634040.217    12326163.08649   9595525.60545  23634040.184    23634048.403
  23795892.817    -5069609.72849  -3937140.35145  23795892.296    23795899.031
  21061567.686    -7253984.58749  -5452020.26947  21061567.001    21061571.868
  20261890.021    -3556055.96549  -2635437.32048  20261889.676    20261895.661
  22539284.644   -16397814.78549 -12756152.65346  22539284.029    22539290.686
  20808598.879    -3898491.19749  -3029222.87747  20808598.197    20808604.878
  23538260.260    -4506029.40249  -3484130.44945  23538259.632    23538268.340
  23185536.671    10614024.65949   8260352.27746  23185535.708    23185543.358
  22211949.823   -12102186.58749  -9414124.15646  22211949.727    22211956.899
 03  6  6 16 52 30.0000000  0 11G29G23G30G16G21G 6G18G17G15G10G26
  22775721.030    -7138636.95149  -5551275.75846  22775720.636    22775727.277
  24532387.801    -4164833.46459  -3216062.65445  24532387.182    24532398.041
  23653749.317    12429734.86449   9676230.75745  23653749.380    23653757.558
  23785632.985    -5123526.82449  -3979153.69045  23785632.350    23785638.947
  21054975.071    -7288628.82749  -5479015.77247  21054974.405    21054979.270
  20262988.540    -3550283.40149  -2630939.22748  20262988.185    20262994.191
  22521889.294   -16489227.63449 -12827383.38046  22521888.681    22521895.340
  20806618.673    -3908897.30049  -3037331.53048  20806617.978    20806624.683
  23523818.469    -4581920.77049  -3543266.51245  23523817.760    23523826.623
  23204433.956    10713330.22249   8337733.20246  23204432.925    23204440.590
  22199567.096   -12167257.57649  -9464828.76646  22199567.079    22199574.280
 03  6  6 16 53  0.0000000  0 11G29G23G30G16G21G 6G18G17G15G10G26
  22772380.598    -7156190.78249  -5564954.06246  22772380.269    22772386.860
  24513008.281    -4266672.69749  -3295417.82445  24513007.428    24513018.340
  23673468.338    12533358.34149   9756976.17745  23673468.378    23673476.652
  23775463.824    -5176964.90149  -4020793.72445  23775463.269    23775470.102
  21048420.008    -7323075.85549  -5505857.61247  21048419.372    21048424.228
  20264174.337    -3544052.01449  -2626083.61648  20264173.984    20264179.996
  22504547.645   -16580358.52649 -12898394.40946  22504546.996    22504553.622
  20804675.051    -3919111.06249  -3045290.30748  20804674.364    20804681.109
  23509394.749    -4657718.56649  -3602329.70545  23509394.026    23509402.777
  23223364.330    10812809.86249   8415249.76846  23223363.330    23223371.020
  22187269.489   -12231882.11349  -9515185.48146  22187269.443    22187276.638
 03  6  6 16 53 30.0000000  0 11G29G23G30G16G21G 6G18G17G15G10G26
  22769139.062    -7173224.78749  -5578227.29746  22769138.783    22769145.411
  24493658.523    -4368356.14849  -3374651.58145  24493657.665    24493668.220
  23693197.854    12637036.85649   9837764.48245  23693197.910    23693206.178
  23765387.922    -5229915.73049  -4062054.14246  23765387.385    23765394.032
  21041903.732    -7357319.36849  -5532540.86247  21041903.084    21041907.890
  20265448.864    -3537354.39049  -2620864.69948  20265448.512    20265454.500
  22487261.168   -16671199.50549 -12969179.52546  22487260.523    22487267.105
  20802769.286    -3929126.03549  -3053094.18248  20802768.613    20802775.333
  23494989.984    -4733415.90949  -3661314.59645  23494989.328    23494997.902
  23242328.598    10912467.57349   8492905.09246  23242327.592    23242335.230
  22175058.598   -12296050.67649  -9565186.90446  22175058.546    22175065.713
 03  6  6 16 54  0.0000000  0 11G29G23G30G16G21G 6G18G17G15G10G26
  22765996.734    -7189738.92049  -5591095.43646  22765996.249    22766002.869
  24474338.468    -4469883.02149  -3453763.24845  24474337.688    24474348.131
  23712936.977    12740766.36949   9918592.54145  23712937.115    23712945.342
  23755404.307    -5282379.03749  -4102934.60745  23755403.748    23755410.442
  21035425.963    -7391360.28449  -5559066.25047  21035425.298    21035430.127
  20266812.075    -3530190.91549  -2615282.78748  20266811.728    20266817.707
  22470029.942   -16761749.82449 -13039738.15746  22470029.342    22470035.886
  20800900.979    -3938944.06849  -3060744.60148  20800900.296    20800907.009
  23480604.055    -4809013.92249  -3720222.02645  23480603.396    23480612.138
  23261326.046    11012299.55849   8570696.21646  23261325.070    23261332.621
  22162934.828   -12359761.30849  -9614831.49246  22162934.759    22162941.938
 03  6  6 16 54 30.0000000  0 11G29G23G30G16G21G 6G18G17G15G10G26
  22762953.344    -7205732.26949  -5603557.79046  22762952.866    22762959.454
  24455048.580    -4571251.88649  -3532751.80945  24455047.843    24455058.262
  23732685.221    12844543.74249   9999457.88646  23732685.404    23732693.677
  23745513.921    -5334353.55549  -4143434.27245  23745513.503    23745519.864
  21028986.606    -7425199.33749  -5585434.33647  21028985.926    21028990.744
  20268263.948    -3522561.26949  -2609337.61748  20268263.593    20268269.588
  22452854.275   -16852008.21049 -13110069.30246  22452853.703    22452860.243
  20799070.043    -3948565.74549  -3068242.01347  20799069.374    20799076.059
  23466237.195    -4884512.72949  -3779052.26345  23466236.473    23466244.988
  23280355.986    11112302.69549   8648620.68646  23280355.035    23280362.611
  22150898.711   -12423011.17249  -9664117.05146  22150898.682    22150905.843
 03  6  6 16 55  0.0000000  0 11G29G23G30G16G21G 6G18G17G15G10G26
  22760009.206    -7221203.93149  -5615613.61146  22760008.664    22760015.294
  24435789.230    -4672460.99749  -3611615.92945  24435788.415    24435798.843
  23752442.113    12948365.81449  10080358.05846  23752442.206    23752450.504
  23735716.661    -5385838.08149  -4183551.99045  23735716.156    23735723.061
  21022585.745    -7458836.28249  -5611644.93147  21022585.047    21022589.893
  20269804.678    -3514464.80049  -2603028.69048  20269804.316    20269810.294
  22435734.397   -16941973.21149 -13180171.84146  22435733.895    22435740.400
  20797276.397    -3957991.41449  -3075586.68947  20797275.726    20797282.405
  23451889.154    -4959912.77449  -3837805.48146  23451888.555    23451896.999
  23299417.971    11212474.24549   8726676.40046  23299417.019    23299424.643
  22138950.811   -12485797.38249  -9713041.31046  22138950.823    22138957.935
 03  6  6 16 55 30.0000000  0 11G29G23G30G16G21G 6G18G17G15G10G26
  22757164.522    -7236152.90749  -5627262.14546  22757163.963    22757170.584
  24416560.265    -4773508.92549  -3690354.41045  24416559.558    24416570.001
  23772206.861    13052229.62549  10161290.74946  23772206.953    23772215.313
  23726013.210    -5436831.07549  -4223286.85645  23726012.713    23726019.008
  21016223.172    -7492271.56749  -5637698.39347  21016222.492    21016227.369
  20271434.364    -3505900.85849  -2596355.50348  20271433.998    20271439.985
  22418670.691   -17031643.33549 -13250044.62046  22418670.227    22418676.707
  20795519.959    -3967221.68849  -3082779.11147  20795519.311    20795525.966
  23437559.549    -5035214.03749  -3896481.75745  23437558.924    23437567.307
  23318511.508    11312811.17449   8804860.96646  23318510.532    23318518.162
  22127091.757   -12548117.13449  -9761602.09846  22127091.763    22127098.874
 03  6  6 16 56  0.0000000  0 11G29G23G30G16G21G 6G18G17G15G10G26
  22754419.266    -7250578.13949  -5638502.56946  22754418.864    22754425.543
  24397362.584    -4874393.73849  -3768965.80845  24397361.798    24397372.158
  23791978.979    13156132.13649  10242253.58845  23791979.055    23791987.392
  23716403.110    -5487331.11349  -4262637.48445  23716402.585    23716409.115
  21009899.022    -7525504.95449  -5663594.53247  21009898.380    21009903.265
  20273153.108    -3496868.89749  -2589317.62548  20273152.758    20273158.721
  22401663.474   -17121016.81349 -13319686.22946  22401662.991    22401669.423
  20793800.698    -3976256.45249  -3089819.19347  20793800.032    20793806.700
  23423249.082    -5110416.47549  -3955080.95745  23423248.254    23423256.965
  23337635.978    11413311.33049   8883172.73146  23337635.071    23337642.690
  22115322.062   -12609967.38949  -9809797.06046  22115321.981    22115329.140
 03  6  6 16 56 30.0000000  0 11G29G23G30G16G21G 6G18G17G15G10G26
  22751774.251    -7264478.44049  -5649333.95846  22751773.715    22751780.410
  24378196.040    -4975113.63449  -3847448.70245  24378195.337    24378205.668
  23811758.028    13260070.74649  10323244.57445  23811758.102    23811766.468
  23706887.801    -5537336.55449  -4301602.77445  23706887.284    23706893.686
  21003613.331    -7558536.39849  -5689333.30947  21003612.682    21003617.545
  20274961.065    -3487368.05349  -2581914.37848  20274960.727    20274966.695
  22384712.958   -17210091.93649 -13389095.35746  22384712.476    22384718.938
  20792118.580    -3985095.96749  -3096707.12747  20792117.926    20792124.599
  23408957.406    -5185519.85849  -4013603.07945  23408956.648    23408965.005
  23356791.121    11513972.09749   8961609.64146  23356790.260    23356797.846
  22103642.271   -12671344.87149  -9857623.62146  22103642.197    22103649.390
 03  6  6 16 57  0.0000000  0 11G29G23G30G16G21G 6G18G17G15G10G26
  22749229.294    -7277852.72749  -5659755.46346  22749228.677    22749235.407
  24359061.230    -5075666.56349  -3925801.45345  24359060.553    24359071.263
  23831543.343    13364042.48649  10404261.38945  23831543.406    23831551.713
  23697465.999    -5586846.03549  -4340181.58945  23697465.456    23697471.831
  20997366.098    -7591365.97149  -5714914.78447  20997365.446    20997370.295
  20276858.354    -3477397.66749  -2574145.25648  20276858.023    20276863.996
  22367819.628   -17298867.12149 -13458270.75846  22367819.111    22367825.532
  20790473.595    -3993740.47449  -3103443.10347  20790472.915    20790479.613
  23394684.424    -5260524.23349  -4072047.95046  23394683.737    23394692.120
  23375976.364    11614790.76549   9040169.60446  23375975.478    23375983.055
  22092053.052   -12732246.64349  -9905079.48546  22092052.930    22092060.142
 03  6  6 16 57 30.0000000  0 11G29G23G30G16G21G 6G18G17G15G10G26
  22746784.424    -7290700.32149  -5669766.56346  22746783.889    22746790.601
  24339958.375    -5176051.42749  -4004023.27445  24339957.649    24339968.503
  23851334.211    13468044.04649  10485301.41645  23851334.295    23851342.728
  23688139.174    -5635858.55849  -4378373.11145  23688138.772    23688145.390
  20991157.183    -7623994.13649  -5740339.32247  20991156.515    20991161.383
  20278845.070    -3466957.47349  -2566010.04948  20278844.738    20278850.714
  22350983.503   -17387341.31749 -13527211.63146  22350982.967    22350989.389
  20788865.547    -4002190.85049  -3110027.81148  20788864.878    20788871.585
  23380430.265    -5335430.06849  -4130416.09845  23380429.535    23380437.855
  23395191.149    11715764.59349   9118850.47546  23395190.197    23395197.802
  22080554.765   -12792670.22049  -9952162.76346  22080554.640    22080561.854
 03  6  6 16 58  0.0000000  0 11G29G23G30G16G21G 6G18G17G15G10G26
  22744440.173    -7303019.61049  -5679365.98546  22744439.552    22744446.306
  24320888.097    -5276265.72149  -4082112.18445  24320887.520    24320898.056
  23871130.340    13572073.24949  10566362.98045  23871130.471    23871138.963
  23678907.745    -5684372.02549  -4416175.85845  23678907.273    23678913.504
  20984986.684    -7656420.28449  -5765606.43847  20984986.007    20984990.891
  20280921.467    -3456046.06049  -2557507.66148  20280921.140    20280927.104
  22334205.095   -17475511.86049 -13595915.89546  22334204.592    22334211.028
  20787294.623    -4010446.05349  -3116460.44047  20787293.956    20787300.672
  23366195.126    -5410236.51549  -4188706.75145  23366194.251    23366202.747
  23414435.088    11816891.44249   9197650.57246  23414434.075    23414441.665
  22069148.063   -12852611.91949  -9998870.52146  22069148.017    22069155.281
 03  6  6 16 58 30.0000000  0 11G29G23G30G16G21G 6G18G17G15G10G26
  22742196.477    -7314810.29549  -5688553.50546  22742195.855    22742202.631
  24301850.463    -5376308.30049  -4160067.31145  24301849.950    24301860.636
  23890931.104    13676126.49549  10647443.27845  23890931.272    23890939.833
  23669770.956    -5732385.63449  -4453589.06445  23669770.450    23669776.794
  20978854.409    -7688645.29049  -5790716.82247  20978853.772    20978858.644
  20283087.554    -3444663.37649  -2548638.04548  20283087.221    20283093.169
  22317484.628   -17563378.19749 -13664383.10946  22317484.157    22317490.584
  20785760.713    -4018506.83949  -3122741.57847  20785760.048    20785766.751
  23351978.807    -5484944.17949  -4246920.45946  23351977.932    23351986.464
  23433707.374    11918167.92349   9276567.24346  23433706.362    23433713.916
  22057833.694   -12912069.34449 -10045200.93646  22057833.679    22057840.852
 03  6  6 16 59  0.0000000  0 11G29G23G30G16G21G 6G18G17G15G10G26
  22740053.460    -7326070.62649  -5697327.76846  22740053.019    22740059.833
  24282846.142    -5476176.73349  -4237886.72145  24282845.516    24282856.263
  23910736.050    13780201.66349  10728540.64245  23910736.201    23910744.904
  23660729.859    -5779897.22849  -4490611.06345  23660729.359    23660736.077
  20972760.674    -7720668.16049  -5815669.70147  20972760.020    20972764.894
  20285343.501    -3432808.25049  -2539400.29848  20285343.169    20285349.119
  22300822.602   -17650938.00549 -13732611.47946  22300822.032    22300828.440
  20784263.826    -4026373.08449  -3128871.12147  20784263.164    20784269.840
  23337781.158    -5559552.43349  -4305056.76245  23337780.450    23337788.647
  23453007.898    12019592.22649   9355599.14446  23453006.901    23453014.341
  22046612.120   -12971039.12849 -10091151.37946  22046612.098    22046619.185
 03  6  6 16 59 30.0000000  0 11G29G23G30G16G21G 6G18G17G15G10G26
  22738011.625    -7336799.78949  -5705688.14746  22738011.352    22738018.148
  24263875.270    -5575869.06749  -4315568.96745  24263874.468    24263885.201
  23930544.580    13884295.97649  10809652.95845  23930544.748    23930553.499
  23651783.851    -5826905.58549  -4527240.89045  23651783.579    23651790.403
  20966705.392    -7752488.98549  -5840465.14147  20966704.722    20966709.603
  20287689.518    -3420479.91649  -2529793.81648  20287689.195    20287695.129
  22284219.146   -17738189.35749 -13800599.49246  22284218.596    22284224.963
  20782803.988    -4034044.66249  -3134848.97547  20782803.335    20782809.991
  23323602.618    -5634061.15049  -4363115.39046  23323601.857    23323610.465
  23472336.028    12121161.96849   9434744.35346  23472335.001    23472342.438
  22035484.025   -13029517.98749 -10136719.27946  22035483.952    22035491.000
 03  6  6 17  0  0.0000000  0 11G29G23G30G16G21G 6G18G17G15G10G26
  22736071.207    -7346997.15049  -5713634.10746  22736070.885    22736077.609
  24244938.016    -5675384.11749  -4393113.00745  24244937.309    24244947.951
  23950356.091    13988406.06249  10890777.54345  23950356.313    23950365.151
  23642934.881    -5873409.77149  -4563477.95145  23642934.297    23642940.599
  20960688.481    -7784107.89349  -5865103.24047  20960687.838    20960692.733
  20290125.609    -3407678.31249  -2519818.55148  20290125.269    20290131.221
  22267674.596   -17825131.32349 -13868346.41446  22267674.070    22267680.412
  20781381.009    -4041522.67649  -3140676.00147  20781380.320    20781386.991
  23309442.952    -5708470.60249  -4421096.80145  23309442.140    23309450.485
  23491691.258    12222874.11149   9514000.53046  23491690.222    23491697.711
  22024449.705   -13087503.50349 -10181902.75446  22024449.601    22024456.673
 03  6  6 17  0 30.0000000  0 11G29G23G30G16G21G 6G18G17G15G10G26
  22734232.406    -7356661.58149  -5721164.80946  22734231.749    22734238.437
  24226034.882    -5774719.92049  -4470517.42745  24226034.136    24226044.845
  23970170.086    14092529.40949  10971912.45445  23970170.406    23970179.290
  23634181.322    -5919408.22749  -4599320.85445  23634180.936    23634187.721
  20954709.988    -7815525.07149  -5889584.14547  20954709.367    20954714.233
  20292651.881    -3394402.57749  -2509473.83248  20292651.550    20292657.476
  22251189.284   -17911762.16749 -13935850.91346  22251188.733    22251195.075
  20779994.890    -4048806.64449  -3146351.82747  20779994.209    20780000.899
  23295302.177    -5782780.40449  -4479000.47245  23295301.468    23295309.996
  23511072.993    12324726.50549   9593365.96646  23511072.044    23511079.653
  22013509.869   -13144992.60849 -10226699.42946  22013509.794    22013516.749
 03  6  6 17  3  0.0000000  0 11G18G30G17G16G15G 6G29G26G23G10G21
  22337300.305     -304050.68049   -213464.12646  22337300.349    22337306.707
  24236899.021      169518.39849    122442.30945  24236898.414    24236908.722
  20941256.646     -105056.13249    -73685.35447  20941256.120    20941262.785
  23759507.951     -199897.71249   -139891.27945  23759507.435    23759513.422
  23392524.103     -276852.13249   -193265.77145  23392522.173    23392530.247
  20474280.287      -54278.33549    -38200.71748  20474279.751    20474285.737
                   -106329.16249    -75645.06943
  22127885.859     -226634.03249   -160319.44646  22127886.533    22127893.085
                   -247981.17849   -174391.94843
  23776005.506      142846.65949     98325.87145  23776003.365    23776012.379
                   -162505.73949   -116415.54644
 03  6  6 17  3 29.9990000  0 11G18G30G17G16G15G 6G29G26G23G10G21
  22014654.882     -424141.85949   -307041.62147  22014655.331    22014661.671
  23950195.454      238302.08549    176039.82045  23950195.895    23950205.375
  20633569.832     -146539.09149   -106009.73447  20633569.707    20633576.408
  23444817.134     -278194.93149   -200902.12745  23444816.042    23444822.205
  23071972.824     -385922.94249   -278255.93146  23071974.365    23071982.449
  20170828.652      -73505.70149    -53183.08948  20170828.476    20170834.470
                   -148138.34349     -6736.28044                  22586461.219
  21811003.252     -316444.69349   -230301.73046  21811003.577    21811010.229
  23974466.863     -381564.55749   -278482.81145  23974466.872    23974480.196
  23489015.980      210127.25649    150752.26445  23489014.843    23489022.817
                   -228071.16849   -167505.49745
 03  6  6 17  4  0.0000000  0 11G18G30G17G16G15G 6G29G26G23G10G21
  22137474.729    -1354139.55649  -1031715.09847  22137475.095    22137481.410
  24108895.815     -503146.15249   -401712.21245  24108895.839    24108905.007
  20771323.876     -998056.56449   -769529.84347  20771323.742    20771330.471
  23575624.511    -1166205.64949   -892858.40745  23575624.395    23575632.402
  23196848.899    -1305122.05949   -994514.94646  23196849.117    23196857.191
  20312872.293     -902482.13549   -699138.76148  20312872.011    20312877.993
  22724212.666     -999636.23649   -670241.12246  22724212.105    22724218.492
  21939622.540    -1215967.16349   -931228.28746  21939622.526    21939629.221
  24094699.952    -1325185.50249  -1013771.70745  24094695.489    24094707.316
  23647454.086     -532694.91849   -428070.26345  23647452.809    23647460.823
                  -1103662.20349   -675870.22247                  20913941.523
 03  6  6 17  4 30.0000000  0 11G18G30G17G16G15G 6G29G26G23G10G21
  22121474.221    -1438224.92949  -1097236.10647  22121474.152    22121480.489
  24128710.807     -399018.01749   -320573.55345  24128710.911    24128720.003
  20770232.483    -1003793.48749   -774000.17247  20770232.088    20770238.800
  23567650.736    -1208112.10049   -925512.93645  23567650.414    23567656.756
  23182860.598    -1378631.99649  -1051795.42146  23182860.659    23182868.670
  20316124.238     -885393.06849   -685822.61448  20316123.930    20316129.918
  22723190.350    -1005007.26849   -674426.32146  22723189.973    22723196.355
  21929458.078    -1269382.13449   -972850.30146  21929458.022    21929464.659
  24076080.735    -1423024.07749  -1090009.42945  24076078.408    24076088.966
  23667032.042     -429811.31349   -347901.25945  23667030.995    23667038.880
  20908266.369    -1133463.07049   -699091.65947  20908265.639    20908270.597
 03  6  6 17  5  0.0000000  0 11G18G30G17G16G15G 6G29G26G23G10G21
  22105535.260    -1521985.26849  -1162503.85147  22105535.057    22105541.391
  24148523.577     -294901.82249   -239444.20745  24148523.655    24148532.810
  20769177.589    -1009337.61549   -778320.27247  20769177.078    20769183.790
  23559774.445    -1249501.94649   -957764.68245  23559773.978    23559781.084
  23168891.246    -1452041.63049  -1108997.62946  23168891.061    23168899.362
  20319467.348     -867825.14349   -672133.33048  20319467.016    20319473.006
  22722271.125    -1009838.26249   -678190.71946  22722270.699    22722277.061
  21919392.794    -1322275.37149  -1014065.76746  21919392.720    21919399.336
  24057498.975    -1520667.65649  -1166095.21045  24057497.671    24057507.809
  23686632.333     -326809.96649   -267640.51645  23686631.496    23686639.276
  20902633.870    -1163061.96149   -722155.71947  20902633.148    20902638.095
 03  6  6 17  5 30.0000000  0 11G18G30G17G16G15G 6G29G26G23G10G21
  22089658.536    -1605418.56749  -1227516.77147  22089658.218    22089664.528
  24168333.602     -190799.72449   -158325.84145  24168333.780    24168342.903
  20768159.351    -1014688.69249   -782489.94547  20768158.813    20768165.520
  23551996.520    -1290373.16449   -989612.33345  23551996.201    23552003.761
  23154941.188    -1525350.29949  -1166121.23046  23154940.808    23154949.134
  20322901.731     -849777.48049   -658070.23348  20322901.408    20322907.374
  22721454.687    -1014127.88249   -681533.26846  22721454.364    22721460.807
  21909427.395    -1374643.46149  -1054872.02946  21909427.359    21909433.949
  24038955.192    -1618114.17149  -1242027.42545  24038954.218    24038964.269
  23706255.042     -223692.80949   -187289.52545  23706254.131    23706261.855
  20897039.980    -1192457.95949   -745061.68347  20897039.301    20897044.223
 03  6  6 17  6  0.0000000  0 11G18G30G17G16G15G 6G29G26G23G10G21
  22073844.130    -1688523.70149  -1292273.96547  22073843.796    22073850.124
  24188140.385      -86714.86749    -77220.90745  24188140.539    24188149.644
  20767177.817    -1019846.97549   -786509.38247  20767177.232    20767183.939
  23544318.084    -1330724.88249  -1021055.29445  23544317.579    23544324.373
  23141010.302    -1598557.91249  -1223166.07846  23141009.832    23141018.067
  20326427.458     -831249.73749   -643633.03748  20326427.127    20326433.116
  22720741.443    -1017875.75649   -684453.68046  22720741.158    22720747.602
  21899562.468    -1426483.99449  -1095267.21146  21899562.438    21899568.968
  24020449.370    -1715362.10649  -1317804.90545  24020448.450    24020458.537
  23725899.150     -120462.62149   -106850.46745  23725898.192    23725905.917
  20891484.669    -1221651.13349   -767809.59647  20891484.026    20891488.920
 03  6  6 17  6 30.0000000  0 11G18G30G17G16G15G 6G29G26G23G10G21
  22058092.609    -1771298.69549  -1356773.90747  22058092.211    22058098.553
  24207943.512       17350.43749      3868.78345  24207943.629    24207952.831
  20766233.010    -1024812.20549   -790378.39747  20766232.406    20766239.113
  23536738.487    -1370555.70849  -1052092.31145  23536738.165    23536744.897
  23127098.709    -1671664.28649  -1280132.01246  23127098.164    23127106.488
  20330044.656     -812241.14649   -628821.16048  20330044.333    20330050.338
  22720131.539    -1021080.89049   -686951.16846  22720131.151    22720137.688
  21889798.525    -1477793.84049  -1135248.85846  21889798.458    21889805.017
  24001981.668    -1812409.45849  -1393426.10045  24001980.945    24001991.102
  23745564.289      -17121.39649    -26324.90945  23745563.269    23745571.087
  20885968.022    -1250641.17349   -790399.23247  20885967.386    20885972.283
 03  6  6 17  7  0.0000000  0 11G18G30G17G16G15G 6G29G26G23G10G21
  22042403.953    -1853743.05649  -1421016.21647  22042403.532    22042409.855
  24227742.085      121392.61149     84940.45545  24227742.272    24227751.481
  20765324.759    -1029585.26149   -794097.65547  20765324.135    20765330.824
  23529258.119    -1409865.44049  -1082723.18246  23529257.862    23529265.157
  23113206.239    -1744670.01549  -1337019.57946  23113205.670    23113213.763
  20333753.321     -792752.18249   -613634.96248  20333752.996    20333759.009
  22719624.831    -1023743.45749   -689025.88446  22719624.491    22719630.995
  21880135.785    -1528571.32149  -1174815.68446  21880135.737    21880142.376
  23983552.481    -1909255.24949  -1468890.24945  23983551.732    23983561.593
  23765250.039       86327.93349     54284.91645  23765249.040    23765256.927
  20880489.876    -1279428.95649   -812831.25647  20880489.258    20880494.148
 03  6  6 17  7 30.0000000  0 11G18G30G17G16G15G 6G29G26G23G10G21
  22026778.634    -1935854.45749  -1484999.08047  22026778.229    22026784.537
  24247536.031      225409.89649    165992.73145  24247536.329    24247545.536
  20764453.218    -1034165.39049   -797666.58647  20764452.579    20764459.266
  23521877.061    -1448652.21249  -1112946.62645  23521876.663    23521883.525
  23099332.951    -1817574.16049  -1393827.94246  23099332.275    23099340.558
  20337553.611     -772781.65249   -598073.52348  20337553.285    20337559.297
  22719221.742    -1025862.09349   -690676.75646  22719221.350    22719227.813
  21870575.164    -1578812.69049  -1213964.76046  21870575.086    21870581.738
  23965162.077    -2005897.06449  -1544195.41445  23965161.424    23965171.328
  23784956.076      189883.61749    134977.59545  23784955.028    23784962.908
  20875050.454    -1308013.26949   -835104.73647  20875049.844    20875054.753
 03  6  6 17  8  0.0000000  0 11G18G30G17G16G15G 6G29G26G23G10G21
  22011216.881    -2017632.00449  -1548721.78847  22011216.452    22011222.759
  24267324.737      329398.77649    247022.87445  24267324.801    24267334.158
  20763618.176    -1038553.43749   -801085.83547  20763617.537    20763624.219
  23514596.192    -1486915.22949  -1142762.05745  23514595.705    23514601.855
  23085479.034    -1890377.22249  -1450557.57246  23085478.456    23085486.583
  20341445.456     -752329.82349   -582137.04548  20341445.140    20341451.150
  22718921.975    -1027436.94849   -691903.90946  22718921.688    22718928.112
  21861116.861    -1628516.09449  -1252694.63846  21861116.784    21861123.502
  23946810.727    -2102333.77349  -1619340.80145  23946810.039    23946819.790
  23804681.727      293542.46849    215750.68045  23804680.722    23804688.606
  20869649.654    -1336394.70249   -857220.12447  20869649.033    20869653.948
 03  6  6 17  8 30.0000000  0 11G18G30G17G16G15G 6G29G26G23G10G21
  21995718.999    -2099073.82449  -1612182.89547  21995718.521    21995724.829
  24287107.435      433356.88849    328029.04245  24287107.584    24287116.841
  20762819.870    -1042748.67549   -804354.84747  20762819.229    20762825.929
  23507414.929    -1524653.21849  -1172168.23946  23507414.556    23507421.086
  23071644.406    -1963078.78549  -1507208.12046  23071643.853    23071651.588
  20345429.076     -731395.73949   -565824.78448  20345428.753    20345434.793
  22718726.051    -1028466.91049   -692706.46046  22718725.733    22718732.149
  21851761.474    -1677678.57349  -1291003.02846  21851761.371    21851768.123
  23928498.756    -2198563.27349  -1694324.71045  23928498.106    23928507.955
  23824426.742      397302.79049    296602.81945  23824425.673    23824433.678
  20864287.494    -1364572.96949   -879177.20447  20864286.885    20864291.756
 03  6  6 17  9  0.0000000  0 11G18G30G17G16G15G 6G29G26G23G10G21
  21980285.268    -2180178.78049  -1675381.51147  21980284.726    21980291.018
  24306883.783      537281.53749    409009.12445  24306883.904    24306893.301
  20762058.114    -1046751.73549   -807474.10747  20762057.467    20762064.173
  23500333.204    -1561865.74849  -1201164.94645  23500332.917    23500339.953
  23057829.108    -2035679.05249  -1563779.65146  23057828.458    23057836.384
  20349504.484     -709979.42449   -549136.75648  20349504.161    20349510.218
  22718633.859    -1028951.71249   -693084.21446  22718633.477    22718639.867
  21842509.452    -1726297.60149  -1328887.93446  21842509.405    21842516.195
  23910226.256    -2294584.23449  -1769146.10345  23910225.726    23910235.791
  23844190.599      501161.95049    377531.97645  23844189.521    23844197.445
  20858963.992    -1392548.31449   -900976.16347  20858963.380    20858968.225
 03  6  6 17  9 30.0000000  0 11G18G30G17G16G15G 6G29G26G23G10G21
  21964915.773    -2260946.01649  -1738316.98347  21964915.205    21964921.492
  24326653.023      641169.25749    489960.42045  24326653.158    24326662.604
  20761332.810    -1050563.31049   -810444.15747  20761332.149    20761338.838
  23493352.498    -1598552.10449  -1229751.75545  23493351.931    23493358.248
  23044032.848    -2108178.33349  -1620272.50846  23044032.288    23044040.496
  20353671.601     -688081.00049   -532073.05548  20353671.267    20353677.342
  22718645.380    -1028891.55149   -693037.32946  22718644.980    22718651.316
  21833361.287    -1774371.28449  -1366347.89946  21833361.259    21833368.084
  23891993.930    -2390395.61649  -1843804.22245  23891993.298    23892003.235
  23863972.656      605116.98949    458535.84145  23863971.576    23863979.570
  20853678.926    -1420321.54749   -922617.63147  20853678.309    20853683.141
 03  6  6 17 10  0.0000000  0 11G18G30G17G16G15G 6G29G26G23G10G21
  21949610.979    -2341373.06049  -1800987.34547  21949610.421    21949616.692
  24346414.897      745018.40749    570881.66845  24346414.987    24346424.595
  20760644.183    -1054182.02549   -813263.93247  20760643.526    20760650.182
  23486471.837    -1634710.20549  -1257926.91545  23486471.316    23486477.664
  23030256.166    -2180575.51449  -1676685.87946  23030255.476    23030263.498
  20357930.714     -665699.22049   -514632.71848  20357930.378    20357936.450
  22718760.872    -1028284.57949   -692564.34246  22718760.469    22718766.780
  21824317.613    -1821896.00949  -1403380.12246  21824317.549    21824324.429
  23873802.036    -2485994.56849  -1918296.85545  23873801.310    23873811.305
  23883772.743      709166.60849    539613.41745  23883771.729    23883779.607
  20848432.678    -1447890.79449   -944100.14947  20848432.041    20848436.878
 03  6  6 17 10 30.0000000  0 11G18G30G17G16G15G 6G29G26G23G10G21
  21934371.168    -2421458.32149  -1863391.39147  21934370.651    21934376.968
  24366169.127      848826.46649    651770.92345  24366169.132    24366178.784
  20759992.265    -1057607.84949   -815933.40147  20759991.607    20759998.268
  23479691.450    -1670339.08149  -1285689.65145  23479691.217    23479698.067
  23016498.833    -2252870.26449  -1733019.38646  23016498.090    23016506.114
  20362281.867     -642833.70649   -496815.44648  20362281.556    20362287.630
  22718980.458    -1027130.43249   -691665.00146  22718980.088    22718986.418
  21815378.931    -1868869.13849  -1439982.51946  21815378.858    21815385.725
  23855650.760    -2581379.57149  -1992622.77545  23855650.117    23855660.006
  23903590.332      813308.83049    620763.15045  23903589.389    23903597.209
  20843225.236    -1475256.02249   -965423.68947  20843224.616    20843229.449
 03  6  6 17 11  0.0000000  0 11G18G30G17G16G15G 6G29G26G23G10G21
  21919196.499    -2501201.39749  -1925528.79347  21919195.976    21919202.295
  24385914.597      952589.88949    732625.37445  24385914.693    24385924.454
  20759376.814    -1060842.10749   -818453.59247  20759376.143    20759382.842
  23473012.421    -1705438.50249  -1313039.80645  23473011.972    23473018.904
  23002760.910    -2325063.31149  -1789273.65246  23002760.231    23002768.426
  20366725.020     -619484.88449   -478621.56748  20366724.710    20366730.789
  22719304.118    -1025429.61349   -690339.67246  22719303.733    22719310.049
  21806545.535    -1915288.86049  -1476153.69446  21806545.443    21806552.340
  23837540.363    -2676549.62549  -2066781.15445  23837539.825    23837549.823
  23923425.042      917540.21549    701982.35845  23923424.068    23923431.870
  20838056.477    -1502417.93349   -986588.80147  20838055.874    20838060.708
 03  6  6 17 11 30.0000000  0 11G18G30G17G16G15G 6G29G26G23G10G21
  21904087.377    -2580600.20549  -1987397.94347  21904086.866    21904093.163
  24405651.295     1056306.95649    813443.68945  24405651.569    24405661.422
  20758797.899    -1063884.08149   -820823.95447  20758797.234    20758803.957
  23466433.959    -1740007.11749  -1339976.36945  23466433.447    23466440.072
  22989042.539    -2397153.54149  -1845447.84546  22989041.948    22989049.836
  20371260.278     -595651.93749   -460050.45048  20371259.970    20371266.053
  22719731.935    -1023180.80449   -688587.33446  22719731.687    22719737.967
  21797817.986    -1961151.94149  -1511891.13046  21797817.945    21797824.831
  23819471.366    -2771502.29849  -2140770.14645  23819470.824    23819480.976
  23943276.263     1021859.35349    783269.94445  23943275.336    23943283.168
  20832926.566    -1529375.64249  -1007594.79847  20832925.946    20832930.793
 03  6  6 17 12  0.0000000  0 11G18G30G17G16G15G 6G29G26G23G10G21
  21889043.866    -2659654.17049  -2048998.38347  21889043.361    21889049.626
  24425378.533     1159973.80949    894222.91245  24425378.762    24425388.767
  20758255.530    -1066734.22149   -823044.83247  20758254.889    20758261.585
  23459957.305    -1774044.89149  -1366499.36645  23459956.959    23459962.796
  22975343.691    -2469141.69049  -1901542.46446  22975343.032    22975350.834
  20375887.581     -571335.52049   -441102.60048  20375887.237    20375893.332
  22720264.042    -1020384.59149   -686408.45446  22720263.799    22720270.026
  21789196.765    -2006456.93149  -1547193.68846  21789196.683    21789203.572
  23801443.895    -2866237.08549  -2214589.37245  23801443.304    23801453.415
  23963143.604     1126262.96049    864623.35745  23963142.692    23963150.628
  20827835.406    -1556130.05649  -1028442.37947  20827834.770    20827839.595
 03  6  6 17 12 30.0000000  0 11G18G30G17G16G15G 6G29G26G23G10G21
  21874066.250    -2738361.66949  -2110328.84947  21874065.789    21874072.008
  24445095.797     1263588.30749    974961.32245  24445096.012    24445106.216
  20757749.758    -1069392.15649   -825115.94247  20757749.109    20757755.791
  23453581.378    -1807550.57449  -1392607.61245  23453580.784    23453587.464
  22961664.179    -2541027.42749  -1957557.22746  22961663.540    22961671.721
  20380606.968     -546534.99549   -421777.52648  20380606.640    20380612.716
  22720900.411    -1017040.14249   -683802.38546  22720900.148    22720906.414
  21780682.251    -2051200.88149  -1582059.06446  21780682.217    21780689.061
  23783458.163    -2960751.91949  -2288237.19145  23783457.574    23783467.816
  23983026.694     1230749.24249    946041.19345  23983025.847    23983033.817
  20822783.031    -1582680.41049  -1049130.95347  20822782.398    20822787.208
 03  6  6 17 13  0.0000000  0 11G18G30G17G16G15G 6G29G26G23G10G21
  21859154.882    -2816721.34549  -2171388.28847  21859154.393    21859160.603
  24464802.659     1367147.67649   1055656.76745  24464802.809    24464812.981
  20757280.499    -1071858.28749   -827037.60047  20757279.844    20757286.501
  23447306.575    -1840523.30249  -1418300.63945  23447306.157    23447313.114
  22948004.426    -2612810.76849  -2013492.27346  22948003.698    22948011.673
  20385418.509     -521250.27549   -402075.16548  20385418.189    20385424.257
  22721641.114    -1013147.29249   -680768.98346  22721640.856    22721647.150
  21772274.998    -2095381.57949  -1616485.56546  21772274.948    21772281.770
  23765514.763    -3055045.35649  -2361712.52645  23765514.127    23765524.315
  24002924.992     1335315.59449   1027521.39445  24002924.241    24002932.247
  20817769.497    -1609026.72649  -1069660.54447  20817768.849    20817773.652
 03  6  6 17 13 30.0000000  0 11G18G30G17G16G15G 6G29G26G23G10G21
  21844310.178    -2894730.69049  -2232174.73847  21844309.689    21844315.865
  24484498.702     1470650.71849   1136308.32045  24484498.874    24484509.131
  20756847.997    -1074131.07349   -828808.59747  20756847.334    20756853.984
  23441134.068    -1872960.79749  -1443576.62445  23441133.611    23441139.910
  22934364.200    -2684489.98549  -2069346.18746  22934363.481    22934371.364
  20390322.483     -495479.72949   -381994.23148  20390322.174    20390328.248
  22722486.501    -1008704.33849   -677306.93646  22722486.270    22722492.576
  21763975.697    -2138995.08149  -1650470.08646  21763975.573    21763982.374
  23747613.917    -3149114.28449  -2435012.89845  23747613.229    23747623.494
  24022838.373     1439961.18149   1109063.33145  24022837.606    24022845.805
  20812795.048    -1635167.60549  -1090030.04947  20812794.402    20812799.213
 03  6  6 17 14  0.0000000  0 11G18G30G17G16G15G 6G29G26G23G10G21
  21829531.927    -2972390.82049  -2292689.07247  21829531.420    21829537.595
  24504183.099     1574092.24149   1216911.94845  24504183.357    24504193.462
  20756451.797    -1076213.05049   -830430.90947  20756451.138    20756457.784
  23435063.014    -1904865.18949  -1468437.21345  23435062.553    23435068.317
  22920743.360    -2756067.61749  -2125120.87746  22920742.649    22920750.773
  20395318.450     -469225.77549   -361536.62148  20395318.125    20395324.204
  22723436.192    -1003713.72349   -673418.12646  22723435.893    22723442.286
  21755784.121    -2182041.71549  -1684012.88146  21755784.044    21755790.866
  23729755.561    -3242959.77949  -2508139.16545  23729755.112    23729765.201
  24042765.860     1544680.99949   1190663.11845  24042765.030    24042773.437
  20807859.241    -1661105.52949  -1110241.40347  20807858.589    20807863.403
 03  6  6 17 14 30.0000000  0 11G18G30G17G16G15G 6G29G26G23G10G21
  21814820.618    -3049699.21349  -2352929.33447  21814820.084    21814826.261
  24523855.527     1677470.80449   1297466.51945  24523855.847    24523865.803
  20756092.050    -1078103.39449   -831903.90347  20756091.407    20756098.074
  23429093.326    -1936234.30449  -1492880.65145  23429092.836    23429099.334
  22907142.229    -2827542.30249  -2180815.37546  22907141.375    22907149.463
  20400406.685     -442486.91849   -340701.16548  20400406.362    20400412.432
  22724490.451     -998173.66449   -669101.19346  22724490.113    22724496.535
  21747701.146    -2224517.78349  -1717111.09946  21747701.110    21747707.933
  23711940.360    -3336578.86649  -2581089.01645  23711939.927    23711949.870
  24062707.245     1649474.20249   1272320.08045  24062706.475    24062715.006
  20802962.262    -1686839.13849  -1130293.55747  20802961.629    20802966.453
 03  6  6 17 15  0.0000000  0 11G18G30G17G16G15G 6G29G26G23G10G21
  21800176.656    -3126653.45049  -2412893.61547  21800176.132    21800182.301
  24543515.742     1780785.08149   1377970.99545  24543516.077    24543525.975
  20755769.099    -1079800.54749   -833226.35147  20755768.451    20755775.131
  23423226.224    -1967065.85649  -1516905.22146  23423225.848    23423232.752
  22893560.828    -2898912.57949  -2236428.57046  22893560.038    22893567.910
  20405587.474     -415261.69549   -319486.71648  20405587.146    20405593.235
  22725649.552     -992082.77149   -664355.04046  22725649.230    22725655.604
  21739727.472    -2266419.81849  -1749762.01046  21739727.450    21739734.239
  23694168.873    -3429968.77349  -2653860.25445  23694168.279    23694178.444
  24082662.560     1754339.92349   1354033.53945  24082661.741    24082670.317
  20798104.487    -1712366.96149  -1150185.35847  20798103.852    20798108.655
 03  6  6 17 15 30.0000000  0 11G18G30G17G16G15G 6G29G26G23G10G21
  21785600.088    -3203253.64849  -2472582.03847  21785599.563    21785605.733
  24563163.007     1884030.63949   1458421.92445  24563163.185    24563172.917
  20755482.567    -1081306.22249   -834399.60747  20755481.909    20755488.602
  23417461.639    -1997361.10649  -1540511.92146  23417461.030    23417467.782
  22879998.902    -2970180.18149  -2291961.71546  22879998.207    22880006.132
  20410860.479     -387551.91849   -297894.69948  20410860.146    20410866.253
  22726913.204     -985442.55849   -659180.84246  22726912.836    22726919.235
  21731863.204    -2307747.11549  -1781965.07846  21731863.085    21731869.881
  23676441.008    -3523129.74549  -2726453.12645  23676440.291    23676450.349
  24102630.906     1859274.12749   1435800.40245  24102630.046    24102638.619
  20793285.531    -1737690.61249  -1169918.06147  20793284.889    20793289.690
 03  6  6 17 16  0.0000000  0 11G18G30G17G16G15G 6G29G26G23G10G21
  21771090.954    -3279499.20249  -2531994.09647  21771090.478    21771096.626
  24582796.597     1987204.61849   1538817.10145  24582796.684    24582806.495
  20755232.371    -1082621.16449   -835424.21647  20755231.712    20755238.394
  23411798.882    -2027119.56349  -1563700.33645  23411798.270    23411804.495
  22866456.678    -3041345.25049  -2347414.93746  22866455.961    22866464.066
  20416225.623     -359357.81249   -275925.27448  20416225.301    20416231.396
  22728281.337     -978253.26349   -653578.78046  22728280.998    22728287.342
  21724108.571    -2348497.68849  -1813718.73146  21724108.522    21724115.287
  23658756.805    -3616060.61449  -2798866.67445  23658756.103    23658766.231
  24122611.909     1964274.16449   1517618.54645  24122611.034    24122619.464
  20788505.468    -1762810.03749  -1189491.62547  20788504.838    20788509.621
 03  6  6 17 16 30.0000000  0 11G18G30G17G16G15G 6G29G26G23G10G21
  21756649.949    -3355387.32449  -2591127.64447  21756649.415    21756655.533
  24602416.365     2090305.94249   1619155.64145  24602416.442    24602426.130
  20755018.725    -1083743.68749   -836298.89747  20755018.050    20755024.763
  23406238.041    -2056339.13449  -1586468.83145  23406237.678    23406243.596
  22852934.263    -3112406.12849  -2402786.99446  22852933.513    22852941.577
  20421683.258     -330677.81149   -253577.23648  20421682.963    20421689.064
  22729754.249     -970513.14249   -647547.51246  22729753.909    22729760.236
  21716464.399    -2388667.93249  -1845020.18946  21716464.374    21716471.107
  23641116.879    -3708758.34349  -2871098.56245  23641116.246    23641126.297
  24142605.294     2069339.40849   1599487.52145  24142604.382    24142612.839
  20783764.516    -1787723.95549  -1208905.05747  20783763.890    20783768.676
 03  6  6 17 17  0.0000000  0 11G18G30G17G16G15G 6G29G26G23G10G21
  21742277.053    -3430917.21149  -2649982.04747  21742276.515    21742282.629
  24622021.477     2193331.20349   1699434.93545  24622021.689    24622031.232
  20754841.636    -1084674.04849   -837023.84747  20754840.993    20754847.686
  23400780.382    -2085019.64149  -1608817.23645  23400779.898    23400786.458
  22839431.613    -3183363.13449  -2458078.15746  22839430.832    22839438.717
  20427233.236     -301512.51349   -230851.04748  20427232.921    20427239.022
  22731331.844     -962222.56849   -641087.30746  22731331.527    22731337.885
  21708931.015    -2428256.09749  -1875868.07246  21708930.980    21708937.670
  23623521.627    -3801222.08849  -2943148.08345  23623520.918    23623531.052
  24162610.540     2174466.92649   1681405.02245  24162609.663    24162617.966
  20779062.521    -1812432.85549  -1228158.73647  20779061.905    20779066.689
 03  6  6 17 17 30.0000000  0 11G18G30G17G16G15G 6G29G26G23G10G21
  21727972.621    -3506087.07649  -2708555.91147  21727972.118    21727978.215
  24641611.654     2296278.46049   1779653.44145  24641612.097    24641621.606
  20754701.206    -1085411.91349   -837598.79447  20754700.560    20754707.276
  23395425.755    -2113160.14949  -1630744.91646  23395425.403    23395431.720
  22825948.745    -3254215.59849  -2513287.82846  22825948.235    22825955.914
  20432875.706     -271861.15849   -207746.10548  20432875.385    20432881.499
  22733014.306     -953381.05649   -634197.81146  22733014.002    22733020.376
  21701508.906    -2467259.60049  -1906260.37446  21701508.858    21701515.531
  23605971.130    -3893449.65249  -3015013.61445  23605970.596    23605980.530
  24182627.264     2279655.15649   1763369.84745  24182626.336    24182634.554
  20774399.777    -1836935.69149  -1247251.84147  20774399.163    20774403.939
 03  6  6 17 18  0.0000000  0 11G18G30G17G16G15G 6G29G26G23G10G21
  21713736.834    -3580896.55949  -2766848.95847  21713736.323    21713742.388
  24661186.669     2399144.64249   1859808.77845  24661186.906    24661196.511
  20754597.327    -1085957.80849   -838024.16047  20754596.682    20754603.386
  23390173.695    -2140760.71449  -1652251.83946  23390173.131    23390179.788
  22812485.654    -3324964.07849  -2568416.45646  22812485.175    22812492.857
  20438610.549     -241724.44149   -184262.95448  20438610.235    20438616.351
  22734801.548     -943989.00449   -626879.32046  22734801.285    22734807.548
  21694198.330    -2505676.71249  -1936195.74746  21694198.269    21694204.959
  23588465.797    -3985440.30349  -3086694.55945  23588465.396    23588475.136
  24202655.062     2384901.28049   1845379.74645  24202654.101    24202662.298
  20769776.180    -1861232.93449  -1266184.75047  20769775.554    20769780.326
 03  6  6 17 18 30.0000000  0 11G18G30G17G16G15G 6G29G26G23G10G21
  21699569.860    -3655344.12349  -2824859.99247  21699569.381    21699575.447
  24680745.575     2501927.16049   1939898.91345  24680745.885    24680755.586
  20754530.041    -1086311.43849   -838299.70747  20754529.408    20754536.095
  23385023.615    -2167820.58049  -1673337.42945  23385023.305    23385030.200
  22799042.439    -3395608.29449  -2623463.84346  22799041.983    22799049.513
  20444437.762     -211102.27249   -160401.52948  20444437.460    20444443.562
  22736693.611     -934046.42349   -619131.85546  22736693.305    22736699.491
  21686999.821    -2543505.22149  -1965672.45847  21686999.723    21687006.426
  23571005.874    -4077192.43849  -3158189.58045  23571005.352    23571015.061
  24222693.443     2490203.09849   1927433.02045  24222692.429    24222700.660
  20765191.705    -1885324.56049  -1284957.43647  20765191.067    20765195.844
 03  6  6 17 19  0.0000000  0 11G18G30G17G16G15G 6G29G26G23G10G21
  21685472.207    -3729427.45449  -2882587.20847  21685471.720    21685477.784
  24700288.322     2604624.52549   2019922.69245  24700288.585    24700298.398
  20754499.517    -1086471.71149   -838424.59347  20754498.899    20754505.573
  23379977.644    -2194338.05849  -1694000.40045  23379977.338    23379983.733
  22785619.273    -3466146.78149  -2678428.81546  22785618.784    22785626.496
  20450357.535     -179993.68949   -136161.08648  20450357.222    20450363.338
  22738690.665     -923552.02649   -610954.40346  22738690.292    22738696.472
  21679913.925    -2580741.90649  -1994688.01447  21679913.778    21679920.470
  23553591.828    -4168703.37849  -3229496.70845  23553591.308    23553600.944
  24242742.207     2595559.71749   2009529.03745  24242741.299    24242749.522
  20760646.624    -1909209.01349  -1303568.68947  20760645.994    20760650.747
 03  6  6 17 19 30.0000000  0 11G18G30G17G16G15G 6G29G26G23G10G21
  21671443.697    -3803147.59149  -2940031.42147  21671443.222    21671449.280
  24719813.927     2707231.98049   2099876.43845  24719814.279    24719823.973
  20754505.385    -1086440.91649   -838400.59347  20754504.755    20754511.421
  23375035.066    -2220314.56949  -1714241.86246  23375034.549    23375040.564
  22772215.829    -3536581.63549  -2733313.01246  22772215.272    22772223.347
  20456369.507     -148400.74349   -111543.21948  20456369.190    20456375.322
  22740792.191     -912508.00949   -602348.67746  22740791.848    22740798.076
  21672940.661    -2617386.79049  -2023242.42147  21672940.516    21672947.158
  23536223.591    -4259973.78549  -3300616.38545  23536223.042    23536232.609
  24262800.622     2700966.66049   2091664.24645  24262799.604    24262807.897
  20756140.513    -1932888.59849  -1322020.30647  20756139.893    20756144.657
 03  6  6 17 20  0.0000000  0 11G18G30G17G16G15G 6G29G26G23G10G21
  21657484.761    -3876502.18949  -2997190.79947  21657484.276    21657490.318
  24739322.313     2809748.41849   2179759.25745  24739322.703    24739332.411
  20754547.912    -1086217.38249   -838226.40547  20754547.286    20754553.968
  23370195.564    -2245748.45849  -1734060.50446  23370195.020    23370201.143
  22758832.443    -3606911.32849  -2788115.33846  22758831.937    22758839.818
  20462473.848     -116322.22149    -86546.97848  20462473.554    20462479.663
  22742998.558     -900913.10949   -593313.68346  22742998.240    22743004.494
  21666080.652    -2653436.41349  -2051332.99247  21666080.495    21666087.114
  23518901.458    -4351000.87149  -3371546.43645  23518901.003    23518910.721
  24282868.368     2806423.14849   2173838.10445  24282867.420    24282875.605
  20751673.761    -1956361.59049  -1340310.93447  20751673.126    20751677.906
 03  6  6 17 20 30.0000000  0 11G18G30G17G16G15G 6G29G26G23G10G21
  21643595.599    -3949490.15449  -3054064.48747  21643595.081    21643601.118
  24758812.740     2912171.30749   2259569.16545  24758813.121    24758822.974
  20754627.011    -1085801.63149   -837902.44547  20754626.401    20754633.064
  23365458.400    -2270639.52549  -1753456.06046  23365458.019    23365465.056
  22745469.390    -3677135.54749  -2842835.49046  22745468.798    22745476.406
  20468670.595      -83758.13449    -61172.38348  20468670.294    20468676.415
  22745309.916     -888767.05049   -583849.23446  22745309.580    22745315.831
  21659334.159    -2688888.89749  -2078958.25347  21659334.085    21659340.715
  23501626.247    -4441783.08849  -3442285.71545  23501625.614    23501635.231
  24302945.079     2911927.29649   2256049.06745  24302944.162    24302952.437
  20747246.350    -1979627.92449  -1358440.54047  20747245.701    20747250.482
 03  6  6 17 21  0.0000000  0 11G18G30G17G16G15G 6G29G26G23G10G21
  21629776.361    -4022110.21049  -3110651.49247  21629775.878    21629781.919
  24778285.001     3014497.99249   2339304.11645  24778285.341    24778295.458
  20754742.799    -1085193.29349   -837428.40947  20754742.191    20754748.833
  23360825.547    -2294986.72149  -1772427.85446  23360825.108    23360832.478
  22732126.168    -3747254.44249  -2897473.50746  22732125.566    22732133.292
  20474959.711      -50708.69249    -35419.58248  20474959.411    20474965.558
  22747726.010     -876070.25149   -573955.62746  22747725.707    22747731.983
  21652701.776    -2723742.10849  -2106116.53747  21652701.677    21652708.365
  23484397.812    -4532318.95349  -3512833.05545  23484397.201    23484406.750
  24323030.461     3017476.58149   2338295.20345  24323029.666    24323037.781
  20742858.224    -2002687.61849  -1376409.12347  20742857.569    20742862.342
 03  6  6 17 21 30.0000000  0 11G18G30G17G16G15G 6G29G26G23G10G21
  21616027.279    -4094361.95849  -3166951.50747  21616026.796    21616032.815
  24797738.350     3116725.36849   2418961.67845  24797738.633    24797748.776
  20754895.105    -1084392.92349   -836804.74147  20754894.485    20754901.111
  23356295.999    -2318790.54149  -1790976.33946  23356295.622    23356301.788
  22718802.855    -3817268.43549  -2952029.79446  22718802.299    22718810.050
  20481341.033      -17174.61349     -9289.14548  20481340.733    20481346.865
  22750246.891     -862823.21049   -563633.25646  22750246.592    22750252.822
  21646183.599    -2757994.72849  -2132806.83847  21646183.559    21646190.272
  23467216.345    -4622607.84449  -3583187.90345  23467215.704    23467225.178
  24343123.938     3123068.31749   2420574.43945  24343123.077    24343131.212
  20738509.386    -2025540.85449  -1394216.83147  20738508.749    20738513.521
 03  6  6 17 22  0.0000000  0 10G18G17G16G15G 6G29G26G23G10G21
  21602349.374    -4166239.75149  -3222960.12247  21602348.895    21602354.904
  20755084.811    -1083395.98549   -836027.90147  20755084.184    20755090.800
  23351870.689    -2342046.03549  -1809097.53445  23351870.237    23351875.302
  22705500.355    -3887172.79749  -3006500.67546  22705499.907    22705507.728
  20487815.454       16848.52549     17222.37848  20487815.161    20487821.296
  22752873.212     -849021.78849   -552878.89746  22752872.904    22752879.167
  21639781.074    -2791640.28449  -2159024.09847  21639781.012    21639787.728
  23450082.984    -4712643.77449  -3653345.64145  23450082.306    23450091.875
  24363225.929     3228704.83849   2502888.55145  24363225.090    24363233.152
  20734200.761    -2048182.55949  -1411859.71147  20734200.132    20734204.918
 03  6  6 17 22 30.0000000  0 10G18G17G16G15G 6G29G26G23G10G21
  21588741.893    -4237747.44049  -3278680.35347  21588741.395    21588747.368
  20755310.952    -1082207.61049   -835101.89247  20755310.338    20755316.941
  23347548.656    -2364757.81749  -1826795.03445  23347548.149    23347553.358
  22692218.029    -3956972.38849  -3060889.92246  22692217.484    22692225.145
  20494381.918       51355.51849     44110.93248  20494381.625    20494387.762
  22755604.053     -834670.95949   -541696.42646  22755603.813    22755610.014
  21633493.448    -2824681.83649  -2184770.70947  21633493.364    21633500.057
  23432997.132    -4802430.47049  -3723309.20945  23432996.434    23433005.950
  24383335.071     3334379.09749   2585232.05045  24383334.259    24383342.500
  20729931.388    -2070618.12749  -1429341.96447  20729930.768    20729935.538
 03  6  6 17 23  0.0000000  0 10G18G17G16G15G 6G29G26G23G10G21
  21575205.180    -4308883.32749  -3334110.86847  21575204.677    21575210.613
  20755573.606    -1080827.21949   -834026.26147  20755573.016    20755579.614
  23343329.990    -2386924.84349  -1844068.04246  23343329.718    23343335.254
  22678955.693    -4026666.52749  -3115197.00246  22678955.055    22678962.734
  20501040.528       86346.72349     71376.79548  20501040.225    20501046.397
  22758439.591     -819770.43849   -530085.62146  22758439.370    22758445.460
  21627321.241    -2857116.95849  -2210044.76947  21627321.117    21627327.820
  23415958.909    -4891965.96349  -3793076.99745  23415958.279    23415967.791
  24403451.111     3440089.51749   2667603.74445  24403450.323    24403458.428
  20725701.466    -2092846.46249  -1446662.73847  20725700.846    20725705.631
 03  6  6 17 23 30.0000000  0 10G18G17G16G15G 6G29G26G23G10G21
  21561739.342    -4379646.60949  -3389251.03747  21561738.849    21561744.762
  20755872.896    -1079254.46549   -832800.73047  20755872.279    20755878.922
  23339215.466    -2408547.29849  -1860916.66246  23339214.889    23339221.189
  22665713.470    -4096255.04449  -3169421.75446  22665712.814    22665720.523
  20507791.248      121822.00849     99019.86448  20507790.952    20507797.125
  22761379.622     -804320.31149   -518046.54846  22761379.425    22761385.481
  21621264.762    -2888943.66049  -2234844.74747  21621264.660    21621271.340
  23398968.890    -4981248.76649  -3862647.90345  23398968.262    23398977.745
  24423573.611     3545833.98449   2750001.95745  24423572.892    24423580.962
  20721510.935    -2114867.81849  -1463822.22647  20721510.337    20721515.116
 03  6  6 17 24  0.0000000  0 10G18G17G16G15G 6G29G26G23G10G21
  21548344.692    -4450035.53449  -3444099.50247  21548344.212    21548350.123
  20756208.823    -1077489.08549   -831425.10747  20756208.196    20756214.853
  23335203.941    -2429623.90849  -1877339.96745  23335203.614    23335210.681
  22652491.493    -4165737.22149  -3223563.67346  22652490.737    22652498.433
  20514634.100      157781.33849    127040.10148  20514633.814    20514639.985
  22764424.299     -788320.63249   -505579.26446  22764424.127    22764430.150
  21615324.384    -2920159.92849  -2259169.06247  21615324.372    21615331.011
  23382027.334    -5070277.36449  -3932020.74046  23382026.580    23382036.089
  24443702.366     3651610.74049   2832425.37445  24443701.638    24443709.604
  20717360.014    -2136681.20949  -1480819.66947  20717359.391    20717364.178
 03  6  6 17 24 30.0000000  0 10G18G17G16G15G 6G29G26G23G10G21
  21535021.529    -4520048.95449  -3498655.36747  21535021.055    21535026.993
  20756581.447    -1075530.93349   -829899.27247  20756580.808    20756587.474
  23331297.156    -2450154.47249  -1893337.85045  23331296.641    23331303.140
  22639289.631    -4235112.67949  -3277622.42346  22639288.987    22639296.624
  20521569.114      194224.92449    155437.68448  20521568.814    20521574.984
  22767573.512     -771771.28649   -492683.66946  22767573.327    22767579.433
  21609500.619    -2950763.67949  -2283016.09047  21609500.654    21609507.284
  23365134.305    -5159049.94349  -4001194.05946  23365133.635    23365143.125
  24463836.763     3757417.90649   2914872.44645  24463835.989    24463844.061
  20713248.703    -2158286.28649  -1497654.78747  20713248.087    20713252.841
 03  6  6 17 25  0.0000000  0 10G18G17G16G15G 6G29G26G23G10G21
  21521769.931    -4589686.40049  -3552918.27147  21521769.459    21521775.390
  20756990.659    -1073380.46149   -828223.58347  20756990.035    20756996.690
  23327494.197    -2470139.26649  -1908910.40145  23327493.812    23327499.960
  22626108.168    -4304381.61149  -3331598.16946  22626107.522    22626115.186
  20528596.094      231151.91049    184211.94348  20528595.789    20528601.975
  22770827.239     -754672.80049   -479360.17446  22770827.034    22770833.218
  21603793.640    -2980753.45349  -2306384.69847  21603793.735    21603800.366
  23348290.227    -5247565.62149  -4070167.20446  23348289.606    23348299.024
  24483976.511     3863253.15449   2997341.40945  24483975.617    24483983.824
  20709176.923    -2179683.68749  -1514328.08547  20709176.296    20709181.074
 03  6  6 17 25 30.0000000  0 10G18G17G16G15G 6G29G26G23G10G21
  21508590.361    -4658945.14049  -3606886.06447  21508589.923    21508595.830
  20757436.919    -1071035.47149   -826396.31047  20757436.296    20757442.952
  23323795.903    -2489576.14449  -1924056.03645  23323795.322    23323801.204
  22612947.160    -4373542.15049  -3385489.44746  22612946.603    22612954.323
  20535715.387      268563.96349    213364.18748  20535715.090    20535721.277
  22774185.773     -737024.02049   -465607.87646  22774185.450    22774191.699
  21598204.282    -3010125.73549  -2329272.14047  21598204.354    21598210.943
  23331495.718    -5335821.29649  -4138937.74046  23331495.012    23331504.420
  24504121.589     3969116.06449   3079831.91845  24504120.610    24504128.964
  20705145.056    -2200871.12649  -1530837.76547  20705144.447    20705149.205
 03  6  6 17 26  0.0000000  0 10G18G17G16G15G 6G29G26G23G10G21
  21495482.596    -4727826.87849  -3660560.10347  21495482.117    21495488.014
  20757919.645    -1068498.62349   -824419.55047  20757919.022    20757925.697
  23320201.329    -2508467.44149  -1938776.54346  23320200.791    23320206.617
  22599806.466    -4442596.76449  -3439298.17846  22599805.900    22599813.730
  20542926.445      306458.24649    242892.18948  20542926.138    20542932.309
  22777648.336     -718827.64849   -451428.87346  22777648.052    22777654.398
  21592732.277    -3038881.21649  -2351678.96647  21592732.323    21592738.921
  23314750.269    -5423818.18849  -4207506.63146  23314749.695    23314759.079
  24524270.834     4075002.06349   3162340.41945  24524269.911    24524278.555
  20701152.742    -2221850.90649  -1547185.63447  20701152.131    20701156.899
 03  6  6 17 26 30.0000000  0 10G18G17G16G15G 6G29G26G23G10G21
  21482446.947    -4796329.37049  -3713938.62047  21482446.502    21482452.394
  20758439.121    -1065768.64049   -822292.29247  20758438.482    20758445.202
  23316710.208    -2526812.02649  -1953070.99146  23316709.668    23316716.174
  22586686.131    -4511544.16249  -3493023.38846  22586685.612    22586693.382
  20550229.359      344835.36649    272796.42448  20550229.053    20550235.249
  22781215.340     -700082.92749   -436822.59346  22781215.063    22781221.405
  21587378.169    -3067017.34649  -2373603.18047  21587378.149    21587384.734
  23298054.647    -5511553.88949  -4275871.97646  23298054.023    23298063.448
  24544424.311     4180910.12149   3244866.10945  24544423.599    24544432.253
  20697200.170    -2242621.83849  -1563370.76748  20697199.577    20697204.318
 03  6  6 17 27  0.0000000  0 10G18G17G16G15G 6G29G26G23G10G21
  21469483.773    -4864451.03149  -3767020.39247  21469483.346    21469489.219
  20758995.463    -1062844.90149   -820014.05547  20758994.837    20759001.565
  23313323.549    -2544609.00449  -1966938.76646  23313323.122    23313329.793
  22573586.536    -4580383.30349  -3546664.21946  22573585.892    22573593.656
  20557624.254      383695.77849    303077.24448  20557623.963    20557630.143
  22784886.590     -680789.62449   -421788.84746  22784886.382    22784892.801
  21582142.307    -3094531.74749  -2395042.94247  21582142.284    21582148.895
  23281409.134    -5599026.48549  -4344032.36146  23281408.497    23281417.830
  24564581.919     4286838.72149   3327407.80945  24564581.214    24564589.842
  20693287.497    -2263183.07349  -1579392.50048  20693286.906    20693291.633
 03  6  6 17 27 30.0000000  0 10G18G17G16G15G 6G29G26G23G10G21
  21456593.265    -4932190.83149  -3819804.60747  21456592.850    21456598.709
  20759588.730    -1059727.34449   -817584.79047  20759588.106    20759594.818
  23310041.122    -2561858.30649  -1980379.74946  23310040.644    23310047.752
  22560507.500    -4649114.08249  -3600220.64146  22560506.857    22560514.515
  20565111.020      423039.11349    333734.36948  20565110.730    20565116.918
  22788662.213     -660948.28449   -406328.04946  22788662.008    22788668.464
  21577025.050    -3121422.74349  -2415996.92647  21577025.036    21577031.651
  23264813.862    -5686234.71449  -4411986.69746  23264813.196    23264822.510
  24584743.095     4392786.01249   3409964.07445  24584742.257    24584751.065
  20689414.723    -2283534.47449  -1595250.72748  20689414.127    20689418.882
 03  6  6 17 28  0.0000000  0 10G18G17G16G15G 6G29G26G23G10G21
  21443775.653    -4999547.98549  -3872290.64847  21443775.193    21443781.065
  20760218.921    -1056415.63749   -815004.23247  20760218.320    20760225.007
  23306863.032    -2578559.75449  -1993393.87746  23306862.525    23306869.645
  22547449.046    -4717736.48649  -3653692.59546  22547448.387    22547456.013
  20572689.646      462864.93949    364767.46548  20572689.364    20572695.528
  22792542.136     -640559.10649   -390440.36646  22792541.862    22792548.416
  21572026.754    -3147688.68349  -2436463.85547  21572026.797    21572033.364
  23248269.131    -5773177.17049  -4479733.94846  23248268.538    23248277.833
  24604907.437     4498749.99149   3492533.33545  24604906.557    24604915.490
  20685582.009    -2303675.56849  -1610945.07248  20685581.420    20685586.178
 03  6  6 17 28 30.0000000  0 10G18G17G16G15G 6G29G26G23G10G21
  21431030.959    -5066521.61349  -3924477.84547  21431030.516    21431036.369
  20760886.001    -1052910.10949   -812272.65547  20760885.398    20760892.085
  23303789.039    -2594713.48849  -2005981.20846  23303788.503    23303795.521
  22534411.182    -4786250.42849  -3707080.01946  22534410.572    22534418.204
  20580359.972      503172.63749    396176.05148  20580359.683    20580365.846
  22796526.119     -619622.86949   -374126.39846  22796525.923    22796532.440
  21567147.726    -3173328.23849  -2456442.69547  21567147.734    21567154.279
  23231775.278    -5859852.84949  -4547273.29546  23231774.588    23231783.840
  24625074.525     4604728.24049   3575113.74445  24625073.715    24625082.462
  20681789.243    -2323606.48949  -1626475.65048  20681788.646    20681793.419
 03  6  6 17 29  0.0000000  0 10G18G17G16G15G 6G29G26G23G10G21
  21418359.482    -5133110.65549  -3976365.36347  21418359.029    21418364.849
  20761589.968    -1049210.60949   -809389.92747  20761589.371    20761596.051
  23300819.369    -2610319.28749  -2018141.58146  23300818.889    23300825.587
  22521394.139    -4854655.54549  -3760382.68646  22521393.514    22521401.105
  20588121.951      543962.08249    427960.02548  20588121.660    20588127.829
  22800614.296     -598139.76349   -357386.31746  22800614.053    22800620.586
  21562388.123    -3198339.78149  -2475932.17847  21562388.129    21562394.663
  23215332.352    -5946260.29149  -4614603.64646  23215331.721    23215340.904
  24645244.127     4710719.09849   3657703.95545  24645243.282    24645251.976
  20678036.603    -2343326.76549  -1641842.08748  20678036.014    20678040.788
 03  6  6 17 29 30.0000000  0 10G18G17G16G15G 6G29G26G23G10G21
  21405761.304    -5199314.48349  -4027952.71347  21405760.850    21405766.642
  20762330.940    -1045316.87349   -806355.84247  20762330.338    20762337.022
  23297953.578    -2625377.17049  -2029874.99545  23297953.044    23297959.689
  22508397.688    -4922951.68149  -3813600.39546  22508397.141    22508404.743
  20595975.505      585232.68349    460118.92648  20595975.213    20595981.388
  22804806.368     -576110.43449   -340220.58946  22804806.091    22804812.624
  21557748.426    -3222721.70049  -2494931.04447  21557748.371    21557754.877
  23198940.766    -6032398.32049  -4681724.07546  23198940.059    23198949.267
  24665415.804     4816720.45249   3740302.32845  24665414.689    24665423.445
  20674324.024    -2362836.48449  -1657044.45648  20674323.434    20674328.212
 03  6  6 17 30  0.0000000  0 10G18G17G16G15G 6G29G26G23G10G21
  21393236.610    -5265131.95449  -4079239.00347  21393236.131    21393241.936
  20763108.900    -1041228.77549   -803170.30747  20763108.299    20763114.993
  23295192.032    -2639887.06449  -2041181.42045  23295191.785    23295198.154
  22495422.230    -4991138.44049  -3866732.88246  22495421.594    22495429.195
  20603920.528      626984.11949    492652.49448  20603920.263    20603926.421
  22809102.231     -553535.27449   -322629.54546  22809102.017    22809108.600
  21553228.774    -3246472.50549  -2513438.14047  21553228.750    21553235.152
  23182600.658    -6118265.53449  -4748633.48946  23182599.990    23182609.131
  24685589.043     4922730.47749   3822907.43345  24685587.783    24685596.560
  20670651.581    -2382135.21449  -1672082.41248  20670650.996    20670655.774
 03  6  6 17 30 30.0000000  0 10G18G17G16G15G 6G29G26G23G10G21
  21380785.623    -5330562.14349  -4130223.52247  21380785.161    21380790.946
  20763923.866    -1036946.14849   -799833.19547  20763923.265    20763929.959
  23292535.457    -2653848.84749  -2052060.70145  23292535.044    23292541.569
  22482467.588    -5059215.44149  -3919779.84746  22482466.932    22482474.558
  20611956.982      669215.94249    525560.38948  20611956.709    20611962.862
  22813501.904     -530414.78749   -304613.58746  22813501.711    22813508.284
  21548829.567    -3269590.59749  -2531452.20347  21548829.496    21548835.858
  23166312.311    -6203860.73249  -4815330.93046  23166311.656    23166320.800
  24705763.440     5028747.08849   3905517.72745  24705762.317    24705770.753
  20667019.386    -2401222.51149  -1686955.62048  20667018.821    20667023.562
 03  6  6 17 31  0.0000000  0  9G18G17G16G15G 6G29G26G23G21
  21368408.411    -5395604.45749  -4180905.79747  21368407.969    21368413.755
  20764775.778    -1032469.12449   -796344.60747  20764775.195    20764781.888
  23289982.850    -2667262.92249  -2062513.22645  23289982.510    23289989.052
  22469533.670    -5127182.88849  -3972741.44646  22469533.056    22469540.707
  20620084.722      711927.47549    558842.08248  20620084.473    20620090.612
  22818005.285     -506749.77749   -286173.31246  22818005.064    22818011.605
  21544550.967    -3292074.81249  -2548972.34147  21544550.838    21544557.176
  23150075.925    -6289182.98249  -4881815.69546  23150075.227    23150084.392
  20663427.436    -2420098.42949  -1701664.12148  20663426.867    20663431.576
 03  6  6 17 31 30.0000000  0  9G18G17G16G15G 6G29G26G23G21
  21356105.312    -5460257.53949  -4231284.77247  21356104.886    21356110.644
  20765664.895    -1027796.83149   -792703.85947  20765664.300    20765670.985
  23287534.796    -2680128.67749  -2072538.48546  23287534.415    23287541.180
  22456620.979    -5195039.96449  -4025617.02646  22456620.285    22456627.959
  20628303.753      755118.69049    592497.55648  20628303.493    20628309.643
  22822612.308     -482540.27749   -267308.77046  22822611.964    22822618.511
  21540393.311    -3313923.22849  -2565997.05847  21540393.206    21540399.484
  23133891.831    -6374230.56549  -4948086.42546  23133891.130    23133900.181
  20659875.803    -2438762.29149  -1716207.37648  20659875.226    20659879.945
 03  6  6 17 32  0.0000000  0  9G18G17G16G15G 6G29G26G23G21
  21343876.330    -5524521.06549  -4281360.20047  21343875.892    21343881.632
  20766591.014    -1022930.09549   -788911.60147  20766590.419    20766597.085
  23285190.965    -2692446.80049  -2082137.03446  23285190.468    23285197.371
  22443729.159    -5262786.77849  -4078406.71746  22443728.519    22443736.116
  20636613.893      798788.72549    626526.14048  20636613.630    20636619.813
  22827322.532     -457787.35749   -248020.77746  22827322.274    22827328.819
  21536356.812    -3335134.83049  -2582525.54347  21536356.710    21536362.993
  23117760.224    -6459002.59349  -5014142.43946  23117759.459    23117768.490
  20656364.475    -2457214.35749  -1730585.60148  20656363.897    20656368.635
 03  6  6 17 32 30.0000000  0  9G18G17G16G15G 6G29G26G23G21
  21331721.704    -5588393.67849  -4331131.01947  21331721.317    21331727.035
  20767554.291    -1017868.06049   -784967.16047  20767553.702    20767560.369
  23282951.510    -2704216.97249  -2091308.61646  23282950.968    23282957.723
  22430858.330    -5330422.75149  -4131110.03746  22430857.780    22430865.359
  20645015.135      842937.46149    660927.73548  20645014.874    20645021.065
  22832136.183     -432491.07449   -228309.39946  22832135.972    22832142.490
  21532441.762    -3355707.82849  -2598556.43347  21532441.771    21532448.025
  23101681.284    -6543497.42349  -5079982.45846  23101680.549    23101689.607
  20652893.673    -2475453.49449  -1744797.90248  20652893.100    20652897.836
 03  6  6 17 33  0.0000000  0  9G18G17G16G15G 6G29G26G23G21
  21319641.745    -5651874.32049  -4380596.41247  21319641.309    21319647.022
  20768554.860    -1012610.11149   -780870.05947  20768554.269    20768560.943
  23280815.925    -2715438.77649  -2100052.88045  23280815.338    23280822.240
  22418008.819    -5397947.47349  -4183726.65746  22418008.237    22418015.764
  20653507.453      887564.67249    695702.16848  20653507.194    20653513.366
  22837053.220     -406651.88749   -208174.97346  22837053.037    22837059.503
  21528648.737    -3375640.38849  -2614088.27447  21528648.717    21528654.936
  23085655.379    -6627713.48549  -5145605.25446  23085654.714    23085663.697
  20649463.392    -2493479.69249  -1758844.28448  20649462.824    20649467.563
 03  6  6 17 33 30.0000000  0  9G18G17G16G15G 6G29G26G23G21
  21307636.418    -5714962.60749  -4429756.06547  21307635.971    21307641.671
  20769592.623    -1007156.66149   -776620.61747  20769592.021    20769598.711
  23278784.097    -2726113.17249  -2108370.58945  23278783.645    23278790.939
  22405180.561    -5465360.89449  -4236256.55646  22405179.807    22405187.321
  20662090.584      932669.29549    730848.61248  20662090.313    20662096.496
  22842073.373     -380270.86549   -187618.34546  22842073.232    22842079.598
  21524977.630    -3394931.92449  -2629120.62247  21524977.648    21524983.862
  23069682.678    -6711650.20949  -5211010.36546  23069681.992    23069690.880
  20646073.744    -2511292.41049  -1772724.31348  20646073.181    20646077.897
 03  6  6 17 34  0.0000000  0  9G18G17G16G15G 6G29G26G23G21
  21295705.895    -5777657.49949  -4478609.18147  21295705.490    21295711.199
  20770667.708    -1001507.08649   -772218.35147  20770667.106    20770673.812
  23276857.172    -2736239.59749  -2116261.30945  23276856.706    23276863.805
  22392373.483    -5532662.53849  -4288699.40146  22392372.833    22392380.169
  20670764.514      978251.06149    766366.85448  20670764.258    20670770.450
  22847196.636     -353348.26949   -166639.69546  22847196.446    22847202.798
  21521428.815    -3413580.78249  -2643652.18547  21521428.865    21521435.082
  23053763.448    -6795306.12749  -5276196.69346  23053762.753    23053771.578
  20642724.731    -2528891.64949  -1786437.99848  20642724.169    20642728.855
 03  6  6 17 34 30.0000000  0  9G18G17G16G15G 6G29G26G23G21
  21283850.282    -5839958.98649  -4527155.74847  21283849.897    21283855.588
  20771779.956     -995662.18349   -767663.87947  20771779.356    20771786.058
  23275034.522    -2745819.13149  -2123725.91145  23275034.019    23275040.495
  22379587.610    -5599852.91249  -4341055.47846  22379586.906    22379594.245
  20679529.025     1024308.72249    802255.92548  20679528.760    20679534.944
  22852422.480     -325885.67449   -145240.28246  22852422.397    22852428.759
  21518002.453    -3431586.31749  -2657682.44947  21518002.507    21518008.716
  23037897.593    -6878680.77249  -5341163.83046  23037896.986    23037905.815
  20639416.297    -2546277.64249  -1799985.51448  20639415.740    20639420.408
 03  6  6 17 35  0.0000000  0  9G18G17G16G15G 6G29G26G23G21
  21272069.858    -5901865.52649  -4575394.56747  21272069.433    21272075.113
  20772929.469     -989621.41049   -762956.78347  20772928.881    20772935.554
  23273315.509    -2754851.43049  -2130764.06745  23273314.881    23273321.305
  22366823.079    -5666931.12449  -4393324.15946  22366822.272    22366829.669
  20688384.099     1070842.30349    838515.83348  20688383.830    20688390.039
  22857751.078     -297883.24749   -123420.23146  22857751.028    22857757.445
  21514698.847    -3448946.99449  -2671210.23247  21514698.884    21514705.123
  23022085.676    -6961772.44149  -5405910.45646  23022085.073    23022093.862
  20636148.542    -2563449.70549  -1813366.33548  20636147.982    20636152.647
 03  6  6 17 35 30.0000000  0  9G18G17G16G15G 6G29G26G23G21
  21260364.845    -5963375.64549  -4623324.48247  21260364.426    21260370.108
  20774116.529     -983383.65149   -758096.18947  20774115.929    20774122.594
  23271700.389    -2763336.05149  -2137375.43245  23271700.047    23271706.502
  22354079.950    -5733896.03849  -4445504.55646  22354079.223    22354086.648
  20697329.761     1117851.91449    875146.68048  20697329.487    20697335.699
  22863182.565     -269341.07949   -101179.57546  22863182.478    22863188.867
  21511518.327    -3465660.66549  -2684233.85647  21511518.336    21511524.620
  23006328.042    -7044579.17649  -5470435.06946  23006327.381    23006336.128
  20632921.778    -2580406.57649  -1826579.46848  20632921.206    20632925.894
 03  6  6 17 36  0.0000000  0  9G18G17G16G15G 6G29G26G23G21
  21248735.151    -6024489.92349  -4670945.95047  21248734.717    21248740.389
  20775340.842     -976949.75249   -753082.76147  20775340.231    20775346.886
  23270189.816    -2771274.40349  -2143561.18445  23270189.413    23270195.687
  22341358.291    -5800748.88849  -4497597.67346  22341357.589    22341364.976
  20706365.634     1165335.62849    912146.96048  20706365.352    20706371.568
  22868716.284     -240260.80349    -78519.62946  22868716.207    22868722.704
  21508460.907    -3481727.49749  -2696753.45047  21508460.932    21508467.154
  22990624.577    -7127101.09049  -5534737.74646  22990623.893    22990632.623
  20629735.737    -2597149.20449  -1839625.65748  20629735.162    20629739.857
 03  6  6 17 36 30.0000000  0  9G18G17G16G15G 6G29G26G23G21
  21237180.986    -6085207.25549  -4718258.11047  21237180.546    21237186.201
  20776602.636     -970318.97349   -747915.91947  20776602.028    20776608.704
  23268782.926    -2778666.40449  -2149321.19545  23268782.537    23268789.024
  22328657.937    -5867489.00649  -4549602.89446  22328657.302    22328664.820
  20715491.655     1213293.09949    949516.39148  20715491.394    20715497.588
  22874352.278     -210643.12949    -55440.93646  22874352.195    22874358.745
  21505526.954    -3497145.80149  -2708767.70747  21505526.924    21505533.132
  22974975.417    -7209336.73449  -5598817.36046  22974974.876    22974983.613
  20626590.631    -2613676.92449  -1852504.39148  20626590.069    20626594.773
 03  6  6 17 37  0.0000000  0  9G18G17G16G15G 6G29G26G23G21
  21225702.490    -6145527.03249  -4765260.49147  21225702.072    21225707.708
  20777901.770     -963491.86649   -742596.08847  20777901.168    20777907.866
  23267480.123    -2785512.72949  -2154655.97745  23267479.790    23267486.080
  22315979.208    -5934116.11549  -4601520.07646  22315978.559    22315986.069
  20724707.666     1261723.39049    987254.26348  20724707.404    20724713.610
  22880090.513     -180488.77649    -31944.04446  22880090.333    22880096.870
  21502716.438    -3511914.88649  -2720276.07347  21502716.429    21502722.649
  22959381.118    -7291285.10949  -5662673.09846  22959380.472    22959389.232
  20623486.404    -2629989.61449  -1865215.56448  20623485.848    20623490.529
 03  6  6 17 37 30.0000000  0  9G18G17G16G15G 6G29G26G23G21
  21214299.821    -6205448.15249  -4811952.22847  21214299.416    21214305.045
  20779238.467     -956467.47249   -737122.53247  20779237.893    20779244.561
  23266281.198    -2791813.24149  -2159565.47645  23266280.879    23266287.177
  22303322.158    -6000629.64449  -4653348.76646  22303321.413    22303328.854
  20734013.572     1310626.18549   1025360.31448  20734013.311    20734019.532
  22885930.596     -149798.60349     -8029.64246  22885930.480    22885936.980
  21500029.788    -3526033.24149  -2731277.37647  21500029.809    21500036.027
  22943841.728    -7372944.81449  -5726303.93446  22943841.119    22943849.881
  20620423.224    -2646086.73149  -1877758.76148  20620422.678    20620427.340
 03  6  6 17 38  0.0000000  0  9G18G17G16G15G 6G29G26G23G21
  21202973.267    -6264969.81749  -4858332.70747  21202972.817    21202978.435
  20780612.875     -949245.06549   -731494.67747  20780612.281    20780618.952
  23265186.136    -2797567.84149  -2164049.58945  23265185.787    23265192.224
  22290686.757    -6067028.75649  -4705088.29146  22290686.059    22290693.385
  20743409.352     1360001.14549   1063834.28348  20743409.097    20743415.323
  22891872.756     -118572.92949     16302.06046  22891872.557    22891878.991
  21497467.221    -3539499.57549  -2741770.60647  21497467.253    21497473.464
  22928357.622    -7454314.29149  -5789708.61846  22928356.959    22928365.693
  20617401.243    -2661967.36049  -1890133.26648  20617400.691    20617405.342
 03  6  6 17 38 30.0000000  0  9G18G17G16G15G 6G29G26G23G21
  21191722.654    -6324091.79549  -4904401.74347  21191722.236    21191727.839
  20782024.771     -941825.52949   -725713.21747  20782024.184    20782030.853
  23264194.996    -2802777.46149  -2168109.06945  23264194.663    23264200.886
  22278073.047    -6133313.69349  -4756738.86146  22278072.471    22278079.751
  20752894.698     1409847.03649   1102675.21047  20752894.440    20752900.676
  22897916.371      -86813.05349     41050.00546  22897916.203    22897922.683
  21495028.827    -3552313.32149  -2751755.32947  21495028.871    21495035.078
  22912928.750    -7535393.06349  -5852886.75946  22912928.030    22912936.775
  20614420.410    -2677631.82649  -1902339.33648  20614419.854    20614424.500
 03  6  6 17 39  0.0000000  0  9G18G17G16G15G 6G29G26G23G21
  21180548.343    -6382813.04849  -4950158.52347  21180547.942    21180553.502
  20783474.309     -934208.27149   -719777.68747  20783473.711    20783480.375
  23263307.435    -2807442.29849  -2171744.02545  23263307.008    23263313.083
  22265481.257    -6199483.88449  -4808300.00646  22265480.629    22265487.974
  20762469.628     1460163.49549   1141882.81547  20762469.382    20762475.617
  22904061.605      -54519.75049     66213.59946  22904061.418    22904067.854
  21492714.883    -3564473.23349  -2761230.56747  21492714.913    21492721.102
  22897555.400    -7616179.72049  -5915837.30146  22897554.753    22897563.436
  20611480.771    -2693079.61049  -1914376.55848  20611480.219    20611484.854
 03  6  6 17 39 30.0000000  0  9G18G17G16G15G 6G29G26G23G21
  21169450.345    -6441133.17449  -4995602.73947  21169449.975    21169455.493
  20784961.508     -926392.95149   -713687.82547  20784960.921    20784967.584
  23262523.126    -2811562.80849  -2174954.83845  23262522.741    23262529.065
  22252911.233    -6265539.28649  -4859771.71546  22252910.659    22252917.952
  20772133.944     1510949.63549   1181456.40247  20772133.681    20772139.933
  22910308.181      -21694.00749     91792.09546  22910308.004    22910314.422
  21490525.522    -3575978.42249  -2770195.62847  21490525.559    21490531.732
  22882237.773    -7696673.40049  -5978559.54946  22882237.227    22882245.937
  20608582.442    -2708310.40149  -1926244.69648  20608581.896    20608586.537
 03  6  6 17 40  0.0000000  0  9G18G17G16G15G 6G29G26G23G21
  21158428.945    -6499050.81549  -5040733.32647  21158428.575    21158434.101
  20786486.529     -918378.92649   -707443.12647  20786485.935    20786492.617
  23261842.177    -2815139.00549  -2177741.46145  23261842.002    23261848.679
  22240363.383    -6331478.89949  -4911153.21546  22240362.758    22240370.073
  20781887.567     1562205.18149   1221395.76347  20781887.309    20781893.574
  22916655.995       11663.79549    117785.19546  22916655.829    22916662.212
  21488460.982    -3586827.38149  -2778649.33147  21488461.048    21488467.201
  22866976.243    -7776872.60549  -6041052.33946  22866975.792    22866984.475
  20605725.537    -2723323.42449  -1937943.14548  20605724.983    20605729.667
 03  6  6 17 40 30.0000000  0  9G18G17G16G15G 6G29G26G23G21
  21147484.034    -6556566.58949  -5085550.76547  21147483.642    21147489.177
  20788049.195     -910166.87849   -701044.12347  20788048.603    20788055.291
  23261265.386    -2818172.14749  -2180104.97346  23261265.151    23261271.749
  22227837.267    -6397303.33649  -4962444.89246  22227836.679    22227844.103
  20791730.170     1613928.45149   1261699.58747  20791729.895    20791736.192
  22923104.767       45551.73049    144191.36646  22923104.525    22923110.871
  21486521.355    -3597020.35249  -2786591.87447  21486521.421    21486527.550
  22851770.871    -7856777.19149  -6103315.55946  22851770.389    22851779.020
  20602910.043    -2738118.90549  -1949472.08148  20602909.493    20602914.172
 03  6  6 17 41  0.0000000  0  9G18G17G16G15G 6G29G26G23G21
  21136615.663    -6613679.80149  -5130054.52847  21136615.316    21136620.875
  20789649.596     -901756.56349   -694490.62747  20789649.015    20789655.690
  23260791.513    -2820663.11549  -2182045.98445  23260791.180    23260797.963
  22215333.229    -6463012.34849  -5013646.69046  22215332.665    22215340.062
  20801661.593     1666118.40249   1302367.05747  20801661.339    20801667.647
  22929654.162       79968.71049    171009.79446  22929653.911    22929660.214
  21484706.732    -3606556.37749  -2794022.52047  21484706.767    21484712.856
  22836621.771    -7936386.24449  -6165348.48346  22836621.236    22836629.834
  20600135.930    -2752696.95849  -1960831.59448  20600135.383    20600140.032
 03  6  6 17 41 30.0000000  0  9G18G17G16G15G 6G29G26G23G21
  21125824.293    -6670388.80849  -5174243.31747  21125823.926    21125829.474
  20791287.957     -893146.87549   -687781.77847  20791287.401    20791294.051
  23260420.554    -2822611.21649  -2183563.97845  23260420.257    23260427.080
  22202851.435    -6528604.55049  -5064757.45946  22202850.876    22202858.254
  20811681.824     1718775.12449   1343398.25047  20811681.573    20811687.921
  22936304.192      114914.83749    198240.54446  22936303.977    22936310.290
  21483017.376    -3615433.80349  -2800939.96247  21483017.377    21483023.476
  22821529.153    -8015697.65749  -6227149.49746  22821528.715    22821537.277
  20597403.462    -2767056.20249  -1972020.60648  20597402.915    20597407.557
 03  6  6 17 42  0.0000000  0  9G18G17G16G15G 6G29G26G23G21
  21115109.952    -6726693.06049  -5218116.71747  21115109.564    21115115.109
  20792964.409     -884337.30149   -680917.17247  20792963.851    20792970.449
  23260152.718    -2824016.92649  -2184659.38045  23260152.512    23260159.704
  22190391.900    -6594079.59449  -5115776.92946  22190391.322    22190398.791
  20821790.770     1771897.97749   1384792.65847  20821790.534    20821796.915
  22943054.820      150389.15649    225882.87346  22943054.553    22943060.907
  21481453.559    -3623651.54049  -2807343.36547  21481453.579    21481459.705
  22806493.560    -8094710.47249  -6288717.81746  22806492.993    22806501.581
  20594712.712    -2781196.05749  -1983038.66648  20594712.157    20594716.804
 03  6  6 17 42 30.0000000  0  9G18G17G16G15G 6G29G26G23G21
  21104472.665    -6782592.32649  -5261674.54747  21104472.268    21104477.805
  20794678.809     -875328.21649   -673897.10347  20794678.234    20794684.837
  23259988.435    -2824881.52449  -2185333.09945  23259988.195    23259995.364
  22177954.620    -6659437.86349  -5166705.41246  22177954.041    22177961.471
  20831988.190     1825485.51249   1426549.15047  20831987.935    20831994.328
  22949905.564      186389.98649    253935.45646  22949905.341    22949911.699
  21480015.235    -3631209.55549  -2813232.69847  21480015.335    21480021.421
  22791514.733    -8173424.14849  -6350053.05546  22791514.213    22791522.770
  20592063.672    -2795116.76049  -1993885.95948  20592063.131    20592067.785
 03  6  6 17 43  0.0000000  0  9G18G17G16G15G 6G29G26G23G21
  21093912.492    -6838086.21249  -5304916.49247  21093912.089    21093917.617
  20796431.214     -866119.35949   -666721.36947  20796430.641    20796437.259
  23259926.936    -2825205.37849  -2185585.48745  23259926.558    23259933.764
  22165539.664    -6724678.98349  -5217542.60746  22165539.017    22165546.366
  20842273.820     1879536.80349   1468667.01147  20842273.564    20842279.948
  22956856.234      222916.29249    282397.52546  22956856.069    22956862.468
  21478702.671    -3638107.16349  -2818607.42447  21478702.734    21478708.864
  22776593.111    -8251837.62949  -6411154.36246  22776592.533    22776601.059
  20589456.461    -2808817.90349  -2004562.16548  20589455.906    20589460.550
 03  6  6 17 43 30.0000000  0  9G18G17G16G15G 6G29G26G23G21
  21083429.665    -6893173.65049  -5347841.72747  21083429.276    21083434.809
  20798221.833     -856709.66149   -659389.13447  20798221.251    20798227.888
  23259968.338    -2824988.69549  -2185416.63645  23259968.078    23259974.940
  22153147.137    -6789801.92149  -5268287.71646  22153146.526    22153153.821
  20852647.646     1934051.60549   1511146.05247  20852647.393    20852653.783
  22963906.801      259967.63149    311268.69446  22963906.668    22963913.180
  21477516.080    -3644342.81949  -2823466.34547  21477516.105    21477522.249
  22761728.832    -8329949.23249  -6472020.44746  22761728.313    22761736.869
  20586891.199    -2822298.54249  -2015066.55048  20586890.642    20586895.279
 03  6  6 17 44  0.0000000  0  9G18G17G16G15G 6G29G26G23G21
  21073024.034    -6947855.51649  -5390450.93447  21073023.659    21073029.183
  20800050.336     -847100.67449   -651901.61547  20800049.765    20800056.417
  23260112.928    -2824233.22849  -2184827.98346  23260112.448    23260119.215
  22140776.925    -6854807.60649  -5318941.46246  22140776.300    22140783.616
  20863109.242     1989027.65049   1553984.49647  20863109.000    20863115.417
  22971056.965      297541.44449    340546.98146  22971056.768    22971063.252
  21476455.203    -3649917.45849  -2827810.19147  21476455.230    21476461.368
  22746922.066    -8407759.55349  -6532651.76846  22746921.444    22746929.923
  20584367.692    -2835559.64849  -2025399.87548  20584367.139    20584371.767
 03  6  6 17 44 30.0000000  0  9G18G17G16G15G 6G29G26G23G21
  21062695.833    -7002130.65749  -5432743.20847  21062695.419    21062700.933
  20801916.925     -837291.67249   -644258.24047  20801916.343    20801923.005
  23260359.422    -2822939.32349  -2183819.76046  23260358.909    23260365.582
  22128429.197    -6919694.99149  -5369502.99746  22128428.647    22128435.963
  20873658.581     2044464.59949   1597182.09347  20873658.357    20873664.757
  22978306.374      335637.16349    370231.96446  22978306.150    22978312.665
  21475520.318    -3654829.89749  -2831638.04547  21475520.367    21475526.554
  22732172.799    -8485267.09749  -6593047.15046  22732172.135    22732180.581
  20581886.088    -2848600.56849  -2035561.62248  20581885.527    20581890.172
 03  6  6 17 45  0.0000000  0  9G18G17G16G15G 6G29G26G23G21
  21052445.117    -7055998.22649  -5474717.89547  21052444.736    21052450.230
  20803821.743     -827281.71449   -636458.27747  20803821.174    20803827.855
  23260708.458    -2821107.32649  -2182392.19846  23260707.985    23260713.795
  22116104.253    -6984463.30349  -5419971.78246  22116103.620    22116110.907
  20884295.494     2100361.85049   1640738.36447  20884295.273    20884301.677
  22985654.885      374254.13849    400323.11246  22985654.772    22985661.281
  21474711.717    -3659079.03549  -2834949.02947  21474711.767    21474717.980
  22717481.392    -8562470.48949  -6653205.54346  22717480.766    22717489.187
  20579446.611    -2861420.06549  -2045550.83048  20579446.076    20579450.705
 03  6  6 17 45 30.0000000  0  9G18G17G16G15G 6G29G26G23G21
  21042272.145    -7109457.51449  -5516374.44547  21042271.768    21042277.229
  20805764.910     -817070.34349   -628501.36747  20805764.349    20805771.007
  23261159.648    -2818737.68249  -2180545.75346  23261159.006    23261165.025
  22103801.854    -7049112.36749  -5470347.63346  22103801.306    22103808.588
  20895019.863     2156718.63949   1684652.71847  20895019.649    20895026.045
  22993102.483      413391.29749    430819.61246  22993102.377    22993108.865
  21474029.566    -3662664.09849  -2837742.56347  21474029.539    21474035.746
  22702848.107    -8639368.66049  -6713126.09946  22702847.465    22702855.838
  20577049.359    -2874017.65849  -2055367.12948  20577048.825    20577053.440
 03  6  6 17 46  0.0000000  0  9G18G17G16G15G 6G29G26G23G21
  21032177.032    -7162507.76849  -5557712.27047  21032176.637    21032182.061
  20807746.502     -806657.05549   -620387.12347  20807745.957    20807752.584
  23261712.650    -2815830.91549  -2178280.77046  23261712.202    23261718.677
  22091522.478    -7113641.40549  -5520629.95146  22091521.798    22091529.161
  20905831.473     2213534.08349   1728924.46647  20905831.264    20905837.689
  23000648.924      453047.58149    461720.60146  23000648.772    23000655.228
  21473473.758    -3665584.46249  -2840018.15147  21473473.803    21473479.995
  22688273.079    -8715960.67449  -6772808.09646  22688272.416    22688280.748
  20574694.448    -2886392.91449  -2065010.17848  20574693.906    20574698.520
 03  6  6 17 46 30.0000000  0  9G18G17G16G15G 6G29G26G23G21
  21022159.815    -7215148.41149  -5598730.91547  21022159.432    21022164.839
  20809766.651     -796041.20949   -612115.04047  20809766.099    20809772.732
  23262368.068    -2812387.61649  -2175597.68646  23262367.537    23262374.046
  22079265.858    -7178049.81149  -5570818.27746  22079265.213    22079272.599
  20916730.311     2270807.57849   1773553.13847  20916730.099    20916736.516
  23008293.920      493222.10549    493025.43446  23008293.779    23008300.197
  21473044.711    -3667839.39949  -2841775.23047  21473044.730    21473050.865
  22673756.473    -8792245.32549  -6832250.58546  22673755.906    22673764.212
  20572381.957    -2898545.15749  -2074479.45048  20572381.397    20572386.041
 03  6  6 17 47  0.0000000  0  9G18G17G16G15G 6G29G26G23G21
  21012220.479    -7267379.67149  -5639430.56647  21012220.113    21012225.529
  20811825.281     -785223.00349   -603685.27347  20811824.734    20811831.408
  23263125.330    -2808409.14549  -2172497.60346  23263124.734    23263131.290
  22067032.234    -7242337.57149  -5620912.61046  22067031.602    22067038.957
  20927715.970     2328537.41949   1818537.39547  20927715.754    20927722.187
  23016037.167      533913.07649    524732.68646  23016037.029    23016043.407
  21472742.205    -3669428.95149  -2843013.81747  21472742.220    21472748.339
  22659298.502    -8868222.17649  -6891453.23646  22659297.955    22659306.184
  20570111.835    -2910474.57249  -2083775.09348  20570111.288    20570115.953
 03  6  6 17 47 30.0000000  0  9G18G17G16G15G 6G29G26G23G21
  21002359.135    -7319201.02549  -5679810.80147  21002358.810    21002364.202
  20813922.359     -774202.56649   -595097.92147  20813921.832    20813928.523
  23263983.929    -2803896.08949  -2168980.97446  23263983.439    23263990.219
  22054821.743    -7306504.40549  -5670912.71046  22054821.115    22054828.373
  20938788.244     2386722.50949   1863876.39947  20938788.029    20938794.471
  23023878.451      575119.25049    556841.39946  23023878.291    23023884.651
  21472566.387    -3670352.73549  -2843733.63647  21472566.412    21472572.538
  22644899.215    -8943890.44849  -6950415.43146  22644898.714    22644906.915
  20567884.128    -2922181.21049  -2092897.13748  20567883.610    20567888.267
 03  6  6 17 48  0.0000000  0  9G18G17G16G15G 6G29G26G23G21
  20992576.089    -7370611.33449  -5719870.74847  20992575.742    20992581.139
  20816058.215     -762978.73049   -586352.07447  20816057.683    20816064.344
  23264944.182    -2798848.93749  -2165048.14846  23264943.605    23264950.463
  22042634.395    -7370549.52449  -5720817.94446  22042633.663    22042640.954
  20949947.093     2445362.53049   1909569.89247  20949946.873    20949953.293
  23031817.602      616839.89549    589350.99046  23031817.395    23031823.842
  21472517.516    -3670609.68149  -2843933.84047  21472517.476    21472523.665
  22630558.955    -9019248.55349  -7009135.95746  22630558.440    22630566.683
  20565699.149    -2933663.30249  -2101844.21648  20565698.643    20565703.266
 03  6  6 17 48 30.0000000  0  9G18G17G16G15G 6G29G26G23G21
  20982871.287    -7421610.23149  -5759610.10647  20982870.931    20982876.326
  20818232.822     -751551.20749   -577447.51347  20818232.278    20818238.911
  23266005.619    -2793268.47249  -2160699.78445  23266005.051    23266011.959
  22030470.171    -7434472.24249  -5770627.83546  22030469.564    22030476.852
  20961192.316     2504456.37349   1955617.01347  20961192.119    20961198.537
  23039854.389      659073.81549    622260.53646  23039854.221    23039860.692
  21472595.613    -3670199.24349  -2843613.99847  21472595.611    21472601.776
  22616277.989    -9094295.49849  -7067614.00946  22616277.407    22616285.667
  20563556.991    -2944920.53749  -2110616.07848  20563556.476    20563561.080
 03  6  6 17 49  0.0000000  0  9G18G17G16G15G 6G29G26G23G21
  20973244.956    -7472196.83049  -5799028.20647  20973244.605    20973249.993
  20820446.408     -739918.87349   -568383.36147  20820445.875    20820452.495
  23267168.448    -2787155.07249  -2155936.12445  23267168.026    23267175.021
  22018329.488    -7498271.89749  -5820341.79446  22018328.838    22018336.131
  20972523.758     2564003.32149   2002017.19947  20972523.544    20972529.970
  23047988.762      701820.12349    655569.34946  23047988.559    23047994.989
  21472800.823    -3669120.88349  -2842773.70547  21472800.789    21472806.956
  22602056.526    -9169030.18649  -7125848.73146  22602055.793    22602064.055
  20561457.650    -2955952.43149  -2119212.35448  20561457.130    20561461.752
 03  6  6 17 49 30.0000000  0  9G18G17G16G15G 6G29G26G23G21
  20963696.869    -7522372.09549  -5838125.77547  20963696.525    20963701.922
  20822698.677     -728083.22249   -559160.77747  20822698.136    20822704.725
  23268432.382    -2780510.76749  -2150758.74845  23268432.130    23268439.126
  22006212.106    -7561949.03249  -5869960.30646  22006211.497    22006218.732
  20983940.985     2624001.02349   2048768.62847  20983940.770    20983947.193
  23056220.061      745076.33849    689275.48446  23056219.871    23056226.338
  21473132.952    -3667375.35049  -2841413.53147  21473132.969    21473139.126
  22587894.214    -9243452.89449  -7183840.38446  22587893.567    22587901.802
  20559401.140    -2966759.47449  -2127633.41548  20559400.633    20559405.246
 03  6  6 17 50  0.0000000  0  9G18G17G16G15G 6G29G26G23G21
  20954227.149    -7572135.61149  -5876902.50847  20954226.801    20954232.202
  20824989.759     -716043.56949   -549779.23347  20824989.210    20824995.789
  23269797.782    -2773336.48149  -2145168.39945  23269797.573    23269804.165
  21994118.191    -7625503.21649  -5919483.02046  21994117.509    21994124.719
  20995443.780     2684448.51849   2095870.53847  20995443.567    20995449.998
  23064548.347      788841.33149    723378.07046  23064548.095    23064554.497
  21473592.034    -3664962.34049  -2839533.25447  21473592.102    21473598.282
  22573791.465    -9317562.75849  -7241588.24546  22573790.900    22573799.103
  20557387.429    -2977341.63249  -2135879.24648  20557386.927    20557391.535
 03  6  6 17 50 30.0000000  0  9G18G17G16G15G 6G29G26G23G21
  20944835.860    -7621487.37749  -5915358.40147  20944835.472    20944840.857
  20827319.628     -703799.96149   -540238.76147  20827319.067    20827325.662
  23271263.987    -2765633.73649  -2139166.26645  23271263.609    23271269.872
  21982047.660    -7688934.38249  -5968909.86146  21982046.896    21982054.137
  21007031.888     2745344.19849   2143321.68947  21007031.674    21007038.103
  23072972.875      833112.91949    757875.40446  23072972.693    23072979.030
  21474178.227    -3661881.98149  -2837132.96147  21474178.286    21474184.489
  22559748.263    -9391359.56349  -7299092.16646  22559747.782    22559755.922
  20555416.621    -2987698.43249  -2143949.47448  20555416.092    20555420.691
 03  6  6 17 51  0.0000000  0  9G18G17G16G15G 6G29G26G23G21
  20935523.005    -7670426.59549  -5953492.82047  20935522.599    20935527.983
  20829688.377     -691352.04049   -530539.08147  20829687.827    20829694.432
  23272830.513    -2757402.90249  -2132752.63946  23272830.204    23272836.063
  21970000.499    -7752241.82449  -6018240.31746  21969999.895    21970007.081
  21018705.135     2806687.30349   2191121.47947  21018704.913    21018711.353
  23081493.760      877890.47349    792767.00046  23081493.595    23081499.905
  21474891.517    -3658133.66549  -2834212.18047  21474891.542    21474897.770
  22545765.040    -9464842.01449  -7356351.14446  22545764.522    22545772.598
  20553488.797    -2997829.16549  -2151843.54248  20553488.276    20553492.868
 03  6  6 17 51 30.0000000  0  9G18G17G16G15G 6G29G26G23G21
  20926288.631    -7718953.52149  -5991305.97947  20926288.222    20926293.597
  20832096.056     -678699.73949   -520680.14747  20832095.510    20832102.133
  23274497.444    -2748645.36449  -2125928.59646  23274496.980    23274502.823
  21957977.099    -7815425.24949  -6067474.11746  21957976.479    21957983.662
  21030463.207     2868476.45149   2239268.83547  21030463.003    21030469.459
  23090110.511      923172.08149    828051.35746  23090110.329    23090116.676
  21475731.803    -3653717.52649  -2830771.01647  21475731.890    21475738.100
  22531841.733    -9538009.76449  -7413364.90246  22531841.091    22531849.181
  20551604.042    -3007733.54349  -2159561.23548  20551603.531    20551608.123
 03  6  6 17 52  0.0000000  0  9G18G17G16G15G 6G29G26G23G21
  20917132.899    -7767067.01549  -6028796.98647  20917132.511    20917137.858
  20834542.806     -665842.05549   -510661.17847  20834542.256    20834548.868
  23276264.162    -2739361.53649  -2118694.49446  23276263.727    23276269.448
  21945977.449    -7878483.69449  -6116610.54646  21945976.847    21945983.997
  21042306.091     2930710.98949   2287763.24747  21042305.885    21042312.340
  23098823.027      968957.05949    863727.95946  23098822.898    23098829.272
  21476699.465    -3648632.84449  -2826808.91747  21476699.510    21476705.651
  22517978.509    -9610861.27049  -7470132.22846  22517977.848    22517985.926
  20549762.530    -3017410.63149  -2167101.82348  20549762.006    20549766.608
 03  6  6 17 52 30.0000000  0  9G18G17G16G15G 6G29G26G23G21
  20908055.953    -7814766.58449  -6065965.44747  20908055.554    20908060.889
  20837028.779     -652778.19049   -500481.54247  20837028.255    20837034.844
  23278130.996    -2729552.24849  -2111050.88946  23278130.546    23278136.107
  21934001.694    -7941416.43649  -6165649.02546  21934001.147    21934008.275
  21054233.553     2993390.08549   2336604.07047  21054233.348    21054239.810
  23107631.152     1015244.19049    899795.83746  23107631.031    23107637.464
  21477794.330    -3642879.08649  -2822325.45447  21477794.383    21477800.523
  22504175.584    -9683395.56849  -7526652.36746  22504174.954    22504183.007
  20547964.385    -3026859.97449  -2174464.93948  20547963.871    20547968.464
 03  6  6 17 53  0.0000000  0  9G18G17G16G15G 6G29G26G23G21
  20899057.888    -7862051.71549  -6102810.97047  20899057.474    20899062.797
  20839553.995     -639508.04049   -490141.16747  20839553.447    20839560.072
  23280097.523    -2719218.40749  -2102998.56846  23280097.093    23280102.513
  21922050.053    -8004222.84449  -6214589.04646  21922049.441    21922056.565
  21066245.371     3056512.50249   2385790.33847  21066245.172    21066251.627
  23116534.656     1062031.97649    936253.83746  23116534.506    23116540.962
  21479016.488    -3636456.28249  -2817320.65847  21479016.626    21479022.715
  22490433.173    -9755611.81649  -7582924.68846  22490432.648    22490440.631
  20546209.713    -3036080.73049  -2181649.93648  20546209.205    20546213.828
 03  6  6 17 53 30.0000000  0  9G18G17G16G15G 6G29G26G23G21
  20890138.510    -7908923.14749  -6139334.13447  20890138.118    20890143.441
  20842118.398     -626031.84549   -479640.24147  20842117.882    20842124.501
  23282163.663    -2708361.71049  -2094538.81946  23282163.125    23282168.525
  21910122.282    -8066903.31049  -6263430.92346  21910121.718    21910128.863
  21078341.162     3120076.28549   2435320.53147  21078340.958    21078347.411
  23125533.055     1109318.47149    973100.44446  23125532.837    23125539.299
  21480365.982    -3629365.11149  -2811795.05647  21480366.042    21480372.143
  22476751.305    -9827509.86049  -7638949.05946  22476750.830    22476758.796
  20544498.470    -3045073.41749  -2188657.21848  20544497.980    20544502.592
 03  6  6 17 54  0.0000000  0  9G18G17G16G15G 6G29G26G23G21
  20881298.095    -7955379.66149  -6175533.98747  20881297.718    20881303.024
  20844722.287     -612348.35849   -468977.78647  20844721.749    20844728.381
  23284328.651    -2696982.68749  -2085672.05745  23284328.295    23284333.833
  21898218.834    -8129456.55449  -6312173.68446  21898218.209    21898225.340
  21090520.888     3184081.01049   2485194.31347  21090520.696    21090527.132
  23134626.052     1157102.72949   1010334.91346  23134625.872    23134632.414
  21481842.837    -3621604.51549  -2805747.83047  21481842.870    21481848.946
  22463130.379    -9899088.25849  -7694724.33846  22463129.879    22463137.842
  20542830.974    -3053836.32249  -2195485.44948  20542830.464    20542835.072
 03  6  6 17 54 30.0000000  0  9G18G17G16G15G 6G29G26G23G21
  20872536.808    -8001420.49749  -6211409.93347  20872536.394    20872541.697
  20847365.773     -598456.66049   -458153.08947  20847365.249    20847371.898
  23286592.861    -2685082.03549  -2076398.86345  23286592.587    23286598.761
  21886339.674    -8191881.58249  -6360816.53546  21886339.093    21886346.208
  21102784.370     3248525.97149   2535411.12747  21102784.186    21102790.634
  23143813.693     1205383.86749   1047956.57046  23143813.491    23143820.081
  21483447.117    -3613174.05149  -2799178.63247  21483447.159    21483453.149
  22449570.372    -9970345.84949  -7750249.65546  22449569.926    22449577.860
  20541207.285    -3062368.63049  -2202133.99648  20541206.798    20541211.412
 03  6  6 17 55  0.0000000  0  9G18G17G16G15G 6G29G26G23G21
  20863854.364    -8047046.81849  -6246962.88247  20863853.974    20863859.256
  20850048.700     -584357.71049   -447166.89947  20850048.202    20850054.860
  23288956.450    -2672661.70849  -2066720.72946  23288956.150    23288962.625
  21874484.849    -8254179.22449  -6409360.10447  21874484.240    21874491.339
  21115131.166     3313408.58349   2585968.97547  21115130.979    21115137.423
  23153095.341     1254159.22549   1085963.31746  23153095.136    23153101.792
  21485178.611    -3604075.14949  -2792088.57947  21485178.660    21485184.597
  22436071.439   -10041283.10949  -7805525.37246  22436070.942    22436078.897
  20539627.297    -3070671.43149  -2208603.70848  20539626.822    20539631.420
 03  6  6 17 55 30.0000000  0  9G18G17G16G15G 6G29G26G23G21
  20855250.827    -8092258.55649  -6282192.78047  20855250.441    20855255.748
  20852771.142     -570051.15949   -436018.94347  20852770.637    20852777.318
  23291418.612    -2659723.40949  -2056638.94545  23291418.265    23291424.735
  21862654.341    -8316348.93549  -6457804.02147  21862653.730    21862660.813
  21127560.960     3378727.39049   2636866.70747  21127560.784    21127567.216
  23162470.713     1303427.05049   1124353.78946  23162470.485    23162477.200
  21487037.229    -3594307.91249  -2784477.73847  21487037.324    21487043.268
  22422633.498   -10111899.61749  -7860551.13846  22422632.974    22422640.941
  20538091.158    -3078744.02349  -2214894.03448  20538090.676    20538095.284
 03  6  6 17 56  0.0000000  0  9G18G17G16G15G 6G29G26G23G21
  20846726.307    -8137054.99649  -6317099.07447  20846725.952    20846731.275
  20855533.235     -555536.36049   -424708.71647  20855532.735    20855539.403
  23293979.461    -2646267.62549  -2046153.94245  23293979.063    23293985.157
  21850848.308    -8378389.93749  -6506147.64347  21850847.693    21850854.726
  21140073.628     3444481.55849   2688103.68047  21140073.432    21140079.844
  23171939.510     1353186.12649   1163127.07246  23171939.310    23171945.987
  21489023.119    -3583871.94049  -2776345.81347  21489023.199    21489029.175
  22409256.745   -10182194.13749  -7915326.01146  22409256.315    22409264.246
  20536598.927    -3086585.76849  -2221004.48348  20536598.439    20536603.046
 03  6  6 17 56 30.0000000  0  9G18G17G16G15G 6G29G26G23G21
  20838280.888    -8181435.74049  -6351681.44847  20838280.529    20838285.858
  20858335.067     -540812.88549   -413235.88947  20858334.555    20858341.212
  23296638.437    -2632295.68149  -2035266.71246  23296637.923    23296644.173
  21839066.865    -8440301.77049  -6554390.61447  21839066.229    21839073.262
  21152668.870     3510669.80849   2739678.90247  21152668.672    21152675.099
  23181501.456     1403435.09349   1202282.07846  23181501.311    23181508.011
  21491136.279    -3572767.44549  -2767692.96147  21491136.326    21491142.299
  22395941.604   -10252166.04849  -7969849.49446  22395941.023    22395948.953
  20535150.757    -3094195.95949  -2226934.50248  20535150.261    20535154.872
 03  6  6 17 57  0.0000000  0  9G18G17G16G15G 6G29G26G23G21
  20829914.721    -8225400.24949  -6385939.48047  20829914.370    20829919.671
  20861176.732     -525879.94249   -401599.83447  20861176.218    20861182.888
  23299395.041    -2617808.37249  -2023977.93346  23299394.566    23299401.357
  21827310.239    -8502083.22649  -6602531.96547  21827309.578    21827316.632
  21165346.525     3577291.20049   2791591.64147  21165346.316    21165352.762
  23191156.607     1454172.60749   1241817.77746  23191156.426    23191163.112
  21493376.704    -3560994.09849  -2758518.92847  21493376.705    21493382.716
  22382687.945   -10321814.06349  -8024120.59646  22382687.368    22382695.259
  20533746.826    -3101573.77649  -2232683.45048  20533746.323    20533750.927
 03  6  6 17 57 30.0000000  0  9G18G17G16G15G 6G29G26G23G21
  20821627.706    -8268948.71549  -6419873.32947  20821627.367    20821632.653
  20864058.221     -510737.51449   -389800.54747  20864057.713    20864064.402
  23302249.155    -2602807.32549  -2012288.84346  23302248.909    23302256.253
  21815578.437    -8563734.25249  -6650571.69447  21815577.760    21815584.834
  21178106.264     3644344.00549   2843840.53847  21178106.082    21178112.524
  23200904.254     1505396.91549   1281732.78846  23200904.059    23200910.745
  21495744.271    -3548552.25849  -2748823.99347  21495744.276    21495750.309
  22369495.929   -10391137.97049  -8078139.15846  22369495.401    22369503.268
  20532387.111    -3108719.08249  -2238251.22548  20532386.625    20532391.225
 03  6  6 17 58  0.0000000  0  9G18G17G16G15G 6G29G26G23G21
  20813419.969    -8312080.69549  -6453482.63847  20813419.609    20813424.890
  20866979.715     -495384.71849   -377837.33647  20866979.201    20866985.890
  23305201.683    -2587293.35549  -2000200.06846  23305201.335    23305208.328
  21803871.603    -8625253.89449  -6698509.06647  21803870.954    21803878.018
  21190947.924     3711827.36449   2896424.93647  21190947.742    21190954.190
  23210744.322     1557106.69249   1322026.09146  23210744.186    23210750.802
  21498239.095    -3535442.01049  -2738608.21547  21498239.079    21498245.116
  22356365.783   -10460136.77649  -8131904.38546  22356365.320    22356373.140
  20531071.843    -3115630.97749  -2243637.11548  20531071.335    20531075.933
 03  6  6 17 58 30.0000000  0  9G18G17G16G15G 6G29G26G23G21
  20805291.334    -8354796.82549  -6486767.90848  20805290.977    20805296.270
  20869941.201     -479822.02249   -365710.57247  20869940.701    20869947.383
  23308251.202    -2571268.34649  -1987713.05146  23308250.933    23308257.750
  21792189.705    -8686642.20249  -6746344.08147  21792189.121    21792196.214
  21203871.162     3779739.28849   2949343.27447  21203870.985    21203877.439
  23220676.350     1609299.79649   1362696.01246  23220676.181    23220682.815
  21500860.914    -3521664.00849  -2727872.12147  21500860.954    21500867.017
  22343297.632   -10528810.41149  -8185416.24046  22343297.127    22343304.904
  20529800.957    -3122309.49149  -2248841.15748  20529800.445    20529805.045
 03  6  6 17 59  0.0000000  0  9G18G17G16G15G 6G29G26G23G21
  20797241.797    -8397097.43849  -6519729.40048  20797241.449    20797246.747
  20872942.733     -464049.13649   -353420.01647  20872942.223    20872948.868
  23311397.800    -2554734.44849  -1974829.50146  23311397.406    23311403.880
  21780532.837    -8747899.41149  -6794076.94247  21780532.251    21780539.331
  21216875.557     3848077.58949   3002593.85947  21216875.383    21216881.823
  23230699.955     1661973.74549   1403740.62946  23230699.781    23230706.397
  21503609.600    -3507219.35149  -2716616.55447  21503609.691    21503615.743
  22330291.299   -10597159.03149  -8238674.82346  22330290.751    22330298.507
  20528574.447    -3128754.95549  -2253863.59448  20528573.924    20528578.514
 03  6  6 17 59 30.0000000  0  9G18G17G16G15G 6G29G26G23G21
  20789271.677    -8438980.70949  -6552365.69448  20789271.317    20789276.595
  20875984.596     -448064.21549   -340964.24147  20875984.077    20875990.719
  23314640.695    -2537691.12949  -1961549.03945  23314640.311    23314647.047
  21768901.337    -8809023.06849  -6841705.74347  21768900.784    21768907.840
  21229961.169     3916842.76049   3056177.07047  21229961.004    21229967.435
  23240815.046     1715128.58949   1445159.95346  23240814.859    23240821.514
  21506485.511    -3492106.64549  -2704840.42947  21506485.570    21506491.622
  22317347.299   -10665180.11249  -8291678.20246  22317346.733    22317354.483
  20527392.695    -3134965.08049  -2258702.65548  20527392.192    20527396.759
 03  6  6 18  0  0.0000000  0  9G18G17G16G15G 6G29G26G23G21
  20781380.839    -8480447.20849  -6584677.22748  20781380.480    20781385.758
  20879066.642     -431867.99249   -328343.81747  20879066.123    20879072.778
  23317980.377    -2520140.64549  -1947873.33845  23317980.049    23317986.473
  21757295.218    -8870013.73449  -6889230.91747  21757294.688    21757301.691
  21243127.575     3986032.48449   3110091.10247  21243127.409    21243133.845
  23251021.187     1768761.87149   1486952.09446  23251021.023    23251027.608
  21509488.296    -3476326.85449  -2692544.49047  21509488.371    21509494.460
  22304465.524   -10732873.99349  -8344426.61046  22304464.950    22304472.690
  20526255.732    -3140939.86949  -2263358.33348  20526255.229    20526259.795
 03  6  6 18  0 30.0000000  0  9G18G17G16G15G 6G29G26G23G21
  20773569.298    -8521497.08349  -6616664.12248  20773568.938    20773574.215
  20882189.076     -415459.41049   -315557.91447  20882188.572    20882195.238
  23321416.291    -2502084.13749  -1933803.38345  23321415.890    23321422.519
  21745714.590    -8930870.44549  -6936651.70747  21745714.016    21745721.021
  21256374.493     4055645.35949   3164334.85447  21256374.338    21256380.776
  23261318.063     1822872.08549   1529115.86046  23261317.874    23261324.423
  21512617.980    -3459880.44749  -2679729.12447  21512618.014    21512624.107
  22291646.174   -10800240.02749  -8396919.56246  22291645.575    22291653.330
  20525163.625    -3146678.95949  -2267830.35548  20525163.135    20525167.682
 03  6  6 18  1  0.0000000  0  9G18G17G16G15G 6G29G26G23G21
  20765837.072    -8562130.24249  -6648326.30348  20765836.710    20765841.966
  20885351.914     -398838.63449   -302606.67047  20885351.392    20885358.073
  23324948.350    -2483523.12749  -1919340.27046  23324948.053    23324954.743
  21734159.459    -8991592.78549  -6983967.80047  21734158.895    21734165.928
  21269701.642     4125679.80849   3218907.11247  21269701.472    21269707.929
  23271705.343     1877457.38149   1571649.83046  23271705.154    23271711.773
  21515874.478    -3442767.75049  -2666394.56147  21515874.460    21515880.573
  22278889.257   -10867277.80649  -8449156.73046  22278888.676    22278896.390
  20524116.423    -3152182.07349  -2272118.49348  20524115.920    20524120.481
 03  6  6 18  1 30.0000000  0  9G18G17G16G15G 6G29G26G23G21
  20758184.072    -8602346.99049  -6679664.00548  20758183.689    20758188.934
  20888555.173     -382005.50249   -289489.95147  20888554.664    20888561.340
  23328576.287    -2464459.94149  -1904485.84346  23328575.823    23328582.504
  21722629.966    -9052180.67549  -7031179.13047  21722629.366    21722636.425
  21283108.621     4196133.93449   3273806.39047  21283108.461    21283114.929
  23282182.580     1932515.39149   1614552.15346  23282182.440    23282189.008
  21519257.480    -3424989.88149  -2652541.68247  21519257.498    21519263.643
  22266194.801   -10933987.26249  -8501138.06646  22266194.245    22266201.934
  20523114.140    -3157448.97649  -2276222.57548  20523113.644    20523118.248
 03  6  6 18  2  0.0000000  0  9G18G17G16G15G 6G29G26G23G21
  20750610.411    -8642146.71249  -6710676.75348  20750610.062    20750615.271
  20891799.044     -364958.83049   -276206.83947  20891798.529    20891805.196
  23332299.136    -2444894.86349  -1889240.39445  23332298.687    23332305.789
  21711126.296    -9112632.95549  -7078284.78647  21711125.680    21711132.721
  21296595.318     4267006.80649   3329031.95847  21296595.154    21296601.648
  23292749.621     1988045.17149   1657822.06346  23292749.444    23292756.004
  21522767.054    -3406546.65049  -2638170.34347  21522767.118    21522773.266
  22253563.000   -11000367.25949  -8552862.67946  22253562.480    22253570.186
  20522157.034    -3162478.60749  -2280141.77048  20522156.537    20522161.141
 03  6  6 18  2 30.0000000  0  9G18G17G16G15G 6G29G26G23G21
  20743116.101    -8681529.41449  -6741364.55048  20743115.770    20743120.969
  20895083.639     -347698.19149   -262757.00247  20895083.135    20895089.801
  23336117.285    -2424829.34149  -1873604.92545  23336117.041    23336123.702
  21699648.510    -9172948.98949  -7125284.25847  21699647.916    21699654.950
  21310161.464     4338297.17349   3384582.85247  21310161.302    21310167.835
  23303406.154     2044045.15449   1701458.38846  23303405.988    23303412.472
  21526403.239    -3387438.31249  -2623280.73647  21526403.291    21526409.462
  22240994.106   -11066416.94649  -8604329.90846  22240993.611    22241001.309
  20521245.266    -3167270.13649  -2283875.42548  20521244.768    20521249.360
 03  6  6 18  3  0.0000000  0  9G18G17G16G15G 6G29G26G23G21
  20735701.113    -8720495.39949  -6771727.63848  20735700.773    20735705.965
  20898408.922     -330223.74649   -249140.56047  20898408.393    20898415.060
  23340030.958    -2404265.68649  -1857581.29445  23340030.612    23340036.730
  21688196.716    -9233128.78949  -7172177.59747  21688196.094    21688203.095
  21323806.637     4410002.89849   3440457.39347  21323806.436    21323813.038
  23314151.606     2100512.73149   1745459.07246  23314151.468    23314157.908
  21530165.785    -3367666.14349  -2607873.86347  21530165.836    21530172.000
  22228488.059   -11132136.58449  -8655539.96346  22228487.558    22228495.207
  20520378.768    -3171823.75649  -2287423.70548  20520378.268    20520382.821
 03  6  6 18  3 30.0000000  0  9G18G17G16G15G 6G29G26G23G21
  20728365.419    -8759044.73549  -6801766.06348  20728365.052    20728370.259
  20901774.913     -312535.34949   -235357.40547  20901774.393    20901781.087
  23344038.815    -2383205.30549  -1841170.62445  23344038.389    23344044.689
  21676770.958    -9293171.65649  -7218964.22447  21676770.304    21676777.286
  21337530.543     4482122.30449   3496654.29247  21337530.355    21337536.984
  23324985.683     2157446.21649   1789822.79846  23324985.508    23324991.981
  21534054.516    -3347230.58849  -2591950.06447  21534054.574    21534060.758
  22216044.876   -11197525.57549  -8706492.35846  22216044.412    22216052.036
  20519557.617    -3176139.01749  -2290786.24748  20519557.116    20519561.643
 03  6  6 18  4  0.0000000  0  9G18G17G16G15G 6G29G26G23G21
  20721109.118    -8797176.82749  -6831479.36048  20721108.735    20721113.940
  20905181.842     -294631.93149   -221406.70247  20905181.324    20905188.034
  23348140.727    -2361648.96649  -1824373.54945  23348140.379    23348147.207
  21665371.479    -9353076.41049  -7265643.23947  21665370.796    21665377.760
  21351333.014     4554654.55049   3553172.87947  21351332.840    21351339.457
  23335908.224     2214844.65249   1834548.81546  23335908.087    23335914.522
  21538069.537    -3326131.50549  -2575509.23247  21538069.585    21538075.772
  22203664.877   -11262582.73449  -8757186.20646  22203664.433    22203671.980
  20518782.071    -3180214.61349  -2293962.03748  20518781.563    20518786.090
 03  6  6 18  4 30.0000000  0  9G18G17G16G15G 6G29G26G23G21
  20713932.407    -8834890.65549  -6860866.73948  20713932.033    20713937.231
  20908630.084     -276511.40149   -207286.82347  20908629.567    20908636.256
  23352336.683    -2339597.23649  -1807190.44345  23352336.345    23352343.295
  21653998.535    -9412841.31349  -7312213.28247  21653997.879    21654004.863
  21365213.977     4627599.20749   3610012.82747  21365213.790    21365220.393
  23346919.105     2272706.92449   1879636.26646  23346918.904    23346925.295
  21542210.951    -3304368.61449  -2558551.14647  21542210.938    21542217.133
  22191348.395   -11327306.47649  -8807620.24146  22191347.880    22191355.408
  20518052.418    -3184048.89149  -2296949.79048  20518051.908    20518056.461
 03  6  6 18  5  0.0000000  0  9G18G17G16G15G 6G29G26G23G21
  20706835.099    -8872187.26049  -6889929.01448  20706834.727    20706839.900
  20912119.428     -258174.81749   -192998.58847  20912118.911    20912125.586
  23356626.905    -2317052.81549  -1789623.36245  23356626.613    23356632.841
  21642652.220    -9472466.80849  -7358674.70247  21642651.524    21642658.503
  21379172.900     4700953.74549   3667172.15347  21379172.737    21379179.338
  23358017.619     2331030.26649   1925082.97846  23358017.472    23358023.868
  21546478.335    -3281943.62449  -2541077.14247  21546478.274    21546484.494
  22179095.109   -11391697.51249  -8857795.03046  22179094.632    22179102.150
  20517368.554    -3187642.47749  -2299749.99548  20517368.052    20517372.618
 03  6  6 18  5 30.0000000  0  9G18G17G16G15G 6G29G26G23G21
  20699816.782    -8909068.75249  -6918667.81948  20699816.405    20699821.573
  20915649.629     -239623.70349   -178543.18847  20915649.117    20915655.760
  23361010.408    -2294019.32449  -1771675.19045  23361009.929    23361016.109
  21631332.106    -9531954.25349  -7405028.53847  21631331.451    21631338.398
  21393209.130     4774714.44249   3724647.97447  21393208.949    21393215.592
  23369203.178     2389810.83749   1970885.98546  23369203.068    23369209.467
  21550871.134    -3258859.19149  -2523089.27947  21550871.122    21550877.331
  22166904.856   -11455757.44649  -8907711.81746  22166904.341    22166911.903
  20516730.190    -3190997.18249  -2302364.05648  20516729.694    20516734.270
 03  6  6 18  6  0.0000000  0  9G18G17G16G15G 6G29G26G23G21
  20692877.671    -8945533.77649  -6947082.11348  20692877.319    20692882.488
  20919221.014     -220856.00649   -163919.02447  20919220.495    20919227.157
  23365486.427    -2270496.70449  -1753345.91145  23365486.021    23365492.727
  21620038.726    -9591301.49249  -7451273.12647  21620038.059    21620044.979
  21407322.634     4848881.31149   3782440.29447  21407322.479    21407329.115
  23380475.644     2449048.15249   2017044.90346  23380475.544    23380481.975
  21555389.571    -3235114.47949  -2504586.92147  21555389.624    21555395.806
  22154778.034   -11519484.33349  -8957369.08646  22154777.497    22154785.041
  20516137.832    -3194109.94749  -2304789.59848  20516137.344    20516141.921
 03  6  6 18  6 30.0000000  0  9G18G17G16G15G 6G29G26G23G21
  20686017.951    -8981581.81349  -6975171.47948  20686017.598    20686022.772
  20922833.734     -201870.94849   -149125.48747  20922833.214    20922839.883
  23370055.200    -2246486.22749  -1734636.53245  23370054.897    23370062.129
  21608772.200    -9650507.37249  -7497407.56747  21608771.559    21608778.481
  21421513.250     4923453.25849   3840548.25147  21421513.075    21421519.738
  23391834.875     2508741.20449   2063558.92846  23391834.739    23391841.229
  21560033.670    -3210709.68249  -2485570.20947  21560033.729    21560039.938
  22142714.763   -11582877.22049  -9006766.08946  22142714.178    22142721.728
  20515591.646    -3196980.19949  -2307026.16748  20515591.162    20515595.727
 03  6  6 18  7  0.0000000  0  9G18G17G16G15G 6G29G26G23G21
  20679237.593    -9017212.68149  -7002935.77848  20679237.242    20679242.424
  20926487.972     -182667.84749   -134162.04147  20926487.464    20926494.145
  23374716.840    -2221989.41349  -1715548.14545  23374716.551    23374723.645
  21597532.714    -9709570.96749  -7543431.13147  21597532.060    21597539.051
  21435780.614     4998428.73049   3898970.65547  21435780.458    21435787.123
  23403280.391     2568887.89049   2110426.43846  23403280.286    23403286.812
  21564803.208    -3185645.53649  -2466039.72347  21564803.287    21564809.507
  22130715.050   -11645935.36849  -9055902.26946  22130714.586    22130722.141
  20515091.677    -3199607.68749  -2309073.56448  20515091.188    20515095.753
 03  6  6 18  7 30.0000000  0  9G18G17G16G15G 6G29G26G23G21
  20672536.470    -9052427.25249  -7030375.68848  20672536.121    20672541.331
  20930183.679     -163246.73349   -119028.71347  20930183.166    20930189.877
  23379470.854    -2197008.31049  -1696082.33545  23379470.569    23379476.874
  21586320.317    -9768492.18249  -7589343.73647  21586319.672    21586326.736
  21450124.402     5073805.64849   3957705.87047  21450124.258    21450130.951
  23414811.790     2629486.13349   2157645.80445  23414811.723    23414818.327
  21569697.969    -3159923.26449  -2445996.40147  21569698.089    21569704.311
  22118779.160   -11708658.88149  -9104777.67746  22118778.678    22118786.184
  20514637.953    -3201991.96249  -2310931.44648  20514637.462    20514642.051
 03  6  6 18  8  0.0000000  0  9G18G17G16G15G 6G29G26G23G21
  20665914.418    -9087226.36449  -7057491.86848  20665914.055    20665919.254
  20933920.826     -143607.95949   -103725.79147  20933920.308    20933927.047
  23384316.360    -2171545.56049  -1676241.23545  23384315.936    23384322.303
  21575134.947    -9827271.52149  -7635145.81347  21575134.335    21575141.408
  21464544.095     5149581.35749   4016751.83147  21464543.925    21464550.670
  23426428.592     2690532.77349   2205214.57045  23426428.501    23426435.162
  21574717.682    -3133544.73849  -2425441.72747  21574717.794    21574724.005
  22106906.794   -11771048.36049  -9153392.81446  22106906.337    22106913.836
  20514230.429    -3204133.29149  -2312600.02548  20514229.934    20514234.551
 03  6  6 18  8 30.0000000  0  9G18G17G16G15G 6G29G26G23G21
  20659371.671    -9121608.63549  -7084283.23548  20659371.325    20659376.515
  20937699.738     -123749.66449    -88251.80347  20937699.213    20937705.990
  23389253.150    -2145601.31749  -1656025.03145  23389252.886    23389259.923
  21563976.982    -9885906.79449  -7680835.61747  21563976.390    21563983.449
  21479039.660     5225755.98049   4076108.63547  21479039.461    21479046.228
  23438130.737     2752027.54649   2253132.54446  23438130.679    23438137.333
  21579862.395    -3106509.21349  -2404375.09647  21579862.502    21579868.703
  22095098.334   -11833101.99849  -9201746.25247  22095097.892    22095105.395
  20513869.564    -3206029.64649  -2314077.71048  20513869.084    20513873.721
 03  6  6 18  9  0.0000000  0  9G18G17G16G15G 6G29G26G23G21
  20652908.021    -9155575.23349  -7110750.70348  20652907.680    20652912.856
  20941520.318     -103672.35349    -72607.15947  20941519.807    20941526.586
  23394281.446    -2119178.52749  -1635435.89545  23394281.107    23394288.393
  21552846.429    -9944398.46349  -7726413.53047  21552845.805    21552852.816
  21493610.574     5302326.57149   4135773.98847  21493610.433    21493617.202
  23449917.570     2813967.27849   2301397.24045  23449917.470    23449924.241
  21585131.764    -3078818.68949  -2382798.08047  21585131.904    21585138.089
  22083353.744   -11894820.37149  -9249838.44447  22083353.263    22083360.745
  20513555.228    -3207681.60049  -2315364.95348  20513554.751    20513559.362
 03  6  6 18  9 30.0000000  0  9G18G17G16G15G 6G29G26G23G21
  20646523.393    -9189126.78849  -7136894.76548  20646523.039    20646528.178
  20945382.553      -83376.18149    -56791.97047  20945382.034    20945388.825
  23399400.152    -2092278.13849  -1614474.35645  23399399.901    23399407.231
  21541743.285   -10002746.01249  -7771879.13847  21541742.662    21541749.646
  21508256.505     5379291.03549   4195746.25047  21508256.334    21508263.079
  23461788.727     2876350.94149   2350008.07745  23461788.681    23461795.568
  21590525.595    -3050474.30749  -2360711.56547  21590525.690    21590531.828
  22071672.949   -11956203.40349  -9297669.33347  22071672.419    22071679.892
  20513287.446    -3209088.84649  -2316461.51848  20513286.967    20513291.585
 03  6  6 18 10  0.0000000  0  9G18G17G16G15G 6G29G26G23G21
  20640218.087    -9222261.29049  -7162713.84848  20640217.735    20640222.880
  20949286.945      -62858.52649    -40804.20347  20949286.431    20949293.227
  23404609.843    -2064901.84649  -1593142.20745  23404609.446    23404616.389
  21530668.037   -10060946.63249  -7817230.25947  21530667.409    21530674.416
  21522977.374     5456649.63449   4256025.63147  21522977.223    21522983.961
  23473744.011     2939176.49449   2398963.00445  23473743.895    23473750.817
  21596043.943    -3021475.30049  -2338114.94947  21596044.030    21596050.190
  22060056.317   -12017248.77849  -9345237.12047  22060055.831    22060063.317
  20513066.698    -3210249.05949  -2317365.59048  20513066.230    20513070.828
 03  6  6 18 10 30.0000000  0  9G18G17G16G15G 6G29G26G23G21
  20633991.633    -9254981.38649  -7188210.02148  20633991.285    20633996.435
  20953233.201      -42120.92149    -24645.04147  20953232.679    20953239.467
  23409909.257    -2037052.87949  -1571441.73645  23409908.867    23409915.949
  21519620.465   -10119001.85049  -7862468.07647  21519619.887    21519626.879
  21537772.509     5534398.41649   4316609.04847  21537772.380    21537779.121
  23485782.636     3002440.49549   2448259.58345  23485782.541    23485789.585
  21601686.338    -2991824.68749  -2315010.59747  21601686.343    21601692.549
  22048503.548   -12077958.56049  -9392543.39447  22048503.119    22048510.552
  20512892.621    -3211163.95949  -2318078.50748  20512892.150    20512896.739
 03  6  6 18 11  0.0000000  0  9G18G17G16G15G 6G29G26G23G21
  20627844.355    -9287285.60649  -7213382.13948  20627844.021    20627849.180
  20957221.656      -21161.64549     -8313.14747  20957221.118    20957227.900
  23415298.598    -2008731.34649  -1549373.08545  23415298.296    23415305.664
  21508600.978   -10176909.62349  -7907590.99947  21508600.406    21508607.389
  21552641.864     5612537.25649   4377496.41047  21552641.727    21552648.520
  23497904.720     3066142.75049   2497897.65345  23497904.599    23497911.703
  21607452.742    -2961521.85149  -2291398.01947  21607452.791    21607459.020
  22037015.014   -12138330.77949  -9439586.64147  22037014.602    22037022.074
  20512765.613    -3211831.16449  -2318598.42148  20512765.158    20512769.764
 03  6  6 18 11 30.0000000  0  9G18G17G16G15G 6G29G26G23G21
  20621776.143    -9319174.16949  -7238230.36648  20621775.802    20621780.947
  20961252.279          19.58449      8191.69447  20961251.767    20961258.528
  23420777.723    -1979939.38449  -1526937.83946  23420777.394    23420784.794
  21497609.661   -10234669.39749  -7952598.60547  21497609.065    21497616.065
  21567585.137     5691064.33249   4438686.29847  21567585.001    21567591.764
  23510109.922     3130280.89249   2547875.38345  23510109.799    23510116.774
  21613343.016    -2930568.19949  -2267278.31047  21613343.044    21613349.330
  22025590.830   -12198365.26149  -9486366.71847  22025590.371    22025597.834
  20512685.893    -3212250.17449  -2318924.93148  20512685.443    20512690.045
 03  6  6 18 12  0.0000000  0  9G18G17G16G15G 6G29G26G23G21
  20615786.797    -9350648.27849  -7262755.64248  20615786.478    20615791.648
  20965325.181       21422.78149     24869.49647  20965324.678    20965331.468
  23426345.701    -1950679.34149  -1504137.84445  23426345.388    23426352.653
  21486646.553   -10292281.04749  -7997490.79547  21486645.934    21486652.893
  21582601.822     5769977.31549   4500176.88947  21582601.676    21582608.452
  23522397.508     3194852.35349   2598190.77445  23522397.433    23522404.272
  21619356.749    -2898965.34049  -2242652.72247  21619356.841    21619363.134
  22014230.791   -12258062.44049  -9532883.95847  22014230.335    22014237.755
  20512653.406    -3212420.98949  -2319058.04848  20512652.936    20512657.549
 03  6  6 18 12 30.0000000  0  9G18G17G16G15G 6G29G26G23G21
  20609876.390    -9381707.63249  -7286957.73048  20609876.080    20609881.244
  20969440.452       43048.66949     41720.82247  20969439.939    20969446.753
  23432002.481    -1920952.88449  -1480974.40745  23432002.192    23432009.242
  21475711.719   -10349743.95249  -8042267.07147  21475711.105    21475718.058
  21597691.642     5849274.56749   4561966.91347  21597691.479    21597698.280
  23534767.339     3259855.34549   2648842.42045  23534767.270    23534774.001
  21625494.031    -2866714.15549  -2217521.93947  21625494.042    21625500.328
  22002935.025   -12317421.87849  -9579138.02347  22002934.585    22002941.989
  20512668.289    -3212342.93149  -2318997.23048  20512667.815    20512672.395
 03  6  6 18 13  0.0000000  0  9G18G17G16G15G 6G29G26G23G21
  20604044.802    -9412352.92049  -7310837.17248  20604044.467    20604049.639
  20973598.109       64897.21749     58745.65547  20973597.621    20973604.433
  23437747.812    -1890762.31549  -1457449.31345  23437747.476    23437754.390
  21464805.320   -10407057.25949  -8086926.77547  21464804.705    21464811.676
  21612854.155     5928953.92349   4624054.68147  21612854.002    21612860.798
  23547218.716     3325287.44249   2699828.42745  23547218.600    23547225.352
  21631754.221    -2833816.07249  -2191887.08847  21631754.308    21631760.612
  21991703.549   -12376443.47249  -9625128.83047  21991703.111    21991710.514
  20512730.566    -3212015.58449  -2318742.16248  20512730.073    20512734.681
 03  6  6 18 13 30.0000000  0  9G18G17G16G15G 6G29G26G23G21
  20598292.109    -9442583.56449  -7334393.51448  20598291.769    20598296.943
  20977798.373       86969.75149     75945.02047  20977797.893    20977804.708
  23443580.761    -1860108.59349  -1433563.34045  23443580.507    23443587.530
  21453927.733   -10464219.35149  -8131468.64547  21453927.105    21453934.077
  21628089.208     6009014.48849   4686439.49347  21628089.075    21628095.884
  23559751.559     3391147.51149   2751147.92645  23559751.364    23559758.117
  21638137.541    -2800271.37049  -2165748.36947  21638137.649    21638143.980
  21980536.568   -12435126.08249  -9670855.49147  21980536.162    21980543.538
  20512840.519    -3211437.77749  -2318291.93248  20512840.056    20512844.654
 03  6  6 18 14  0.0000000  0  9G18G17G16G15G 6G29G26G23G21
  20592618.336    -9472399.40549  -7357626.63648  20592617.997    20592623.181
  20982041.575      109267.75949     93320.07847  20982041.095    20982047.924
  23449501.865    -1828993.10149  -1409317.59545  23449501.578    23449508.713
  21443079.112   -10521229.15749  -8175891.86347  21443078.506    21443085.466
  21643396.565     6089454.97049   4749120.33747  21643396.409    21643403.253
  23572365.412     3457433.89849   2802799.60445  23572365.261    23572372.073
  21644643.823    -2766080.65249  -2139106.26747  21644643.875    21644650.208
  21969434.326   -12493468.89049  -9716317.38347  21969433.867    21969441.249
  20512998.405    -3210608.14949  -2317645.48248  20512997.947    20513002.546
 03  6  6 18 14 30.0000000  0  9G18G17G16G15G 6G29G26G23G21
  20587022.971    -9501803.13949  -7380538.63248  20587022.651    20587027.829
  20986327.130      131788.39249    110868.60947  20986326.658    20986333.466
  23455510.055    -1797420.55849  -1384715.60645  23455509.878    23455516.644
  21432259.026   -10578088.73949  -8220198.01847  21432258.466    21432265.377
  21658775.372     6170270.89449   4812093.73947  21658775.232    21658782.040
  23585059.588     3524141.85049   2854779.78645  23585059.463    23585066.146
  21651272.196    -2731247.96449  -2111963.93047  21651272.306    21651278.678
  21958396.211   -12551474.45149  -9761516.48147  21958395.719    21958403.102
  20513203.790    -3209528.98149  -2316804.58148  20513203.325    20513207.944
 03  6  6 18 15  0.0000000  0  9G18G17G16G15G 6G29G26G23G21
  20581506.315    -9530793.20249  -7403128.28848  20581506.010    20581511.190
  20990655.600      154534.69149    128592.98347  20990655.142    20990661.939
  23461605.199    -1765390.77949  -1359757.42245  23461604.919    23461611.979
  21421468.123   -10634795.21949  -8264384.88247  21421467.587    21421474.480
  21674225.682     6251462.49649   4875359.87247  21674225.516    21674232.324
  23597833.924     3591271.34149   2907088.43245  23597833.749    23597840.461
  21658022.893    -2695772.61449  -2084320.82047  21658023.003    21658029.419
  21947422.671   -12609140.53249  -9806451.05947  21947422.196    21947429.574
  20513457.170    -3208197.49849  -2315767.07548  20513456.709    20513461.328
 03  6  6 18 15 30.0000000  0  9G18G17G16G15G 6G29G26G23G21
  20576068.378    -9559369.76349  -7425395.73248  20576068.045    20576073.219
  20995027.038      177506.59949    146493.16247  20995026.566    20995033.340
  23467786.599    -1732905.89149  -1334444.58645  23467786.459    23467793.537
  21410706.562   -10691347.86449  -8308451.86447  21410705.987    21410712.857
  21689747.060     6333027.79549   4938917.19947  21689746.901    21689753.750
  23610688.160     3658820.23749   2959723.91346  23610687.931    23610694.590
  21664895.721    -2659655.75149  -2056177.81647  21664895.795    21664902.238
  21936513.801   -12666466.90549  -9851120.92347  21936513.298    21936520.682
  20513758.668    -3206613.08649  -2314532.47548  20513758.191    20513762.841
 03  6  6 18 16  0.0000000  0  9G18G17G16G15G 6G29G26G23G21
  20570708.752    -9587534.87749  -7447342.57248  20570708.435    20570713.596
  20999441.204      200703.04249    164568.29747  20999440.740    20999447.453
  23474054.535    -1699969.49549  -1308779.89145  23474054.231    23474061.010
  21399973.965   -10747747.79649  -8352399.85547  21399973.417    21399980.290
  21705338.916     6414963.31949   5002763.00247  21705338.747    21705345.658
  23623621.423     3726784.81449   3012683.27745  23623621.147    23623627.858
  21671890.130    -2622900.19949  -2027537.13647  21671890.173    21671896.611
  21925669.282   -12723454.95549  -9895527.15847  21925668.835    21925676.194
  20514108.110    -3204776.80049  -2313101.61348  20514107.629    20514112.282
 03  6  6 18 16 30.0000000  0  9G18G17G16G15G 6G29G26G23G21
  20565427.943    -9615285.77849  -7468966.64848  20565427.611    20565432.771
  21003898.856      224127.96049    182821.47347  21003898.384    21003905.071
  23480408.334    -1666580.64649  -1282762.64745  23480408.021    23480414.771
  21389271.206   -10803991.16649  -8396225.85147  21389270.626    21389277.518
  21721001.372     6497270.12249   5066898.12447  21721001.254    21721008.156
  23636633.876     3795165.63549   3065967.01045  23636633.719    23636640.237
  21679006.344    -2585504.50349  -1998397.64647  21679006.376    21679012.800
  21914889.787   -12780101.60249  -9939667.36747  21914889.318    21914896.664
  20514506.099    -3202685.41049  -2311471.96648  20514505.623    20514510.256
 03  6  6 18 17  0.0000000  0  9G18G17G16G15G 6G29G26G23G21
  20560225.266    -9642625.95749  -7490270.68448  20560224.942    20560230.080
  21008399.419      247778.64549    201250.56847  21008398.938    21008405.672
  23486846.827    -1632744.06349  -1256396.58445  23486846.564    23486853.802
  21378597.853   -10860079.92149  -8439931.36647  21378597.285    21378604.160
  21736733.628     6579943.42949   5131318.82847  21736733.482    21736740.362
  23649724.658     3863957.84649   3119571.29645  23649724.496    23649731.034
  21686243.481    -2547472.99449  -1968762.70947  21686243.566    21686250.023
  21904174.830   -12836409.49949  -9983543.61647  21904174.256    21904181.598
  20514952.226    -3200340.95549  -2309645.12948  20514951.734    20514956.360
 03  6  6 18 17 30.0000000  0  9G18G17G16G15G 6G29G26G23G21
  20555100.999    -9669554.22049  -7511253.74748  20555100.690    20555105.835
  21012943.351      271657.23549    219857.24647  21012942.872    21012949.665
  23493371.108    -1598460.55849  -1229682.18345  23493370.767    23493377.739
  21367954.409   -10916011.78449  -8483514.62547  21367953.843    21367960.698
  21752535.581     6662982.97649   5196024.91647  21752535.443    21752542.323
  23662893.543     3933160.92049   3173495.74845  23662893.460    23662899.972
  21693601.700    -2508805.36749  -1938632.11147  21693601.782    21693608.293
  21893524.509   -12892376.96149 -10027154.59447  21893523.999    21893531.317
  20515446.950    -3197741.32749  -2307619.45548  20515446.482    20515451.073
 03  6  6 18 18  0.0000000  0  9G18G17G16G15G 6G29G26G23G21
  20550055.007    -9696070.91049  -7531916.09748  20550054.693    20550059.872
  21017530.759      295764.20249    238641.88647  21017530.277    21017537.085
  23499979.851    -1563732.05849  -1202621.06245  23499979.403    23499986.238
  21357340.924   -10971786.10049  -8526975.11647  21357340.331    21357347.222
  21768406.900     6746387.01649   5261015.02547  21768406.745    21768413.634
  23676140.228     4002772.65749   3227738.61945  23676140.159    23676146.639
  21701080.650    -2469503.02149  -1908006.90847  21701080.754    21701087.281
  21882938.991   -12948003.94449 -10070500.25747  21882938.497    21882945.799
  20515990.336    -3194885.92249  -2305394.46648  20515989.866    20515994.466
 03  6  6 18 18 30.0000000  0  9G18G17G16G15G 6G29G26G23G21
  20545087.304    -9722176.45949  -7552258.08148  20545086.982    20545092.153
  21022161.647      320099.62149    257604.53347  21022161.181    21022167.982
  23506672.533    -1528560.62949  -1175214.83145  23506672.268    23506679.170
  21346757.516   -11027402.12449  -8570312.26847  21346756.928    21346763.837
  21784347.146     6830153.37849   5326287.46547  21784347.010    21784353.933
  23689464.233     4072790.78649   3282298.15745  23689464.135    23689470.654
  21708680.090    -2429567.55849  -1876888.37647  21708680.184    21708686.756
  21872418.349   -13003290.40649 -10113580.58047  21872417.810    21872425.110
  20516582.497    -3191774.07849  -2302969.66348  20516582.026    20516586.639
 03  6  6 18 19  0.0000000  0  9G18G17G16G15G 6G29G26G23G21
  20540197.734    -9747871.42049  -7572280.13048  20540197.407    20540202.577
  21026836.120      344664.10449    276745.67347  21026835.654    21026842.442
  23513449.584    -1492948.47849  -1147465.14845  23513449.208    23513456.243
  21336204.401   -11082859.05049  -8613525.45147  21336203.833    21336210.728
  21800355.919     6914280.02749   5391840.63747  21800355.808    21800362.761
  23702865.235     4143212.97949   3337172.55145  23702865.048    23702871.625
  21716399.694    -2389000.41849  -1845277.63747  21716399.869    21716406.446
  21861962.451   -13058236.21849 -10156395.47547  21861961.949    21861969.230
  20517223.558    -3188405.31349  -2300344.66348  20517223.102    20517227.705
 03  6  6 18 19 30.0000000  0  9G18G17G16G15G 6G29G26G23G21
  20535386.077    -9773156.76649  -7591982.99048  20535385.758    20535390.931
  21031554.149      369457.27949    296065.02147  21031553.668    21031560.451
  23520309.633    -1456898.60449  -1119374.38345  23520309.249    23520316.359
  21325681.583   -11138156.60149  -8656614.43847  21325681.028    21325687.956
  21816432.773     6998764.32549   5457672.49847  21816432.658    21816439.644
  23716342.510     4214036.43349   3392359.62545  23716342.328    23716348.966
  21724239.179    -2347803.81249  -1813176.39747  21724239.342    21724245.917
  21851571.281   -13112841.92549 -10198945.33747  21851570.802    21851578.072
  20517913.490    -3184779.77149  -2297519.56748  20517913.014    20517917.645
 03  6  6 18 20  0.0000000  0  9G18G17G16G15G 6G29G26G23G21
  20530652.404    -9798032.43549  -7611366.62948  20530652.075    20530657.245
  21036315.989      394480.70049    315563.77347  21036315.492    21036322.271
  23527252.603    -1420412.45249  -1090943.64845  23527252.391    23527259.348
  21315189.417   -11193293.52149  -8699578.26447  21315188.842    21315195.728
  21832577.474     7083605.02649   5523782.07247  21832577.371    21832584.384
  23729895.830     4285259.49349   3447858.07545  23729895.665    23729902.335
  21732198.230    -2305978.68649  -1780585.40446  21732198.442    21732204.990
  21841244.978   -13167106.84749 -10241229.65247  21841244.481    21841251.758
  20518652.526    -3180896.04249  -2294493.29648  20518652.053    20518656.705
 03  6  6 18 20 30.0000000  0  9G18G17G16G15G 6G29G26G23G21
  20525996.714    -9822498.13249  -7630430.80548  20525996.408    20526001.561
  21041121.873      419735.53449    335242.85247  21041121.365    21041128.123
  23534278.725    -1383491.56649  -1062174.21345  23534278.418    23534285.380
  21304728.056   -11248268.51949  -8742415.92147  21304727.484    21304734.316
  21848789.691     7168800.66449   5590168.22647  21848789.578    21848796.619
  23743524.872     4356880.59049   3503666.68945  23743524.740    23743531.462
  21740276.657    -2263526.16549  -1747505.52846  21740276.909    21740283.421
  21830983.618   -13221030.44849 -10283248.00447  21830983.115    21830990.397
  20519440.935    -3176752.90149  -2291264.88047  20519440.467    20519445.123
 03  6  6 18 21  0.0000000  0  9G18G17G16G15G 6G29G26G23G21
  20521418.483    -9846556.80449  -7649177.81748  20521418.188    20521423.340
  21045971.261      445219.36449    355100.37247  21045970.767    21045977.508
  23541386.285    -1346140.60549  -1033069.60145  23541385.919    23541392.949
  21294297.119   -11303083.46449  -8785128.84347  21294296.515    21294303.366
  21865068.564     7254346.62649   5656827.35047  21865068.438    21865075.527
  23757228.708     4428894.78449   3559781.61145  23757228.623    23757235.447
  21748473.836    -2220450.05049  -1713939.73246  21748474.085    21748480.537
  21820786.761   -13274615.10949 -10325002.24447  21820786.274    21820793.560
  20520278.285    -3172352.65849  -2287836.12447  20520277.817    20520282.462
 03  6  6 18 21 30.0000000  0  9G18G17G16G15G 6G29G26G23G21
  20516918.433    -9870204.89449  -7667604.90248  20516918.133    20516923.283
  21050865.124      470936.93449    375140.01947  21050864.640    21050871.416
  23548575.958    -1308357.47249  -1003628.26345  23548575.790    23548582.876
  21283897.660   -11357732.97749  -8827712.87547  21283897.055    21283903.907
  21881414.521     7340245.26849   5723761.29047  21881414.412    21881421.534
  23771007.717     4501304.23149   3616204.50745  23771007.584    23771014.521
  21756790.136    -2176747.83649  -1679886.07646  21756790.437    21756796.792
  21810655.173   -13327856.53749 -10366489.04347  21810654.748    21810662.009
  20521165.447    -3167690.55249  -2284203.32747  20521164.983    20521169.623
 03  6  6 18 22  0.0000000  0  9G18G17G16G15G 6G29G26G23G21
  20512495.714    -9893446.36449  -7685715.13048  20512495.425    20512500.578
  21055802.920      496885.15349    395359.39947  21055802.451    21055809.217
  23555847.231    -1270148.20749   -973854.84845  23555846.946    23555853.898
  21273529.128   -11412219.95449  -8870170.23547  21273528.503    21273535.382
  21897826.590     7426491.10949   5790965.77547  21897826.490    21897833.653
  23784860.850     4574103.06849   3672930.83145  23784860.753    23784867.668
  21765224.564    -2132424.88349  -1645348.72046  21765224.838    21765231.124
  21800588.361   -13380758.16249 -10407711.04747  21800587.897    21800595.145
  20522101.984    -3162769.13749  -2280368.46148  20522101.525    20522106.148
 03  6  6 18 22 30.0000000  0  9G18G17G16G15G 6G29G26G23G21
  20508150.807    -9916279.08649  -7703506.86648  20508150.523    20508155.655
  21060785.158      523066.93749    415760.76947  21060784.692    21060791.455
  23563199.483    -1231512.39849   -943749.11345  23563199.157    23563206.380
  21263192.104   -11466541.20249  -8912498.48147  21263191.499    21263198.358
  21914304.761     7513084.47849   5858441.05047  21914304.663    21914311.842
  23798788.206     4647291.41249   3729960.65145  23798788.022    23798795.086
  21773777.296    -2087480.23249  -1610326.93946  21773777.587    21773783.840
  21790586.620   -13433317.54449 -10448666.38047  21790586.161    21790593.378
  20523088.436    -3157585.42349  -2276329.21548  20523087.962    20523092.613
 03  6  6 18 23  0.0000000  0  9G18G17G16G15G 6G29G26G23G21
  20503883.206    -9938705.39349  -7720981.90148  20503882.897    20503888.065
  21065811.680      549481.34549    436343.41247  21065811.192    21065817.980
  23570632.042    -1192453.89749   -913313.98745  23570631.841    23570639.067
  21252886.508   -11520697.44549  -8954698.12747  21252885.923    21252892.765
  21930848.381     7600021.62449   5926184.21347  21930848.290    21930855.473
  23812788.808     4720865.31549   3787290.92545  23812788.739    23812795.699
  21782447.647    -2041917.31049  -1574823.37046  21782447.925    21782454.176
  21780649.739   -13485536.35549 -10489356.32247  21780649.220    21780656.452
  20524124.563    -3152140.59649  -2272086.49548  20524124.085    20524128.755
 03  6  6 18 23 30.0000000  0  9G18G17G16G15G 6G29G26G23G21
  20499692.873    -9960725.78349  -7738140.64348  20499692.578    20499697.742
  21070882.544      576128.94149    457107.75047  21070882.062    21070888.860
  23578144.882    -1152975.01049   -882551.24145  23578144.540    23578151.520
  21242612.508   -11574687.61049  -8996768.37747  21242611.936    21242618.772
  21947457.085     7687300.71049   5994193.81447  21947457.041    21947464.199
  23826862.473     4794822.53149   3844919.88745  23826862.416    23826869.266
  21791235.386    -1995737.78849  -1538839.34946  21791235.651    21791241.888
  21770777.632   -13537414.55849 -10529780.86347  21770777.125    21770784.327
  20525210.529    -3146433.80449  -2267639.65348  20525210.043    20525214.750
 03  6  6 18 24  0.0000000  0  9G18G17G16G15G 6G29G26G23G21
  20495579.452    -9982341.89349  -7754984.36048  20495579.166    20495584.324
  21075997.677      603009.22049    478053.40647  21075997.191    21076004.034
  23585736.764    -1113079.09749   -851463.55745  23585736.385    23585743.640
  21232370.028   -11628512.03949  -9038709.46547  21232369.457    21232376.312
  21964130.318     7774918.60949   6062467.43247  21964130.229    21964137.380
  23841008.469     4869159.98749   3902845.13845  23841008.423    23841015.255
  21800139.944    -1948944.49349  -1502377.05946  21800140.157    21800146.398
  21760970.116   -13588953.30049 -10569940.88847  21760969.594    21760976.771
  20526346.207    -3140465.63349  -2262989.14047  20526345.747    20526350.465
 03  6  6 18 24 30.0000000  0  9G18G17G16G15G 6G29G26G23G21
  20491543.591   -10003550.33349  -7771510.40948  20491543.320    20491548.472
  21081157.880      630126.31249    499183.59047  21081157.418    21081164.315
  23593408.258    -1072764.54349   -820049.74145  23593408.033    23593415.459
  21222159.985   -11682166.04249  -9080517.77147  21222159.415    21222166.296
  21980868.310     7862877.09449   6131006.44246  21980868.222    21980875.373
  23855227.091     4943878.91549   3961067.62845  23855226.930    23855233.833
  21809161.674    -1901535.19949  -1465434.77246  21809161.851    21809168.103
  21751227.891   -13640148.62749 -10609833.32147  21751227.449    21751234.594
  20527532.483    -3134231.66849  -2258131.50847  20527532.015    20527536.742
 03  6  6 18 25  0.0000000  0 10G18G 3G17G16G15G 6G29G26G23G21
  20487584.576   -10024355.25949  -7787722.03948  20487584.291    20487589.440
                  -1292870.06649   -966782.20543
  21086362.529      657476.77949    520495.61747  21086362.065    21086368.952
  23601158.717    -1032037.30849   -788314.27545  23601158.368    23601165.514
  21211981.781   -11735652.68749  -9122195.65547  21211981.251    21211988.116
  21997670.032     7951170.35749   6199806.30746  21997669.920    21997677.077
  23869517.202     5018973.38449   4019582.77145  23869517.007    23869523.929
  21818299.573    -1853515.48549  -1428016.82746  21818299.735    21818305.973
  21741550.361   -13691004.37049 -10649461.13947  21741549.918    21741557.027
  20528768.818    -3127734.86749  -2253069.07647  20528768.349    20528773.065
 03  6  6 18 25 30.0000000  0 10G18G 3G17G16G15G 6G29G26G23G21
  20483702.484   -10044755.84149  -7803618.58848  20483702.198    20483707.312
                  -1389254.04949   -713369.21643
  21091611.977      685062.56849    541991.01947  21091611.521    21091618.375
  23608986.951     -990898.29449   -756257.96945  23608986.589    23608993.714
  21201835.917   -11788969.62349  -9163741.30647  21201835.375    21201842.216
  22014535.289     8039797.67549   6268866.48046  22014535.194    22014542.392
  23883878.510     5094442.42349   4078389.76845  23883878.425    23883885.287
  21827553.465    -1804885.91849  -1390123.67046  21827553.629    21827559.859
  21731937.713   -13741519.16549 -10688823.28547  21731937.283    21731944.365
  20530055.471    -3120973.54049  -2247800.51947  20530055.019    20530059.718
 03  6  6 18 26  0.0000000  0 10G18G 3G17G16G15G 6G29G26G23G21
  20479897.112   -10064753.29149  -7819201.01448  20479896.822    20479901.950
                  -1485434.88449   -788314.94443
  21096906.205      712883.75649    563669.84147  21096905.756    21096912.589
  23616893.536     -949350.59049   -723883.18445  23616893.235    23616900.232
  21191722.382   -11842116.55049  -9205154.47847  21191721.856    21191728.694
  22031463.622     8128756.45249   6338184.92546  22031463.505    22031470.749
  23898310.469     5170283.06449   4137486.32245  23898310.404    23898317.371
  21836922.985    -1755648.75849  -1351757.07246  21836923.143    21836929.449
  21722389.823   -13791693.52449 -10727920.16347  21722389.373    21722396.447
  20531392.525    -3113947.39049  -2242325.61048  20531392.063    20531396.739
 03  6  6 18 26 30.0000000  0 10G18G 3G17G16G15G 6G29G26G23G21
  20476168.383   -10084348.05949  -7834469.65848  20476168.064    20476173.184
                  -1581409.69049   -863100.57544                  24229337.159
  21102245.318      740941.00049    585532.60647  21102244.880    21102251.727
  23624877.247     -907396.31349   -691191.60345  23624876.969    23624883.972
  21181641.416   -11895092.31549  -9246434.27847  21181640.895    21181647.740
  22048454.620     8218044.71649   6407760.11646  22048454.523    22048461.818
  23912812.749     5246493.21249   4196870.79745  23912812.674    23912819.738
  21846407.794    -1705805.62649  -1312918.28646  21846407.967    21846414.261
  21712906.735   -13841527.55649 -10766751.84947  21712906.268    21712913.319
  20532780.074    -3106655.73749  -2236643.81247  20532779.612    20532784.271
 03  6  6 18 27  0.0000000  0 10G18G 3G17G16G15G 6G29G26G23G21
  20472516.384   -10103539.55249  -7849424.05848  20472516.052    20472521.194
  24211105.477    -1677175.30049   -937723.01945  24211104.991    24211113.495
  21107629.758      769236.19349    607580.78847  21107629.302    21107636.165
  23632938.066     -865036.45949   -658184.02845  23632937.808    23632944.772
  21171593.440   -11947894.87249  -9287579.10547  21171592.891    21171599.753
  22065508.202     8307661.67749   6477591.43946  22065508.067    22065515.421
  23927385.210     5323071.82949   4256542.39145  23927385.156    23927392.094
  21856007.725    -1655357.36849  -1273607.97946  21856007.931    21856014.243
  21703488.641   -13891020.00949 -10805317.36647  21703488.148    21703495.185
  20534218.580    -3099096.47949  -2230753.49247  20534218.107    20534222.775
 03  6  6 18 27 30.0000000  0 10G18G 3G17G16G15G 6G29G26G23G21
  20468940.872   -10122329.02849  -7864065.20548  20468940.537    20468945.655
  24192922.250    -1772729.40349  -1012180.73845  24192921.679    24192931.163
  21113059.334      797768.83149    629813.98447  21113058.864    21113065.737
  23641075.536     -822274.19349   -624862.84145  23641075.234    23641082.256
  21161578.384   -12000524.12449  -9328588.89647  21161577.855    21161584.733
  22082623.794     8397604.51049   6547676.67846  22082623.668    22082631.060
  23942027.173     5400015.82149   4316498.69245  23942027.099    23942034.021
  21865722.402    -1604306.46549  -1233828.08646  21865722.635    21865728.908
  21694135.367   -13940171.65749 -10843617.32947  21694134.873    21694141.917
  20535707.984    -3091269.75649  -2224654.76147  20535707.525    20535712.175
 03  6  6 18 28  0.0000000  0 10G18G 3G17G16G15G 6G29G26G23G21
  20465441.944   -10140715.85049  -7878392.59048  20465441.620    20465446.752
  24174779.722    -1868068.64049  -1086470.99745  24174779.718    24174788.057
  21118534.479      826540.77749    652233.65747  21118534.023    21118540.859
  23649289.198     -779110.93849   -591229.21845  23649288.899    23649296.103
  21151596.705   -12052978.09149  -9369462.10047  21151596.165    21151603.044
  22099801.248     8487872.14449   6618015.02046  22099801.136    22099808.501
  23956738.516     5477323.89549   4376738.69545  23956738.445    23956745.383
  21875551.571    -1552653.81749  -1193579.28446  21875551.810    21875558.073
  21684847.119   -13988981.56549 -10881650.99847  21684846.643    21684853.656
  20537248.536    -3083174.16049  -2218346.51747  20537248.069    20537252.731
 03  6  6 18 28 30.0000000  0 10G18G 3G17G16G15G 6G29G26G23G21
  20462018.965   -10158703.83249  -7892409.19148  20462018.629    20462023.760
  24156680.746    -1963179.13449  -1160582.99245  24156680.599    24156689.298
  21124054.646      855549.48349    674837.81647  21124054.202    21124061.017
  23657578.140     -735552.10949   -557287.34245  23657577.939    23657585.180
  21141648.031   -12105258.78349  -9410200.28647  21141647.492    21141654.352
  22117039.461     8578459.27149   6688602.30746  22117039.332    22117046.745
  23971518.009     5554990.63449   4437258.16445  23971517.983    23971524.915
  21885494.408    -1500404.39549  -1152865.47346  21885494.567    21885500.808
  21675623.314   -14037452.79549 -10919420.76247  21675622.839    21675629.870
  20538839.844    -3074811.76849  -2211830.37647  20538839.377    20538844.085
 03  6  6 18 29  0.0000000  0 10G18G 3G17G16G15G 6G29G26G23G21
  20458672.218   -10176290.96949  -7906113.44948  20458671.896    20458677.024
  24138620.882    -2058084.90049  -1234535.52645  24138620.631    24138628.929
  21129620.361      884797.40249    697628.37547  21129619.928    21129626.726
  23665942.545     -691597.46149   -523037.02645  23665942.259    23665949.514
  21131732.960   -12157362.72749  -9450800.74847  21131732.416    21131739.280
  22134338.554     8669366.39849   6759438.94246  22134338.446    22134345.895
  23986365.808     5633016.28349   4498057.31245  23986365.864    23986372.877
  21895550.820    -1447557.55549  -1111686.14346  21895550.975    21895557.252
  21666464.422   -14085582.89949 -10956924.72147  21666463.959    21666470.998
  20540482.501    -3066179.57849  -2205104.00647  20540482.030    20540486.760
 03  6  6 18 29 30.0000000  0 10G18G 3G17G16G15G 6G29G26G23G21
  20455401.624   -10193478.08549  -7919506.00048  20455401.320    20455406.456
  24120603.078    -2152768.99149  -1308315.19545  24120602.804    24120611.301
  21135231.781      914285.50449    720606.08547  21135231.324    21135238.145
  23674381.546     -647249.44949   -488480.19045  23674381.387    23674388.628
  21121851.730   -12209289.12349  -9491262.86147  21121851.167    21121858.019
  22151698.160     8760591.33949   6830523.22846  22151698.058    22151705.487
  24001281.408     5711398.65949   4559134.42045  24001281.448    24001288.622
  21905720.578    -1394115.33049  -1070042.87246  21905720.755    21905726.999
  21657370.394   -14133372.14149 -10994163.06647  21657369.945    21657376.988
  20542176.593    -3057277.11849  -2198167.03147  20542176.137    20542180.856
 03  6  6 18 30  0.0000000  0 10G18G 3G17G16G15G 6G29G26G23G21
  20452206.868   -10210266.42649  -7932587.82348  20452206.572    20452211.713
  24102627.634    -2247229.74749  -1381920.97345  24102627.468    24102635.907
  21140888.906      944013.78749    743770.94947  21140888.447    21140895.306
  23682895.074     -602511.32149   -453619.39645  23682894.803    23682902.166
  21112004.260   -12261037.72349  -9531586.43147  21112003.724    21112010.572
  22169117.719     8852131.25849   6901852.94646  22169117.629    22169125.032
  24016264.395     5790134.21049   4620486.73245  24016264.426    24016271.625
  21916003.085    -1340080.53549  -1027937.85746  21916003.236    21916009.490
  21648341.084   -14180821.35949 -11031136.46147  21648340.605    21648347.674
  20543922.152    -3048104.28449  -2191019.38248  20543921.699    20543926.399
 03  6  6 18 30 30.0000000  0 10G18G 3G17G16G15G 6G29G26G23G21
  20449087.933   -10226656.47449  -7945359.28448  20449087.641    20449092.772
  24084695.478    -2341464.18849  -1455350.31545  24084695.163    24084703.581
  21146591.904      973983.05549    767123.60047  21146591.449    21146598.356
  23691482.431     -557385.10449   -418456.19445  23691482.138    23691489.500
  21102190.955   -12312606.85049  -9571770.14747  21102190.438    21102197.269
  22186596.895     8943984.47049   6973426.79846  22186596.798    22186604.200
  24031314.330     5869221.11449   4682112.83445  24031314.258    24031321.390
  21926397.998    -1285454.90349   -985372.45646  21926398.150    21926404.448
  21639376.535   -14227930.14449 -11067844.57647  21639376.052    21639383.182
  20545719.300    -3038660.11949  -2183660.30048  20545718.855    20545723.566
 03  6  6 18 31  0.0000000  0 10G18G 3G17G16G15G 6G29G26G23G21
  20446044.840   -10242648.02749  -7957820.23348  20446044.538    20446049.671
  24066807.027    -2435468.99149  -1528600.78145  24066806.706    24066815.042
  21152340.961     1004194.48049    790664.93847  21152340.519    21152347.487
  23700143.160     -511872.54249   -382991.93045  23700142.973    23700150.242
  21092412.075   -12363995.16849  -9611812.98247  21092411.548    21092418.378
  22204135.362     9036149.26249   7045243.43346  22204135.267    22204142.660
  24046430.702     5948657.75449   4744011.46245  24046430.642    24046437.784
  21936905.116    -1230239.69149   -942347.64246  21936905.236    21936911.571
  21630476.899   -14274698.07649 -11104287.09147  21630476.413    21630483.546
  20547568.370    -3028943.17349  -2176088.66547  20547567.925    20547572.645
 03  6  6 18 31 30.0000000  0 10G18G 3G17G16G15G 6G29G26G23G21
  20443077.151   -10258243.30649  -7969972.40048  20443076.852    20443081.997
  24048962.102    -2529243.65149  -1601671.90945  24048961.889    24048970.066
  21158135.884     1034646.82449    814394.01547  21158135.437    21158142.392
  23708876.776     -465977.91649   -347229.92845  23708876.457    23708883.587
  21082667.434   -12415203.67649  -9651715.70847  21082666.893    21082673.745
  22221732.458     9128621.91849   7117299.95746  22221732.325    22221739.744
  24061612.918     6028439.96349   4806179.35845  24061612.802    24061619.888
  21947523.767    -1174438.60949   -898866.29846  21947523.866    21947530.228
  21621641.693   -14321127.05049 -11140465.48947  21621641.229    21621648.360
  20549469.157    -3018954.57149  -2168305.35047  20549468.709    20549473.431
 03  6  6 18 32  0.0000000  0 10G18G 3G17G16G15G 6G29G26G23G21
  20440184.932   -10273442.03449  -7981815.56848  20440184.655    20440189.778
  24031161.733    -2622784.54449  -1674560.76445  24031161.484    24031169.895
  21163976.935     1065341.34749    838311.79647  21163976.464    21163983.407
  23717682.551     -419702.44549   -311171.22745  23717682.320    23717689.611
  21072957.336   -12466230.34349  -9691476.73747  21072956.826    21072963.680
  22239387.828     9221401.34449   7189595.52146  22239387.682    22239395.109
  24076860.642     6108566.40349   4868615.47545  24076860.546    24076867.485
  21958253.654    -1118052.75949   -854929.30246  21958253.747    21958260.122
  21612871.142   -14367216.25549 -11176379.13347  21612870.751    21612877.859
  20551421.926    -3008692.77949  -2160309.16047  20551421.487    20551426.201
 03  6  6 18 32 30.0000000  0 10G18G 3G17G16G15G 6G29G26G23G21
  20437367.960   -10288245.33149  -7993350.60648  20437367.685    20437372.808
  24013406.405    -2716089.44349  -1747265.93445  24013406.205    24013414.446
  21169864.082     1096278.34849    862418.51947  21169863.628    21169870.510
  23726560.448     -373049.13549   -274818.04645  23726560.233    23726567.424
  21063282.011   -12517074.46049  -9731095.52647  21063281.484    21063288.325
  22257101.132     9314484.85649   7262128.04046  22257101.020    22257108.413
  24092173.196     6189034.26149   4931317.64545  24092173.076    24092180.078
  21969094.401    -1061084.58149   -810538.54446  21969094.482    21969100.891
  21604165.293   -14412966.10749 -11212028.34347  21604164.848    21604171.929
  20553426.756    -2998157.44549  -2152099.81947  20553426.309    20553431.031
 03  6  6 18 33  0.0000000  0 10G18G 3G17G16G15G 6G29G26G23G21
  20434626.200   -10302653.44449  -8004577.71148  20434625.913    20434631.033
  23995696.541    -2809155.31149  -1819784.72945  23995696.335    23995704.644
  21175797.570     1127458.83449    886714.96747  21175797.100    21175803.967
  23735509.952     -326019.98449   -238172.03145  23735509.739    23735516.958
  21053641.755   -12567734.30249  -9770570.71747  21053641.237    21053648.060
  22274871.994     9407870.86549   7334896.26746  22274871.867    22274879.245
  24107550.237     6269841.49049   4994284.25645  24107550.121    24107557.264
  21980045.565    -1003535.90449   -765695.44546  21980045.681    21980052.076
  21595523.993   -14458376.33349 -11247412.91047  21595523.540    21595530.641
  20555483.817    -2987347.39749  -2143676.41747  20555483.375    20555488.086
 03  6  6 18 33 30.0000000  0 10G18G 3G17G16G15G 6G29G26G23G21
  20431959.548   -10316666.75949  -8015497.18048  20431959.259    20431964.412
  23978032.489    -2901979.91549  -1892115.51145  23978032.384    23978040.846
  21181777.475     1158883.42049    911201.62847  21181777.031    21181783.857
  23744530.288     -278617.34349   -201234.98245  23744530.113    23744537.333
  21044036.723   -12618208.92849  -9809901.59047  21044036.217    21044043.050
  22292699.960     9501557.28249   7407898.58546  22292699.865    22292707.237
  24122991.576     6350986.16449   5057513.81145  24122991.511    24122998.725
  21991106.815     -945408.61849   -720401.48446  21991106.933    21991113.356
  21586947.280   -14503447.13649 -11282532.98947  21586946.828    21586953.953
  20557593.360    -2976261.81649  -2135038.31347  20557592.915    20557597.633
 03  6  6 18 34  0.0000000  0 10G18G 3G17G16G15G 6G29G26G23G21
  20429367.771   -10330286.51849  -8026109.98148  20429367.483    20429372.642
  23960414.814    -2994560.89849  -1964256.58045  23960414.739    23960422.773
  21187803.918     1190552.43249    935878.75147  21187803.459    21187810.318
  23753621.387     -230844.16249   -164009.19745  23753621.169    23753628.370
  21034467.078   -12668497.59449  -9849087.55447  21034466.542    21034473.404
  22310584.651     9595541.61049   7481133.02746  22310584.574    22310591.951
  24138496.650     6432465.26149   5121003.94845  24138496.486    24138503.710
  22002277.783     -886705.18049   -674658.58046  22002277.880    22002284.325
  21578435.106   -14548179.04649 -11317389.00047  21578434.610    21578441.744
  20559755.325    -2964900.54849  -2126185.38447  20559754.888    20559759.589
 03  6  6 18 34 30.0000000  0 10G18G 3G17G16G15G 6G29G26G23G21
  20426850.636   -10343514.16949  -8036417.24148  20426850.346    20426855.511
  23942843.957    -3086896.27749  -2036206.07545  23942843.914    23942852.055
  21193876.780     1222465.78349    960746.26747  21193876.325    21193883.227
  23762782.434     -182703.65649   -126497.19845  23762782.198    23762789.306
  21024932.862   -12718600.18449  -9888128.52947  21024932.322    21024939.232
  22328525.517     9689820.90649   7554597.32146  22328525.424    22328532.791
  24154064.666     6514275.66849   5184752.24845  24154064.489    24154071.760
  22013557.773     -827428.62849   -628469.09646  22013557.861    22013564.300
  21569987.130   -14592573.08049 -11351981.72747  21569986.689    21569993.811
  20561969.765    -2953263.63749  -2117117.67247  20561969.315    20561974.032
 03  6  6 18 35  0.0000000  0 10G18G 3G17G16G15G 6G29G26G23G21
  20424408.124   -10356349.83149  -8046419.05648  20424407.837    20424412.997
  23925320.383    -3178983.08349  -2107962.04945  23925320.276    23925328.517
  21199996.414     1254624.55249    985805.01747  21199995.948    21200002.908
  23772012.802     -134197.74349    -88700.47045  23772012.549    23772019.854
  21015434.403   -12768514.93949  -9927023.13847  21015433.868    21015440.771
  22346522.221     9784393.57149   7628290.21446  22346522.085    22346529.472
  24169695.441     6596415.70749   5248757.39145  24169695.298    24169702.620
  22024946.492     -767580.62049   -581834.32146  22024946.587    22024953.052
  21561603.644   -14636628.72049 -11386310.78047  21561603.183    21561610.268
  20564236.901    -2941349.73149  -2107834.12247  20564236.465    20564241.206
 03  6  6 18 35 30.0000000  0 10G18G 3G17G16G15G 6G29G26G23G21
  20422039.954   -10368794.69849  -8056116.35748  20422039.656    20422044.813
  23907844.525    -3270819.05949  -2179522.54645  23907844.324    23907852.669
  21206162.709     1287028.44249   1011054.77047  21206162.259    21206169.243
  23781312.197      -85329.26549    -50621.21545  23781311.900    23781319.179
  21005971.789   -12818241.31549  -9965770.95547  21005971.249    21005978.165
  22364574.135     9879256.88249   7702209.58546  22364574.008    22364581.460
  24185388.443     6678882.52349   5313017.17245  24185388.303    24185395.531
  22036443.512     -707163.57449   -534756.13546  22036443.627    22036450.016
  21553284.345   -14680346.75449 -11420376.75247  21553283.902    21553290.960
  20566556.791    -2929158.61449  -2098334.55947  20566556.349    20566561.136
 03  6  6 18 36  0.0000000  0 10G18G 3G17G16G15G 6G29G26G23G21
  20419746.262   -10380848.08949  -8065508.60748  20419745.954    20419751.118
  23890417.218    -3362400.41849  -2250884.60645  23890417.199    23890425.519
  21212376.036     1319679.49049   1036497.11847  21212375.578    21212382.547
  23790680.371      -36099.69549    -12260.53045  23790680.105    23790687.181
  20996545.451   -12867777.01149 -10004370.19247  20996544.924    20996551.828
  22382681.260     9974409.98649   7776354.76346  22382681.142    22382688.618
  24201143.299     6761674.91149   5377530.64945  24201143.197    24201150.475
  22048048.618     -646178.58649   -487235.39846  22048048.724    22048055.116
  21545029.631   -14723725.93449 -11454178.68047  21545029.097    21545036.140
  20568929.816    -2916688.31849  -2088617.45447  20568929.367    20568934.167
 03  6  6 18 36 30.0000000  0 10G18G 3G17G16G15G 6G29G26G23G21
  20417526.238   -10392514.50249  -8074599.32148  20417525.951    20417531.099
  23873037.821    -3453728.90749  -2322049.51645  23873037.760    23873046.009
  21218635.792     1352574.32549   1062129.42147  21218635.324    21218642.284
  23800115.899       13484.69249     26376.50245  23800115.603    23800123.185
  20987154.891   -12917124.80449 -10042823.01747  20987154.345    20987161.255
  22400842.430    10069846.91749   7850721.11546  22400842.279    22400849.784
  24216958.901     6844786.81449   5442293.10445  24216958.828    24216966.222
  22059760.571     -584631.66549   -439276.79646  22059760.695    22059767.127
  21536838.545   -14766770.28249 -11487719.71947  21536838.027    21536845.040
  20571355.353    -2903942.06449  -2078685.32547  20571354.907    20571359.700
 03  6  6 18 37  0.0000000  0 10G18G 3G17G16G15G 6G29G26G23G21
  20415380.856   -10403788.45449  -8083384.21648  20415380.576    20415385.744
  23855708.506    -3544795.12849  -2393010.25545  23855708.506    23855716.588
  21224943.292     1385720.34149   1087957.45347  21224942.818    21224949.764
  23809619.876       63427.52649     65292.93545  23809619.544    23809627.029
  20977801.452   -12966277.29249 -10081123.64847  20977800.931    20977807.824
  22419058.317    10165571.70349   7925311.75846  22419058.149    22419065.697
  24232836.028     6928221.88049   5507307.35345  24232835.937    24232843.440
  22071580.298     -522518.72149   -390877.13046  22071580.423    22071586.870
  21528712.386   -14809473.78149 -11520995.15247  21528711.843    21528718.824
  20573834.748    -2890912.84849  -2068532.69947  20573834.291    20573839.073
 03  6  6 18 37 30.0000000  0 10G18G 3G17G16G15G 6G29G26G23G21
  20413308.629   -10414678.09749  -8091869.65548  20413308.361    20413313.507
  23838427.979    -3635604.19749  -2463770.45245  23838427.849    23838436.266
  21231297.291     1419110.70449   1113975.88847  21231296.809    21231303.754
  23819189.985      113718.96549    104480.99345  23819189.598    23819197.018
  20968484.032   -13015240.75149 -10119276.99347  20968483.481    20968490.382
  22437327.133    10261574.77049   8000119.25146  22437327.001    22437334.542
  24248772.885     7011970.56449   5572565.99445  24248772.833    24248780.326
  22083505.906     -459849.31949   -342043.86846  22083506.007    22083512.510
  21520649.543   -14851844.09849 -11554010.96847  21520649.045    21520656.009
  20576366.699    -2877607.36549  -2058164.80547  20576366.258    20576371.024
 03  6  6 18 38  0.0000000  0 10G18G 3G17G16G15G 6G29G26G23G21
  20411310.464   -10425178.50049  -8100051.78648  20411310.184    20411315.337
  23821198.107    -3726147.96549  -2534324.07445  23821198.009    23821206.261
  21237698.870     1452750.97949   1140189.06047  21237698.397    21237705.357
  23828827.184      164361.99649    143943.02145  23828826.816    23828834.335
  20959203.831   -13064008.60249 -10157277.91547  20959203.295    20959210.180
  22455649.572    10357859.39149   8075146.13446  22455649.437    22455657.035
  24264769.988     7096035.97149   5638071.42545  24264769.959    24264777.380
  22095537.971     -396620.35449   -292774.57846  22095538.107    22095544.639
  21512651.188   -14893875.90149 -11586763.00447  21512650.682    21512657.599
  20578952.416    -2864019.28349  -2047576.70147  20578951.978    20578956.741
 03  6  6 18 38 30.0000000  0 10G18G 3G17G16G15G 6G29G26G23G21
  20409385.957   -10435291.95749  -8107932.40248  20409385.676    20409390.840
  23804018.719    -3816425.12949  -2604669.85845  23804018.699    23804026.960
  21244147.780     1486640.17949   1166596.19947  21244147.323    21244154.280
  23838530.520      215352.66449    183675.92245  23838530.099    23838537.772
  20949960.722   -13112581.27849 -10195126.75447  20949960.194    20949967.079
  22474024.793    10454421.84949   8150389.51146  22474024.657    22474032.408
  24280826.708     7180414.17949   5703820.62245  24280826.613    24280834.025
  22107675.816     -332835.57749   -243072.19946  22107675.954    22107682.492
  21504716.897   -14935570.98849 -11619252.66947  21504716.345    21504723.244
  20581591.775    -2850149.37649  -2036768.99347  20581591.341    20581596.102
 03  6  6 18 39  0.0000000  0 10G18G 3G17G16G15G 6G29G26G23G21
  20407534.877   -10445019.49949  -8115512.30348  20407534.598    20407539.751
  23786890.606    -3906433.75049  -2674806.33645  23786890.319    23786898.921
  21250644.160     1520778.92949   1193197.79047  21250643.705    21250650.734
  23848299.315      266688.12949    223677.47745  23848298.996    23848306.596
  20940755.018   -13160957.55549 -10232822.55547  20940754.507    20940761.376
  22492452.462    10551259.77049   8225847.52846  22492452.309    22492460.185
  24296942.486     7265102.54249   5769811.48745  24296942.406    24296949.722
  22119918.999     -268497.57549   -192938.73446  22119919.109    22119925.676
  21496846.520   -14976929.85749 -11651480.34247  21496846.003    21496852.913
  20584284.844    -2835997.39349  -2025741.48947  20584284.406    20584289.165
 03  6  6 18 39 30.0000000  0 10G18G 3G17G16G15G 6G29G26G23G21
  20405756.797   -10454363.30249  -8122793.18848  20405756.519    20405761.687
  23769814.012    -3996172.52349  -2744732.66245  23769813.822    23769822.195
  21257187.788     1555165.95749   1219992.85147  21257187.335    21257194.395
  23858133.161      318364.10049    263944.40045  23858132.729    23858140.244
  20931586.593   -13209138.15249 -10270365.87247  20931586.054    20931592.931
  22510931.861    10648369.46249   8301517.31946  22510931.746    22510939.656
  24313116.576     7350097.08749   5836040.94745  24313116.470    24313123.658
  22132266.673     -203610.05649   -142377.08646  22132266.771    22132273.401
  21489039.774   -15017954.20549 -11683447.35447  21489039.298    21489046.211
  20587031.485    -2821563.79649  -2014494.54247  20587031.045    20587035.796
 03  6  6 18 40  0.0000000  0 10G18G 3G17G16G15G 6G29G26G23G21
  20404052.059   -10463321.63949  -8129773.71248  20404051.789    20404056.935
  23752789.532    -4085636.64049  -2814444.93145  23752789.187    23752797.698
  21263779.327     1589804.67749   1246984.02847  21263778.872    21263785.977
  23868031.448      370380.31249    304476.38345  23868031.115    23868038.846
  20922455.983   -13257119.72049 -10307754.10947  20922455.446    20922462.321
  22529462.978    10745750.93549   8377398.88046  22529462.847    22529470.851
  24329348.811     7435397.68349   5902508.87445  24329348.762    24329355.866
  22144718.951     -138173.15849    -91387.33146  22144719.070    22144725.723
  21481297.121   -15058642.01849 -11715152.12747  21481296.648    21481303.561
  20589832.271    -2806845.76249  -2003025.95747  20589831.816    20589836.594
 03  6  6 18 40 30.0000000  0 10G18G 3G17G16G15G 6G29G26G23G21
  20402420.042   -10471898.11349  -8136456.67048  20402419.749    20402424.892
  23735817.358    -4174825.97449  -2883943.04045  23735816.966    23735825.359
  21270418.447     1624693.46949   1274170.07747  21270418.006    21270425.072
  23877993.759      422732.01949    345269.85445  23877993.419    23878000.996
  20913363.103   -13304903.17149 -10344987.95647  20913362.570    20913369.426
  22548044.921    10843399.67449   8453488.71146  22548044.793    22548052.922
  24345638.387     7520999.70449   5969211.68145  24345638.315    24345645.316
  22157274.979      -72191.33549    -39972.96646  22157275.047    22157281.649
  21473617.977   -15098995.87949 -11746596.66447  21473617.544    21473624.450
  20592686.816    -2791845.05349  -1991337.10047  20592686.350    20592691.148
 03  6  6 18 41  0.0000000  0 10G18G 3G17G16G15G 6G29G26G23G21
  20400861.221   -10480089.88349  -8142839.87248  20400860.928    20400866.054
  23718898.827    -4263734.66249  -2953222.52545  23718898.541    23718906.723
  21277105.885     1659835.88749   1301553.74647  21277105.426    21277112.481
  23888020.025      475419.76349    386325.12145  23888019.579    23888027.192
  20904308.716   -13352484.27149 -10382064.13847  20904308.189    20904315.048
  22566677.840    10941316.52649   8529787.46346  22566677.754    22566685.987
  24361985.585     7606903.96649   6036149.99645  24361985.419    24361992.343
  22169934.734       -5664.04049     11866.43546  22169934.833    22169941.428
  21466002.920   -15139013.09049 -11777778.88647  21466002.486    21466009.402
  20595595.911    -2776557.57949  -1979424.79447  20595595.466    20595600.273
 03  6  6 18 41 30.0000000  0 10G18G 3G17G16G15G 6G29G26G23G21
  20399374.204   -10487904.27249  -8148929.00848  20399373.897    20399379.031
  23702032.546    -4352366.33849  -3022286.19545  23702032.423    23702040.350
  21283840.407     1695225.83749   1329130.30047  21283839.954    21283846.969
  23898108.335      528434.45349    427635.20645  23898107.963    23898115.764
  20895291.831   -13399868.29149 -10418986.74347  20895291.291    20895298.167
  22585360.167    11039492.95549   8606288.46646  22585360.071    22585368.431
  24378388.626     7693101.58549   6103316.88445  24378388.232    24378395.426
  22182696.674       61400.05949     64124.14146  22182696.748    22182703.318
  21458450.656   -15178700.26549 -11808703.94347  21458450.254    21458457.189
  20598558.493    -2760989.19749  -1967293.59847  20598558.035    20598562.874
 03  6  6 18 42  0.0000000  0 10G18G 3G17G16G15G 6G29G26G23G21
  20397960.053   -10495335.55049  -8154719.61148  20397959.766    20397964.909
  23685220.910    -4440712.10949  -3091126.90145  23685220.703    23685229.077
  21290623.367     1730870.29549   1356905.17247  21290622.908    21290629.866
  23908259.875      581780.00749    469203.06445  23908259.407    23908267.269
  20886313.912   -13447047.50649 -10455749.76347  20886313.376    20886320.267
  22604092.765    11137933.30949   8682995.13346  22604092.722    22604101.115
  24394848.229     7779596.87049   6170715.73045  24394847.898    24394855.063
  22195561.536      129005.03849    116803.30746  22195561.633    22195568.122
  21450962.406   -15218051.08849 -11839366.89747  21450962.008    21450968.951
  20601575.944    -2745132.37449  -1954937.64447  20601575.486    20601580.339
 03  6  6 18 42 30.0000000  0 10G18G 3G17G16G15G 6G29G26G23G21
  20396618.001   -10502388.11449  -8160215.11748  20396617.695    20396622.860
  23668463.494    -4528773.14449  -3159745.89345  23668463.324    23668471.703
  21297454.233     1766766.56649   1384876.26347  21297453.799    21297460.710
  23918472.997      635450.21049    511023.89745  23918472.646    23918480.398
  20877374.483   -13494024.47649 -10492355.18947  20877373.955    20877380.839
  22622874.465    11236631.54249   8759902.74046  22622874.380    22622882.873
  24411363.107     7866383.57549   6238341.65445  24411362.875    24411370.032
  22208528.145      197144.97249    169899.31646  22208528.276    22208534.703
  21443537.484   -15257069.42649 -11869770.77247  21443537.058    21443544.031
  20604647.710    -2728990.20449  -1942359.34547  20604647.249    20604652.078
 03  6  6 18 43  0.0000000  0 11G18G 3G17G16G15G 6G29G26G23G14G21
  20395348.021   -10509061.87449  -8165415.45548  20395347.735    20395352.883
  23651760.815    -4616545.98049  -3228140.29545  23651760.798    23651768.854
  21304333.256     1802915.79249   1413044.46247  21304332.807    21304339.747
  23928747.587      689443.17349    553096.22745  23928747.182    23928754.993
  20868473.981   -13540797.07249 -10528801.37047  20868473.456    20868480.336
  22641704.920    11335586.15649   8837010.12146  22641704.854    22641713.454
  24427933.390     7953460.22349   6306193.53745  24427933.073    24427940.266
  22221596.266      265818.04549    223410.75846  22221596.389    22221602.792
  21436175.876   -15295754.87249 -11899915.26147  21436175.444    21436182.387
  24664306.091    -6539342.36749  -5063186.85245  24664305.896    24664316.305
  20607774.063    -2712561.33349  -1929557.64347  20607773.595    20607778.391
 03  6  6 18 43 30.0000000  0 11G18G 3G17G16G15G 6G29G26G23G14G21
  20394149.315   -10515361.15749  -8170323.99248  20394149.014    20394154.175
  23635112.818    -4704031.24749  -3296310.61145  23635112.873    23635120.979
  21311259.843     1839315.33849   1441407.71347  21311259.382    21311266.390
  23939082.405      743753.00749    595415.50245  23939081.939    23939089.797
  20859611.902   -13587367.57349 -10565090.07247  20859611.371    20859618.231
  22660583.187    11434791.63749   8914312.98846  22660583.085    22660591.726
  24444557.641     8040820.67449   6374266.55445  24444557.425    24444564.592
  22234764.654      335018.57849    277333.19646  22234764.793    22234771.259
  21428876.932   -15334111.23249 -11929803.31847  21428876.468    21428883.405
  24642538.276    -6653733.14249  -5152322.49545  24642538.066    24642548.478
  20610954.482    -2695848.17949  -1916534.42547  20610954.023    20610958.789
 03  6  6 18 44  0.0000000  0 11G18G 3G17G16G15G 6G29G26G23G14G21
  20393022.669   -10521281.71049  -8174937.41548  20393022.384    20393027.540
  23618521.101    -4791221.47249  -3364250.99945  23618521.158    23618529.302
  21318235.121     1875970.72449   1469970.32747  21318234.693    21318241.735
  23949477.868      798381.80149    637983.30245  23949477.551    23949485.215
  20850789.417   -13633730.00049 -10601216.63647  20850788.899    20850795.732
  22679509.638    11534250.66649   8991813.41846  22679509.543    22679518.266
  24461236.338     8128467.80649   6442562.96045  24461236.118    24461243.282
  22248033.848      404748.87549    331668.43846  22248034.017    22248040.552
  21421641.401   -15372134.00849 -11959431.43747  21421640.947    21421647.858
  24620771.571    -6768118.04649  -5241453.53945  24620771.315    24620781.668
  20614190.040    -2678845.26449  -1903285.42147  20614189.603    20614194.353
 03  6  6 18 44 30.0000000  0 11G18G 3G17G16G15G 6G29G26G23G14G21
  20391967.773   -10526825.04349  -8179256.90148  20391967.495    20391972.652
  23601985.843    -4878114.90449  -3431960.07745  23601985.804    23601993.923
  21325259.080     1912881.95449   1498732.29447  21325258.661    21325265.753
  23959933.442      853326.15349    680796.95545  23959933.203    23959940.951
  20842006.719   -13679883.50549 -10637180.39747  20842006.199    20842013.016
  22698483.754    11633960.29849   9069509.12246  22698483.687    22698492.502
  24477968.989     8216398.53749   6511080.36445  24477968.975    24477975.985
  22261403.342      475006.02549    386414.22546  22261403.541    22261410.073
  21414469.238   -15409824.06649 -11988800.29647  21414468.742    21414475.651
  24599006.323    -6882495.04849  -5330578.44545  24599005.943    24599016.297
  20617480.759    -2661552.52349  -1889810.57347  20617480.315    20617485.069
 03  6  6 18 45  0.0000000  0 11G18G 3G17G16G15G 6G29G26G23G14G21
  20390984.700   -10531991.37949  -8183282.62048  20390984.405    20390989.551
  23585507.704    -4964708.17149  -3499435.34845  23585507.671    23585515.630
  21332331.997     1950050.27549   1527694.59647  21332331.584    21332338.728
  23970448.831      908584.38249    723855.22145  23970448.682    23970456.273
  20833264.104   -13725826.22649 -10672979.91347  20833263.572    20833270.410
  22717505.345    11733919.05649   9147398.95346  22717505.278    22717514.099
  24494755.279     8304611.24949   6579817.46045  24494755.254    24494762.398
  22274872.806      545788.22649    441569.13546  22274872.986    22274879.514
  21407360.478   -15447180.88149 -12017909.48547  21407359.983    21407366.885
  24577243.256    -6996860.83549  -5419694.57845  24577242.879    24577252.999
  20620826.929    -2643968.50449  -1876108.75447  20620826.489    20620831.245
 03  6  6 18 45 30.0000000  0 11G18G 3G17G16G15G 6G29G26G23G14G21
  20390072.498   -10536784.95449  -8187017.88348  20390072.237    20390077.375
  23569086.475    -5051002.21249  -3566677.37645  23569086.359    23569094.512
  21339453.242     1987472.63349   1556854.84347  21339452.844    21339459.981
  23981022.900      964150.36249    767153.29145  23981022.623    23981030.328
  20824561.201   -13771560.34449 -10708616.88947  20824560.677    20824567.497
  22736573.303    11834121.06749   9225478.32646  22736573.198    22736582.062
  24511594.095     8393099.74149   6648769.46745  24511594.027    24511601.358
  22288441.068      617089.48349    497128.50546  22288441.273    22288447.758
  21400314.302   -15484208.46049 -12046762.13247  21400313.871    21400320.761
  24555482.125    -7111216.13649  -5508802.52245  24555481.664    24555491.892
  20624227.966    -2626095.97549  -1862182.13047  20624227.524    20624232.315
 03  6  6 18 46  0.0000000  0 11G18G 3G17G16G15G 6G29G26G23G14G21
  20389232.116   -10541201.30349  -8190459.20248  20389231.848    20389236.988
  23552723.624    -5136989.07349  -3633680.10345  23552723.537    23552731.645
  21346624.028     2025155.15549   1586217.81747  21346623.600    21346630.755
  23991655.872     1020026.66349    810693.13545  23991655.553    23991663.319
  20815899.219   -13817079.36149 -10744086.24847  20815898.703    20815905.509
  22755688.059    11934569.50949   9303749.72746  22755688.005    22755696.940
  24528485.926     8481867.23649   6717938.87045  24528485.792    24528493.363
  22302108.584      688912.55349    553094.48046  22302108.761    22302115.260
  21393331.843   -15520901.72349 -12075354.27547  21393331.345    21393338.256
  24533724.489    -7225552.90149  -5597895.99945  24533724.066    24533734.326
  20627685.033    -2607928.86849  -1848025.96647  20627684.601    20627689.418
 03  6  6 18 46 30.0000000  0 11G18G 3G17G16G15G 6G29G26G23G14G21
  20388462.351   -10545246.53749  -8193611.33748  20388462.071    20388467.216
  23536418.890    -5222671.74549  -3700445.78545  23536418.755    23536426.749
  21353843.396     2063093.02649   1615779.76247  21353842.982    21353850.111
  24002346.302     1076205.25249    854468.56245  24002346.071    24002353.835
  20807277.412   -13862387.41449 -10779391.22047  20807276.882    20807283.690
  22774848.313    12035256.79449   9382207.22746  22774848.250    22774857.275
  24545429.502     8570905.93849   6787319.61945  24545429.373    24545436.814
  22315873.901      761249.71849    609461.04746  22315874.082    22315880.611
  21386411.884   -15557266.39049 -12103690.36547  21386411.386    21386418.292
  24511969.855    -7339873.77549  -5686977.06045  24511969.297    24511979.830
  20631197.331    -2589471.67149  -1833643.75547  20631196.909    20631201.743
 03  6  6 18 47  0.0000000  0 11G18G 3G17G16G15G 6G29G26G23G14G21
  20387763.109   -10548921.05449  -8196474.60748  20387762.836    20387768.009
  23520172.334    -5308047.13249  -3766972.00345  23520172.302    23520180.416
  21361111.483     2101287.02749   1645541.28747  21361111.060    21361118.185
  24013093.971     1132683.74749    898477.68545  24013093.651    24013101.394
  20798695.996   -13907482.98049 -10814530.62347  20798695.473    20798702.246
  22794053.638    12136181.02349   9460849.36246  22794053.585    22794062.602
  24562424.153     8660213.66149   6856909.96145  24562424.077    24562431.769
  22329736.642      834098.59449    666226.35446  22329736.824    22329743.360
  21379554.408   -15593302.55349 -12131770.48047  21379553.913    21379560.820
  24490218.790    -7454175.91649  -5776043.51245  24490218.184    24490228.623
  20634764.999    -2570723.38649  -1819034.72747  20634764.590    20634769.460
 03  6  6 18 47 30.0000000  0 11G18G 3G17G16G15G 6G29G26G23G14G21
  20387134.194   -10552225.87049  -8199049.79848  20387133.921    20387139.124
  23503984.934    -5393112.49749  -3833256.63945  23503984.930    23503993.157
  21368428.349     2139737.51349   1675502.66847  21368427.925    21368435.065
  24023897.999     1189459.23249    942718.18445  24023897.702    24023905.615
  20790155.228   -13952364.99449 -10849503.61547  20790154.705    20790161.482
  22813303.543    12237339.67149   9539674.15946  22813303.538    22813312.529
  24579469.622     8749787.87549   6926707.98345  24579469.547    24579477.208
  22343696.253      907456.67249    723388.44046  22343696.431    22343702.969
  21372759.315   -15629010.82749 -12159595.10147  21372758.837    21372765.756
  24468471.790    -7568456.71749  -5865093.31545  24468471.270    24468481.659
  20638388.185    -2551683.64249  -1804198.58547  20638387.781    20638392.627
 03  6  6 18 48  0.0000000  0 11G18G 3G17G16G15G 6G29G26G23G14G21
  20386576.120   -10555158.69149  -8201335.11948  20386575.847    20386581.034
  23487857.547    -5477862.49849  -3899295.53645  23487857.456    23487865.654
  21375794.781     2178448.21349   1705666.81647  21375794.345    21375801.502
  24034758.730     1246532.33649    987190.62445  24034758.462    24034766.391
  20781655.993   -13997028.77949 -10884306.56047  20781655.469    20781662.264
  22832598.349    12338733.69249   9618682.36046  22832598.330    22832607.264
  24596565.898     8839629.30949   6996714.21745  24596565.831    24596573.554
  22357752.843      981324.54549    780947.77846  22357753.050    22357759.564
  21366027.125   -15664388.33049 -12187161.97247  21366026.717    21366033.612
  24446729.897    -7682710.17749  -5954121.78845  24446729.432    24446739.846
  20642067.639    -2532348.14449  -1789131.99247  20642067.214    20642072.048
 03  6  6 18 48 30.0000000  0 11G18G 3G17G16G15G 6G29G26G23G14G21
  20386087.746   -10557725.19049  -8203335.00148  20386087.455    20386092.634
  23471789.694    -5562299.43049  -3965090.52145  23471789.569    23471797.643
  21383209.929     2217414.93549   1736030.45647  21383209.512    21383216.644
  24045674.689     1303895.42349   1031889.04645  24045674.357    24045682.354
  20773197.553   -14041478.15549 -10918942.44047  20773197.015    20773203.828
  22851936.519    12440355.78049   9697868.28446  22851936.483    22851945.389
  24613711.650     8929730.78049   7066923.08645  24613711.642    24613719.391
  22371905.045     1055694.67349    838898.46846  22371905.243    22371911.785
  21359356.895   -15699440.33449 -12214475.20747  21359356.525    21359363.405
  24424992.708    -7796938.63949  -6043130.76445  24424992.410    24425002.893
  20645802.501    -2512721.41049  -1773838.46547  20645802.089    20645806.884
 03  6  6 18 49  0.0000000  0 11G18G 3G17G16G15G 6G29G26G23G14G21
  20385669.633   -10559922.29649  -8205047.03348  20385669.365    20385674.532
  23455782.720    -5646416.38549  -4030636.19245  23455782.618    23455790.533
  21390674.721     2256642.34449   1766597.23747  21390674.304    21390681.412
  24056646.060     1361549.73649   1076814.38445  24056645.670    24056653.744
  20764780.946   -14085707.70549 -10953407.01447  20764780.432    20764787.215
  22871318.384    12542207.71849   9777233.30746  22871318.405    22871327.307
  24630907.272     9020093.84749   7137335.77345  24630907.347    24630915.022
  22386153.117     1130568.52749    897241.67346  22386153.288    22386159.828
  21352749.311   -15734163.36949 -12241532.10047  21352748.920    21352755.868
  24403261.625    -7911135.18749  -6132114.87845  24403261.365    24403271.756
  20649593.657    -2492798.67849  -1758314.27947  20649593.264    20649598.019
